[[{"header":{"parameterUnit":"m.s-1","parameterCategory":1,"la1":31.0,"la2":29.5877,"lo1":-88.7671,"lo2":-86.6584,"dy":0.0162,"dx":0.0185,"nx":115,"ny":88,"refTime":"2025-07-09T12:00:00:Z","depth":0,"parameterNumber":2,"parameterNumberName":"U-component_of_WINDS"},"data":[0.0,0.0,0.0,0.0,0.0,0.0,0.0,0.0,0.0,0.0,0.0,0.0,0.0,0.0,0.0,0.0,0.0,0.0,0.0,0.0,0.0,0.0,0.0,0.0,0.0,0.0,0.0,0.0,0.0,0.0,0.0,0.0,0.0,0.0,0.0,0.0,0.0,0.0,0.0,0.0,0.0,0.0,0.0,0.0,0.0,0.0,0.0,0.0,0.0,0.0,0.0,0.0,0.0,0.0,0.0,0.0,0.0,0.0,0.0,0.0,0.0,0.0,0.0,0.0,0.0,0.0,0.0,0.0,0.0,0.0,0.0,0.0,0.0,0.0,0.0,0.0,0.0,0.0,0.0,0.0,0.0,0.0,0.0,0.0,0.0,0.0,0.0,0.0,0.0,0.0,0.0,0.0,0.0,0.0,0.0,0.0,0.0,0.0,0.0,0.0,0.0,0.0,0.0,0.0,0.0,0.0,0.0,0.0,0.0,0.0,0.0,0.0,0.0,0.0,0.0,0.0,0.0,0.0,0.0,0.0,0.0,0.0,0.0,0.0,0.0,0.0,0.0,0.0,0.0,0.0,0.0,0.0,0.0,0.0,0.0,0.0,0.0,0.0,0.0,0.0,0.0,0.0,0.0,0.0,0.0,0.0,0.0,0.0,0.0,0.0,0.0,0.0,0.0,0.0,0.0,0.0,0.0,0.0,0.0,0.0,0.0,0.0,0.0,0.0,0.0,0.0,0.0,0.0,0.0,0.0,0.0,0.0,0.0,0.0,0.0,0.0,0.0,0.0,0.0,0.0,0.0,0.0,0.0,0.0,0.0,0.0,0.0,0.0,0.0,0.0,0.0,0.0,0.0,0.0,0.0,0.0,0.0,0.0,0.0,0.0,0.0,0.0,0.0,0.0,0.0,0.0,0.0,0.0,0.0,0.0,0.0,0.0,0.0,0.0,0.0,0.0,0.0,0.0,0.0,0.0,0.0,0.0,0.0,0.0,0.0,0.0,0.0,0.0,0.0,0.0,0.0,0.0,0.0,0.0,0.0,0.0,0.0,0.0,0.0,0.0,0.0,0.0,0.0,0.0,0.0,0.0,0.0,0.0,0.0,0.0,0.0,0.0,0.0,0.0,0.0,0.0,0.0,0.0,0.0,0.0,0.0,0.0,0.0,0.0,0.0,0.0,0.0,0.0,0.0,0.0,0.0,0.0,0.0,0.0,0.0,0.0,0.0,0.0,0.0,0.0,0.0,0.0,0.0,0.0,0.0,0.0,0.0,0.0,0.0,0.0,0.0,0.0,0.0,0.0,0.0,0.0,0.0,0.0,0.0,0.0,0.0,0.0,0.0,0.0,0.0,0.0,0.0,0.0,0.0,0.0,0.0,0.0,0.0,0.0,0.0,0.0,0.0,0.0,0.0,0.0,0.0,0.0,0.0,0.0,0.0,0.0,0.0,0.0,0.0,0.0,0.0,0.0,0.0,0.0,0.0,0.0,0.0,0.0,0.0,0.0,0.0,0.0,0.0,0.0,0.0,0.0,0.0,0.0,0.0,0.0,0.0,0.0,0.0,0.0,0.0,0.0,0.0,0.0,0.0,0.0,0.0,0.0,0.0,0.0,0.0,0.0,0.0,0.0,0.0,0.0,0.0,0.0,0.0,0.0,0.0,0.0,0.0,0.0,0.0,0.0,0.0,0.0,0.0,0.0,0.0,0.0,0.0,0.0,0.0,0.0,0.0,0.0,0.0,0.0,0.0,0.0,0.0,0.0,0.0,0.0,0.0,0.0,0.0,0.0,0.0,0.0,0.0,0.0,0.0,0.0,0.0,0.0,0.0,0.0,0.0,0.0,0.0,0.0,0.0,0.0,0.0,0.0,0.0,0.0,0.0,0.0,0.0,0.0,0.0,0.0,0.0,0.0,0.0,0.0,0.0,0.0,0.0,0.0,0.0,0.0,0.0,0.0,0.0,0.0,0.0,0.0,0.0,0.0,0.0,0.0,0.0,0.0,0.0,0.0,0.0,0.0,0.0,0.0,0.0,0.0,0.0,0.0,0.0,0.0,0.0,0.0,0.0,0.0,0.0,0.0,0.0,0.0,0.0,0.0,0.0,0.0,0.0,0.0,0.0,0.0,0.0,0.0,0.0,0.0,0.0,0.0,0.0,0.0,0.0,0.0,0.0,0.0,0.0,0.0,0.0,0.0,0.0,0.0,0.0,0.0,0.0,0.0,0.0,0.0,0.0,0.0,0.0,0.0,0.0,0.0,0.0,0.0,0.0,0.0,0.0,0.0,0.0,0.0,0.0,0.0,0.0,0.0,0.0,0.0,0.0,0.0,0.0,0.0,0.0,0.0,0.0,0.0,0.0,0.0,0.0,0.0,0.0,0.0,0.0,0.0,0.0,0.0,0.0,0.0,0.0,0.0,0.0,0.0,0.0,0.0,0.0,0.0,0.0,0.0,0.0,0.0,0.0,0.0,0.0,0.0,0.0,0.0,0.0,0.0,0.0,0.0,0.0,0.0,0.0,0.0,0.0,0.0,0.0,0.0,0.0,0.0,0.0,0.0,0.0,0.0,0.0,0.0,0.0,0.0,0.0,0.0,0.0,0.0,0.0,0.0,0.0,0.0,0.0,0.0,0.0,0.0,0.0,0.0,0.0,0.0,0.0,0.0,0.0,0.0,0.0,0.0,0.0,0.0,0.0,0.0,0.0,0.0,0.0,0.0,0.0,0.0,0.0,0.0,0.0,0.0,0.0,0.0,0.0,0.0,0.0,0.0,0.0,0.0,0.0,0.0,0.0,0.0,0.0,0.0,0.0,0.0,0.0,0.0,0.0,0.0,0.0,0.0,0.0,0.0,0.0,0.0,0.0,0.0,0.0,0.0,0.0,0.0,0.0,0.0,0.0,0.0,0.0,0.0,0.0,0.0,0.0,0.0,0.0,0.0,0.0,0.0,0.0,0.0,0.0,0.0,0.0,0.0,0.0,0.0,0.0,0.0,0.0,0.0,0.0,0.0,0.0,0.0,0.0,0.0,0.0,0.0,0.0,0.0,0.0,0.0,0.0,0.0,0.0,0.0,0.0,0.0,0.0,0.0,0.0,0.0,0.0,0.0,0.0,0.0,0.0,0.0,0.0,0.0,0.0,0.0,0.0,0.0,0.0,0.0,0.0,0.0,0.0,0.0,0.0,0.0,0.0,0.0,0.0,0.0,0.0,0.0,0.0,0.0,0.0,0.0,0.0,0.0,0.0,0.0,0.0,0.0,0.0,0.0,0.0,0.0,0.0,0.0,0.0,0.0,0.0,0.0,0.0,0.0,0.0,0.0,0.0,0.0,0.0,0.0,0.0,0.0,0.0,0.0,0.0,0.0,0.0,0.0,0.0,0.0,0.0,0.0,0.0,0.0,0.0,0.0,0.0,0.0,0.0,0.0,0.0,0.0,0.0,0.0,0.0,0.0,0.0,0.0,0.0,0.0,0.0,0.0,0.0,0.0,0.0,0.0,0.0,0.0,0.0,0.0,0.0,0.0,0.0,0.0,0.0,0.0,0.0,0.0,0.0,0.0,0.0,0.0,0.0,0.0,0.0,0.0,0.0,0.0,0.0,0.0,0.0,0.0,0.0,0.0,0.0,0.0,0.0,0.0,0.0,0.0,0.0,0.0,0.0,0.0,0.0,0.0,0.0,0.0,0.0,0.0,0.0,0.0,0.0,0.0,0.0,0.0,0.0,0.0,0.0,0.0,0.0,0.0,0.0,0.0,0.0,0.0,0.0,0.0,0.0,0.0,0.0,0.0,0.0,0.0,0.0,0.0,0.0,0.0,0.0,0.0,0.0,0.0,0.0,0.0,0.0,0.0,0.0,0.0,0.0,0.0,0.0,0.0,0.0,0.0,0.0,0.0,0.0,0.0,0.0,0.0,0.0,0.0,0.0,0.0,0.0,0.0,0.0,0.0,0.0,0.0,0.0,0.0,0.0,0.0,0.0,0.0,0.0,0.0,0.0,0.0,0.0,0.0,0.0,0.0,0.0,0.0,0.0,0.0,0.0,0.0,0.0,0.0,0.0,0.0,0.0,0.0,0.0,0.0,0.0,0.0,0.0,0.0,0.0,0.0,0.0,0.0,0.0,0.0,0.0,0.0,0.0,0.0,0.0,0.0,0.0,0.0,0.0,0.0,0.0,0.0,0.0,0.0,0.0,0.0,0.0,0.0,0.0,0.0,0.0,0.0,0.0,0.0,0.0,0.0,0.0,0.0,0.0,0.0,0.0,0.0,0.0,0.0,-0.7906,0.0,0.0,0.0,0.0,0.0,0.0,0.0,0.0,0.0,0.0,0.0,0.0,0.0,0.0,0.0,0.0,0.0,0.0,0.0,0.0,0.0,0.0,0.0,0.0,0.0,0.0,0.0,0.0,0.0,0.0,0.0,0.0,0.0,0.0,0.0,0.0,0.0,0.0,0.0,0.0,0.0,0.0,0.0,0.0,0.0,0.0,0.0,0.0,0.0,0.0,0.0,0.0,0.0,0.0,0.0,0.0,0.0,0.0,0.0,0.0,0.0,0.0,0.0,0.0,0.0,0.0,0.0,0.0,0.0,0.0,0.0,0.0,0.0,0.0,0.0,0.0,0.0,0.0,0.0,0.0,0.0,0.0,0.0,0.0,0.0,0.0,0.0,0.0,0.0,0.0,0.0,0.0,0.0,0.0,0.0,0.0,0.0,0.0,0.0,0.0,0.0,0.0,0.0,0.0,0.0,0.0,0.0,0.0,0.0,0.0,-0.7387,-0.7379,-0.7477,-0.7509,-0.753,0.0,0.0,0.0,0.0,0.0,0.0,0.0,0.0,0.0,0.0,0.0,0.0,0.0,0.0,0.0,0.0,0.0,0.0,0.0,0.0,0.0,0.0,0.0,0.0,0.0,0.0,0.0,0.0,0.0,0.0,0.0,0.0,0.0,0.0,0.0,0.0,0.0,0.0,0.0,0.0,0.0,0.0,0.0,0.0,0.0,0.0,0.0,0.0,0.0,0.0,0.0,0.0,0.0,0.0,0.0,0.0,0.0,0.0,0.0,0.0,0.0,0.0,0.0,0.0,0.0,0.0,0.0,0.0,0.0,0.0,0.0,0.0,0.0,0.0,0.0,0.0,0.0,0.0,0.0,0.0,0.0,0.0,0.0,0.0,0.0,0.0,0.0,0.0,0.0,0.0,0.0,0.0,0.0,0.0,0.0,0.0,0.0,0.0,0.0,0.0,0.0,0.0,0.0,0.0,0.0,0.0,0.0,0.0,0.0,0.0,0.0,0.0,-0.7731,-0.7757,-0.7765,0.0,0.0,0.0,0.0,0.0,0.0,0.0,0.0,0.0,0.0,0.0,0.0,0.0,0.0,0.0,0.0,0.0,0.0,0.0,0.0,0.0,0.0,0.0,0.0,0.0,0.0,0.0,0.0,0.0,0.0,0.0,0.0,0.0,0.0,0.0,0.0,0.0,0.0,0.0,0.0,0.0,0.0,0.0,0.0,0.0,0.0,0.0,0.0,0.0,0.0,0.0,0.0,0.0,0.0,0.0,0.0,0.0,0.0,0.0,0.0,0.0,0.0,0.0,0.0,0.0,0.0,0.0,0.0,0.0,0.0,0.0,0.0,0.0,0.0,0.0,0.0,0.0,0.0,0.0,0.0,0.0,0.0,0.0,0.0,0.0,0.0,0.0,0.0,0.0,0.0,0.0,0.0,0.0,0.0,0.0,0.0,0.0,0.0,0.0,0.0,0.0,0.0,0.0,0.0,0.0,0.0,0.0,0.0,0.0,0.0,-0.7652,-0.9146,-0.9348,0.0,-0.9484,0.0,0.0,0.0,0.0,0.0,0.0,0.0,0.0,0.0,0.0,0.0,0.0,0.0,0.0,0.0,0.0,0.0,0.0,0.0,0.0,0.0,0.0,0.0,0.0,0.0,0.0,0.0,0.0,0.0,0.0,0.0,0.0,0.0,0.0,0.0,0.0,0.0,0.0,0.0,0.0,0.0,0.0,0.0,0.0,0.0,0.0,0.0,0.0,0.0,0.0,0.0,0.0,0.0,0.0,0.0,0.0,0.0,0.0,0.0,0.0,0.0,0.0,0.0,0.0,0.0,0.0,0.0,0.0,0.0,0.0,0.0,0.0,0.0,0.0,0.0,0.0,0.0,0.0,0.0,0.0,0.0,0.0,0.0,0.0,0.0,0.0,0.0,0.0,0.0,0.0,0.0,0.0,0.0,0.0,0.0,0.0,0.0,0.0,0.0,0.0,0.0,0.0,0.0,0.0,0.0,0.0,0.0,0.0,0.0,0.0,0.0,-0.9217,-0.9309,-0.9344,0.0,0.0,0.0,0.0,0.0,0.0,0.0,0.0,0.0,0.0,0.0,0.0,0.0,0.0,0.0,0.0,0.0,0.0,0.0,0.0,0.0,0.0,0.0,0.0,0.0,0.0,0.0,0.0,0.0,0.0,0.0,0.0,0.0,0.0,0.0,0.0,0.0,0.0,0.0,0.0,0.0,0.0,0.0,0.0,0.0,0.0,0.0,0.0,0.0,0.0,0.0,0.0,0.0,0.0,0.0,0.0,0.0,0.0,0.0,0.0,0.0,0.0,0.0,0.0,0.0,0.0,0.0,0.0,0.0,0.0,0.0,0.0,0.0,0.0,0.0,0.0,0.0,0.0,0.0,0.0,0.0,0.0,0.0,0.0,0.0,0.0,0.0,0.0,0.0,0.0,0.0,0.0,0.0,0.0,0.0,0.0,0.0,0.0,0.0,0.0,0.0,0.0,0.0,0.0,0.0,0.0,0.0,0.0,0.0,0.0,-0.8724,0.0,-0.9755,-0.978,-0.9579,-0.9126,0.0,0.0,0.0,0.0,0.0,0.0,0.0,0.0,0.0,0.0,0.0,0.0,0.0,0.0,0.0,0.0,0.0,0.0,0.0,0.0,0.0,0.0,0.0,0.0,0.0,0.0,0.0,0.0,0.0,0.0,0.0,0.0,0.0,0.0,0.0,0.0,0.0,0.0,0.0,0.0,0.0,0.0,0.0,0.0,0.0,0.0,0.0,0.0,0.0,0.0,0.0,0.0,0.0,0.0,0.0,0.0,0.0,0.0,0.0,0.0,0.0,0.0,0.0,0.0,0.0,0.0,0.0,0.0,0.0,0.0,0.0,0.0,0.0,0.0,0.0,0.0,0.0,0.0,0.0,0.0,0.0,0.0,0.0,0.0,0.0,0.0,0.0,0.0,0.0,0.0,0.0,0.0,0.0,0.0,0.0,0.0,0.0,0.0,0.0,0.0,0.0,0.0,0.0,0.0,0.0,0.0,0.0,0.0,0.0,-0.9856,-0.9881,-1.1439,-1.1477,-1.0735,0.0,0.0,0.0,0.0,0.0,0.0,0.0,0.0,0.0,0.0,0.0,0.0,0.0,0.0,0.0,0.0,0.0,0.0,0.0,0.0,0.0,0.0,0.0,0.0,0.0,0.0,0.0,0.0,0.0,0.0,0.0,0.0,0.0,0.0,0.0,0.0,0.0,0.0,0.0,0.0,0.0,0.0,0.0,0.0,0.0,0.0,0.0,0.0,0.0,0.0,0.0,0.0,0.0,0.0,0.0,0.0,0.0,0.0,0.0,0.0,0.0,0.0,0.0,0.0,0.0,0.0,0.0,0.0,0.0,0.0,0.0,0.0,0.0,0.0,0.0,0.0,0.0,0.0,0.0,0.0,0.0,0.0,0.0,0.0,0.0,0.0,0.0,0.0,0.0,0.0,0.0,0.0,0.0,0.0,0.0,0.0,0.0,0.0,0.0,0.0,0.0,0.0,0.0,0.0,0.0,0.0,0.0,0.0,0.0,-0.8349,-0.8838,-1.0422,-1.299,-1.1125,-1.0207,0.0,0.0,0.0,0.0,0.0,0.0,0.0,0.0,0.0,0.0,0.0,0.0,0.0,0.0,0.0,0.0,0.0,0.0,0.0,0.0,0.0,0.0,0.0,0.0,0.0,0.0,0.0,0.0,0.0,0.0,0.0,0.0,0.0,0.0,0.0,0.0,0.0,0.0,0.0,0.0,0.0,0.0,0.0,0.0,0.0,0.0,0.0,0.0,0.0,0.0,0.0,0.0,0.0,0.0,0.0,0.0,0.0,0.0,0.0,0.0,0.0,0.0,0.0,0.0,0.0,0.0,0.0,0.0,0.0,0.0,0.0,0.0,0.0,0.0,0.0,0.0,0.0,0.0,0.0,0.0,0.0,0.0,0.0,0.0,0.0,0.0,0.0,0.0,0.0,0.0,0.0,0.0,0.0,0.0,0.0,0.0,0.0,0.0,0.0,0.0,0.0,0.0,0.0,0.0,0.0,0.0,0.0,0.0,0.0,-0.8189,0.0,-1.1347,0.0,-1.1102,-0.9943,0.0,0.0,0.0,0.0,0.0,0.0,0.0,0.0,0.0,0.0,0.0,0.0,0.0,0.0,0.0,0.0,0.0,0.0,0.0,0.0,0.0,0.0,0.0,0.0,0.0,0.0,0.0,0.0,0.0,0.0,0.0,0.0,0.0,0.0,0.0,0.0,0.0,0.0,0.0,0.0,0.0,0.0,0.0,0.0,0.0,0.0,0.0,0.0,0.0,0.0,0.0,0.0,0.0,0.0,0.0,0.0,0.0,0.0,0.0,0.0,0.0,0.0,0.0,0.0,0.0,0.0,0.0,0.0,0.0,0.0,0.0,0.0,0.0,0.0,0.0,0.0,0.0,0.0,0.0,0.0,0.0,0.0,0.0,0.0,0.0,0.0,0.0,0.0,0.0,0.0,0.0,0.0,0.0,0.0,0.0,0.0,0.0,0.0,0.0,0.0,0.0,0.0,0.0,0.0,0.0,0.0,0.0,0.0,0.0,-1.1342,-1.2393,-1.2448,-1.167,-1.1523,-1.0005,0.0,0.0,0.0,0.0,0.0,0.0,0.0,0.0,0.0,0.0,0.0,0.0,0.0,0.0,0.0,0.0,0.0,0.0,0.0,0.0,0.0,0.0,0.0,0.0,0.0,0.0,0.0,0.0,0.0,0.0,0.0,0.0,0.0,0.0,0.0,0.0,0.0,0.0,0.0,0.0,0.0,0.0,0.0,0.0,0.0,0.0,0.0,0.0,0.0,0.0,0.0,0.0,0.0,0.0,0.0,0.0,0.0,0.0,0.0,0.0,0.0,0.0,0.0,0.0,0.0,0.0,0.0,0.0,0.0,0.0,0.0,0.0,0.0,0.0,0.0,0.0,0.0,0.0,0.0,0.0,0.0,0.0,0.0,0.0,0.0,0.0,0.0,0.0,0.0,0.0,0.0,0.0,0.0,0.0,0.0,0.0,0.0,0.0,0.0,0.0,0.0,0.0,0.0,0.0,0.0,0.0,0.0,0.0,0.0,-0.9439,-1.0299,-1.1358,-1.2514,-1.0781,-0.9874,0.0,0.0,0.0,0.0,0.0,0.0,0.0,0.0,0.0,0.0,0.0,0.0,0.0,0.0,0.0,0.0,0.0,0.0,0.0,0.0,0.0,0.0,0.0,0.0,0.0,0.0,0.0,0.0,0.0,0.0,0.0,0.0,0.0,0.0,0.0,0.0,0.0,0.0,0.0,0.0,0.0,0.0,0.0,0.0,0.0,0.0,0.0,0.0,0.0,0.0,0.0,0.0,0.0,0.0,0.0,0.0,0.0,0.0,0.0,0.0,0.0,0.0,0.0,0.0,0.0,0.0,0.0,0.0,0.0,0.0,0.0,0.0,0.0,0.0,0.0,0.0,0.0,0.0,0.0,0.0,0.0,0.0,0.0,0.0,0.0,0.0,0.0,0.0,0.0,0.0,0.0,0.0,0.0,0.0,0.0,0.0,0.0,0.0,0.0,0.0,0.0,0.0,0.0,0.0,0.0,0.0,0.0,0.0,0.0,-0.989,-1.0753,-1.17,-1.2731,-1.0911,-1.0079,-1.0379,0.0,0.0,0.0,0.0,0.0,0.0,0.0,0.0,0.0,0.0,0.0,0.0,0.0,0.0,0.0,0.0,0.0,0.0,0.0,0.0,0.0,0.0,0.0,0.0,0.0,0.0,0.0,0.0,0.0,0.0,0.0,0.0,0.0,0.0,0.0,0.0,0.0,0.0,0.0,0.0,0.0,0.0,0.0,0.0,0.0,0.0,0.0,0.0,0.0,0.0,0.0,0.0,0.0,0.0,0.0,0.0,0.0,0.0,0.0,0.0,0.0,0.0,0.0,0.0,0.0,0.0,0.0,0.0,0.0,0.0,0.0,0.0,0.0,0.0,0.0,0.0,0.0,0.0,0.0,0.0,0.0,0.0,0.0,0.0,0.0,0.0,0.0,0.0,0.0,0.0,0.0,0.0,0.0,0.0,0.0,0.0,0.0,0.0,0.0,0.0,0.0,0.0,0.0,0.0,0.0,0.0,0.0,0.0,-1.2184,-1.3249,-1.3337,-1.2365,-1.18,-1.0626,0.0,0.0,0.0,0.0,0.0,0.0,0.0,0.0,0.0,0.0,0.0,0.0,0.0,0.0,0.0,0.0,0.0,0.0,0.0,0.0,0.0,0.0,0.0,0.0,0.0,0.0,0.0,0.0,0.0,0.0,0.0,0.0,0.0,0.0,0.0,0.0,0.0,0.0,0.0,0.0,0.0,0.0,0.0,0.0,0.0,0.0,0.0,0.0,0.0,0.0,0.0,0.0,0.0,0.0,0.0,0.0,0.0,0.0,0.0,0.0,0.0,0.0,0.0,0.0,0.0,0.0,0.0,0.0,0.0,0.0,0.0,0.0,0.0,0.0,0.0,0.0,0.0,0.0,0.0,0.0,0.0,0.0,0.0,0.0,0.0,0.0,0.0,0.0,0.0,0.0,0.0,0.0,0.0,0.0,0.0,0.0,0.0,0.0,0.0,0.0,0.0,0.0,0.0,0.0,0.0,0.0,0.0,0.0,0.0,-1.2164,-1.3392,-1.3962,-1.3797,-1.2605,-1.1429,0.0,0.0,0.0,0.0,0.0,0.0,0.0,0.0,0.0,0.0,0.0,0.0,0.0,0.0,0.0,0.0,0.0,0.0,0.0,0.0,0.0,0.0,0.0,0.0,0.0,0.0,0.0,0.0,0.0,0.0,0.0,0.0,0.0,0.0,0.0,0.0,0.0,0.0,0.0,0.0,0.0,0.0,0.0,0.0,0.0,0.0,0.0,0.0,0.0,0.0,0.0,0.0,0.0,0.0,0.0,0.0,0.0,0.0,0.0,0.0,0.0,0.0,0.0,0.0,0.0,0.0,0.0,0.0,0.0,0.0,0.0,0.0,0.0,0.0,0.0,0.0,0.0,0.0,0.0,0.0,0.0,0.0,0.0,0.0,0.0,0.0,0.0,0.0,0.0,0.0,0.0,0.0,0.0,0.0,0.0,0.0,0.0,0.0,0.0,0.0,0.0,0.0,0.0,0.0,0.0,0.0,0.0,0.0,-1.1653,-1.3246,-1.4209,-1.4696,-1.4813,-1.3416,-1.219,0.0,0.0,0.0,0.0,0.0,0.0,0.0,0.0,0.0,0.0,0.0,0.0,0.0,0.0,0.0,0.0,0.0,0.0,0.0,0.0,0.0,0.0,0.0,0.0,0.0,0.0,0.0,0.0,0.0,0.0,0.0,0.0,0.0,0.0,0.0,0.0,0.0,0.0,0.0,0.0,0.0,0.0,0.0,0.0,0.0,0.0,0.0,0.0,0.0,0.0,0.0,0.0,0.0,0.0,0.0,0.0,0.0,0.0,0.0,0.0,0.0,0.0,0.0,0.0,0.0,0.0,0.0,0.0,0.0,0.0,0.0,0.0,0.0,0.0,0.0,0.0,0.0,0.0,0.0,0.0,0.0,0.0,0.0,0.0,0.0,0.0,0.0,0.0,0.0,0.0,0.0,0.0,0.0,0.0,0.0,0.0,0.0,0.0,0.0,0.0,0.0,0.0,0.0,0.0,0.0,0.0,0.0,0.0,-1.2758,-1.4764,-1.5283,-1.5527,-1.5439,-1.4186,-1.2873,0.0,0.0,0.0,0.0,0.0,0.0,0.0,0.0,0.0,0.0,0.0,0.0,0.0,0.0,0.0,0.0,0.0,0.0,0.0,0.0,0.0,0.0,0.0,0.0,0.0,0.0,0.0,0.0,0.0,0.0,0.0,0.0,0.0,0.0,0.0,0.0,0.0,0.0,0.0,0.0,0.0,0.0,0.0,0.0,0.0,0.0,0.0,0.0,0.0,0.0,0.0,0.0,0.0,0.0,0.0,0.0,0.0,0.0,0.0,0.0,0.0,0.0,0.0,0.0,0.0,0.0,0.0,0.0,0.0,0.0,0.0,0.0,0.0,0.0,0.0,0.0,0.0,0.0,0.0,0.0,0.0,0.0,0.0,0.0,0.0,0.0,0.0,0.0,0.0,0.0,0.0,0.0,0.0,0.0,0.0,0.0,0.0,0.0,0.0,0.0,0.0,0.0,0.0,0.0,0.0,0.0,0.0,0.0,-1.3668,-1.4766,-1.5879,-1.6279,-1.5958,-1.4663,-1.3209,0.0,0.0,0.0,0.0,0.0,0.0,0.0,0.0,0.0,0.0,0.0,0.0,0.0,0.0,0.0,0.0,0.0,0.0,0.0,0.0,0.0,0.0,0.0,0.0,0.0,0.0,0.0,0.0,0.0,0.0,0.0,0.0,0.0,0.0,0.0,0.0,0.0,0.0,0.0,0.0,0.0,0.0,0.0,0.0,0.0,0.0,0.0,0.0,-0.9282,0.0,0.0,0.0,0.0,0.0,0.0,0.0,0.0,0.0,0.0,0.0,0.0,0.0,0.0,0.0,0.0,0.0,0.0,0.0,0.0,0.0,0.0,0.0,0.0,0.0,0.0,0.0,0.0,0.0,0.0,0.0,0.0,0.0,0.0,0.0,0.0,0.0,0.0,0.0,0.0,0.0,0.0,0.0,0.0,0.0,0.0,0.0,0.0,0.0,0.0,0.0,0.0,0.0,0.0,0.0,0.0,0.0,0.0,0.0,-1.4289,-1.54,-1.6465,-1.6826,-1.6367,-1.5518,-1.4141,0.0,0.0,0.0,0.0,0.0,0.0,0.0,0.0,0.0,0.0,0.0,0.0,0.0,0.0,0.0,0.0,0.0,0.0,0.0,0.0,0.0,0.0,0.0,0.0,0.0,0.0,0.0,0.0,0.0,0.0,0.0,0.0,0.0,0.0,0.0,0.0,0.0,0.0,0.0,0.0,0.0,0.0,0.0,0.0,0.0,0.0,0.0,0.0,0.0,0.0,0.0,0.0,0.0,0.0,0.0,0.0,0.0,0.0,0.0,0.0,0.0,0.0,0.0,0.0,0.0,0.0,0.0,0.0,0.0,0.0,0.0,0.0,0.0,0.0,0.0,0.0,0.0,0.0,0.0,0.0,0.0,0.0,0.0,0.0,0.0,0.0,0.0,0.0,0.0,0.0,0.0,0.0,0.0,0.0,0.0,0.0,0.0,0.0,0.0,0.0,0.0,0.0,0.0,0.0,0.0,0.0,0.0,-1.2969,-1.4767,-1.6153,-1.7031,-1.7246,-1.6716,-1.6367,-1.5137,0.0,0.0,0.0,0.0,0.0,0.0,0.0,0.0,0.0,0.0,0.0,0.0,0.0,0.0,0.0,0.0,0.0,0.0,0.0,0.0,0.0,0.0,0.0,0.0,0.0,0.0,0.0,0.0,0.0,0.0,0.0,0.0,0.0,0.0,0.0,0.0,0.0,0.0,0.0,-0.8244,-0.9255,0.0,0.0,0.0,0.0,0.0,0.0,0.0,0.0,-0.945,0.0,0.0,0.0,0.0,0.0,0.0,0.0,0.0,0.0,0.0,0.0,0.0,0.0,0.0,0.0,0.0,0.0,0.0,0.0,0.0,0.0,0.0,0.0,0.0,0.0,0.0,0.0,0.0,0.0,0.0,0.0,0.0,0.0,0.0,0.0,0.0,0.0,0.0,0.0,0.0,0.0,0.0,0.0,0.0,0.0,0.0,0.0,0.0,0.0,0.0,0.0,0.0,0.0,0.0,0.0,0.0,-1.2412,-1.3564,-1.4913,-1.656,-1.7461,-1.7496,-1.6736,-1.6629,-1.5439,-1.3023,0.0,0.0,0.0,0.0,0.0,0.0,0.0,0.0,0.0,0.0,0.0,0.0,0.0,0.0,0.0,0.0,0.0,0.0,0.0,0.0,0.0,0.0,0.0,0.0,0.0,0.0,0.0,0.0,0.0,0.0,0.0,0.0,0.0,0.0,0.0,0.0,0.0,0.0,0.0,-1.0915,-1.1744,0.0,0.0,0.0,0.0,0.0,0.0,0.0,0.0,-1.0096,0.0,0.0,0.0,0.0,0.0,0.0,0.0,0.0,0.0,0.0,0.0,0.0,0.0,0.0,0.0,0.0,0.0,0.0,0.0,0.0,0.0,0.0,0.0,0.0,0.0,0.0,0.0,0.0,0.0,0.0,0.0,0.0,0.0,0.0,0.0,0.0,0.0,0.0,0.0,0.0,0.0,0.0,0.0,0.0,0.0,0.0,0.0,0.0,0.0,0.0,0.0,0.0,0.0,0.0,0.0,-1.2162,-1.388,-1.5391,-1.6668,-1.7568,-1.7564,-1.6726,-1.6258,-1.5059,0.0,0.0,0.0,0.0,0.0,0.0,0.0,0.0,0.0,0.0,0.0,0.0,0.0,0.0,0.0,0.0,0.0,0.0,0.0,0.0,0.0,0.0,0.0,0.0,0.0,0.0,0.0,0.0,0.0,0.0,0.0,0.0,0.0,0.0,0.0,0.0,0.0,0.0,0.0,0.0,-1.0991,-1.1507,-1.232,0.0,0.0,0.0,0.0,0.0,0.0,-1.0716,-1.0272,0.0,0.0,0.0,0.0,0.0,0.0,0.0,0.0,0.0,0.0,0.0,0.0,0.0,0.0,0.0,0.0,0.0,0.0,0.0,0.0,0.0,0.0,0.0,0.0,0.0,0.0,0.0,0.0,0.0,0.0,0.0,0.0,0.0,0.0,0.0,0.0,0.0,0.0,0.0,0.0,0.0,0.0,0.0,0.0,0.0,0.0,0.0,0.0,0.0,0.0,0.0,0.0,0.0,0.0,0.0,-1.1712,-1.3975,-1.5634,-1.6677,-1.7545,-1.7646,-1.6843,-1.6094,-1.4844,0.0,0.0,0.0,0.0,0.0,0.0,0.0,0.0,0.0,0.0,0.0,0.0,0.0,0.0,0.0,0.0,0.0,0.0,0.0,0.0,0.0,0.0,0.0,0.0,0.0,0.0,0.0,0.0,0.0,0.0,0.0,0.0,0.0,0.0,0.0,0.0,0.0,0.0,0.0,0.0,0.0,-1.1421,-1.2705,-1.1708,0.0,0.0,0.0,0.0,-1.1763,-1.134,0.0,0.0,0.0,0.0,0.0,0.0,0.0,0.0,0.0,0.0,0.0,0.0,0.0,0.0,0.0,0.0,0.0,0.0,0.0,0.0,0.0,0.0,0.0,0.0,0.0,0.0,0.0,0.0,0.0,0.0,0.0,0.0,0.0,0.0,0.0,0.0,0.0,0.0,0.0,0.0,0.0,0.0,0.0,0.0,0.0,0.0,0.0,0.0,0.0,0.0,0.0,0.0,0.0,0.0,0.0,0.0,-1.2047,-1.3529,-1.505,-1.6638,-1.7568,-1.7783,-1.7314,-1.6804,-1.5586,0.0,0.0,0.0,0.0,0.0,0.0,0.0,0.0,0.0,0.0,0.0,0.0,0.0,0.0,0.0,0.0,0.0,0.0,0.0,0.0,0.0,0.0,0.0,0.0,0.0,0.0,0.0,0.0,0.0,0.0,0.0,0.0,0.0,0.0,0.0,0.0,0.0,0.0,0.0,0.0,0.0,-1.2935,-1.2384,-1.2469,-1.2461,0.0,0.0,0.0,-1.2739,-1.2949,0.0,0.0,0.0,0.0,0.0,0.0,0.0,0.0,0.0,0.0,0.0,0.0,0.0,0.0,0.0,0.0,0.0,0.0,0.0,0.0,0.0,0.0,0.0,0.0,0.0,0.0,0.0,0.0,0.0,0.0,0.0,0.0,0.0,0.0,0.0,0.0,0.0,0.0,0.0,0.0,0.0,0.0,0.0,0.0,0.0,0.0,0.0,0.0,0.0,0.0,0.0,0.0,0.0,0.0,0.0,-0.9806,-1.2539,-1.4092,-1.5596,-1.7051,-1.7695,-1.7812,-1.7425,-1.6475,-1.5176,0.0,0.0,0.0,0.0,0.0,0.0,0.0,0.0,0.0,0.0,0.0,0.0,0.0,0.0,0.0,0.0,0.0,0.0,0.0,0.0,0.0,0.0,0.0,0.0,0.0,0.0,0.0,0.0,0.0,0.0,0.0,0.0,0.0,0.0,0.0,0.0,0.0,0.0,0.0,0.0,0.0,0.0,-1.2905,-1.3115,0.0,0.0,0.0,-1.3568,-1.3568,0.0,0.0,0.0,0.0,0.0,0.0,0.0,0.0,0.0,0.0,0.0,0.0,0.0,0.0,0.0,0.0,0.0,0.0,0.0,0.0,0.0,0.0,0.0,0.0,0.0,0.0,0.0,0.0,0.0,0.0,0.0,0.0,0.0,0.0,0.0,0.0,0.0,0.0,0.0,0.0,0.0,0.0,0.0,0.0,0.0,0.0,0.0,0.0,0.0,0.0,0.0,0.0,0.0,0.0,0.0,0.0,0.0,-1.2998,-1.4717,-1.6162,-1.7376,-1.7793,-1.7861,-1.7529,-1.6346,0.0,0.0,0.0,0.0,0.0,0.0,0.0,0.0,0.0,0.0,0.0,0.0,0.0,0.0,0.0,0.0,0.0,0.0,0.0,0.0,0.0,0.0,0.0,0.0,0.0,0.0,0.0,-0.5879,0.0,0.0,0.0,0.0,0.0,0.0,0.0,0.0,0.0,0.0,0.0,0.0,0.0,0.0,-1.3057,-1.3568,-1.3945,-1.4219,0.0,0.0,-1.4543,-1.4445,-1.4287,-1.3896,0.0,0.0,0.0,0.0,0.0,0.0,0.0,0.0,0.0,0.0,0.0,0.0,0.0,0.0,0.0,0.0,0.0,0.0,0.0,0.0,0.0,0.0,0.0,0.0,0.0,0.0,0.0,0.0,0.0,0.0,0.0,0.0,0.0,0.0,0.0,0.0,0.0,0.0,0.0,0.0,0.0,0.0,0.0,0.0,0.0,0.0,0.0,0.0,0.0,0.0,0.0,0.0,0.0,0.0,0.0,-1.3408,-1.5175,-1.6486,-1.7386,-1.7793,-1.7998,-1.7959,-1.7077,-1.58,0.0,0.0,0.0,0.0,0.0,0.0,0.0,0.0,0.0,0.0,0.0,0.0,0.0,0.0,0.0,0.0,0.0,0.0,0.0,0.0,0.0,0.0,0.0,0.0,0.0,0.0,0.0,0.0,0.0,0.0,0.0,0.0,0.0,0.0,0.0,0.0,0.0,0.0,0.0,0.0,0.0,-1.4482,-1.4104,-1.5127,-1.5782,0.0,0.0,-1.5831,-1.5391,-1.5664,-1.5371,-1.373,0.0,0.0,0.0,0.0,0.0,0.0,0.0,0.0,0.0,0.0,0.0,0.0,0.0,0.0,0.0,0.0,0.0,0.0,0.0,0.0,0.0,0.0,0.0,0.0,0.0,0.0,0.0,0.0,0.0,0.0,0.0,0.0,0.0,0.0,0.0,0.0,0.0,0.0,0.0,0.0,0.0,0.0,0.0,0.0,0.0,0.0,0.0,0.0,0.0,0.0,0.0,0.0,0.0,-1.1309,-1.3831,-1.5322,-1.6652,-1.7725,-1.793,-1.8008,-1.8008,-1.7441,-1.6318,0.0,0.0,0.0,0.0,0.0,0.0,0.0,0.0,0.0,0.0,0.0,0.0,0.0,0.0,0.0,0.0,0.0,0.0,0.0,0.0,0.0,0.0,0.0,0.0,0.0,0.0,0.0,0.0,-0.7617,-0.7964,-0.8121,0.0,0.0,0.0,0.0,0.0,0.0,0.0,0.0,0.0,0.0,-1.4609,-1.5234,-1.5986,0.0,0.0,-1.6816,-1.7021,-1.6297,-1.6133,-1.5684,-1.4482,-1.3857,0.0,0.0,0.0,0.0,0.0,0.0,0.0,0.0,0.0,0.0,0.0,0.0,0.0,0.0,0.0,0.0,0.0,0.0,0.0,0.0,0.0,0.0,0.0,0.0,0.0,0.0,0.0,0.0,0.0,0.0,0.0,0.0,0.0,0.0,0.0,0.0,0.0,0.0,0.0,0.0,0.0,0.0,0.0,0.0,0.0,0.0,0.0,0.0,0.0,0.0,0.0,0.0,-1.1738,-1.427,-1.5605,-1.6885,-1.8139,-1.8076,-1.8076,-1.8174,-1.7666,-1.6631,0.0,0.0,0.0,0.0,0.0,0.0,0.0,0.0,0.0,0.0,0.0,0.0,0.0,0.0,0.0,0.0,0.0,0.0,0.0,0.0,0.0,0.0,0.0,0.0,0.0,0.0,0.0,0.0,-0.8389,-0.863,-0.874,0.0,0.0,0.0,0.0,0.0,0.0,0.0,0.0,0.0,0.0,-1.5254,-1.6349,-1.6836,-1.7126,-1.7252,-1.7672,-1.7803,-1.7174,-1.6846,-1.6349,-1.5351,0.0,0.0,0.0,0.0,0.0,0.0,0.0,0.0,0.0,0.0,0.0,0.0,0.0,0.0,0.0,0.0,0.0,0.0,0.0,0.0,0.0,0.0,0.0,0.0,0.0,0.0,0.0,0.0,0.0,0.0,0.0,0.0,0.0,0.0,0.0,0.0,0.0,0.0,0.0,0.0,0.0,0.0,0.0,0.0,0.0,0.0,0.0,0.0,0.0,0.0,0.0,0.0,0.0,0.0,-1.4736,-1.6064,-1.7311,-1.8529,-1.8232,-1.8188,-1.8559,-1.7822,-1.6768,-1.5439,0.0,0.0,0.0,0.0,0.0,0.0,0.0,0.0,0.0,0.0,0.0,0.0,0.0,0.0,0.0,0.0,0.0,0.0,0.0,0.0,0.0,0.0,0.0,0.0,0.0,0.0,-0.8945,-0.8967,-0.916,0.0,0.0,0.0,0.0,0.0,0.0,0.0,0.0,0.0,0.0,-1.5829,-1.6804,-1.7318,-1.7715,-1.8105,-1.849,-1.8281,-1.8037,-1.8008,-1.7969,-1.7529,0.0,0.0,0.0,0.0,0.0,0.0,0.0,0.0,0.0,0.0,0.0,0.0,0.0,0.0,0.0,0.0,0.0,0.0,0.0,0.0,0.0,0.0,0.0,0.0,0.0,0.0,0.0,-1.2739,-1.1807,0.0,0.0,0.0,0.0,0.0,0.0,0.0,0.0,0.0,0.0,0.0,-1.6103,-1.6765,0.0,0.0,0.0,0.0,0.0,0.0,0.0,0.0,0.0,0.0,0.0,0.0,-1.3203,-1.5166,-1.6746,-1.8057,-1.9023,-1.8936,-1.8926,-1.9053,-1.8516,-1.7471,-1.5919,0.0,0.0,0.0,0.0,0.0,0.0,0.0,0.0,0.0,0.0,0.0,0.0,0.0,0.0,0.0,0.0,0.0,0.0,0.0,0.0,0.0,0.0,0.0,0.0,0.0,-0.9385,0.0,0.0,0.0,0.0,0.0,0.0,0.0,0.0,0.0,0.0,0.0,-1.4629,-1.5878,-1.6709,-1.7422,-1.8125,-1.8305,-1.8539,0.0,0.0,0.0,0.0,0.0,0.0,0.0,0.0,0.0,0.0,0.0,0.0,0.0,0.0,-1.8799,-1.5937,-1.4951,-1.4697,-1.5155,0.0,0.0,0.0,0.0,0.0,0.0,0.0,0.0,0.0,0.0,0.0,0.0,0.0,0.0,0.0,0.0,-1.4121,0.0,0.0,0.0,0.0,0.0,0.0,0.0,0.0,-1.6934,-1.8086,-1.8506,-1.9053,-1.9023,0.0,-1.8359,-1.6502,0.0,0.0,0.0,0.0,0.0,0.0,0.0,0.0,-1.4238,-1.6055,-1.7467,-1.8643,-1.9453,-1.9355,-1.9365,-1.9482,-1.8809,-1.7822,-1.6594,-1.5185,-1.4189,0.0,0.0,0.0,0.0,0.0,0.0,0.0,0.0,0.0,0.0,0.0,0.0,0.0,0.0,0.0,0.0,0.0,0.0,0.0,0.0,0.0,0.0,0.0,-1.041,0.0,0.0,0.0,0.0,0.0,0.0,0.0,0.0,0.0,-1.4463,-1.5273,-1.6387,-1.7633,-1.7959,-1.835,-1.9189,0.0,0.0,0.0,0.0,0.0,0.0,0.0,-1.9543,-1.9707,-1.9343,-1.9033,-1.9268,-2.0254,-2.0967,-2.0654,0.0,0.0,-1.8174,-1.7285,-1.7109,-1.7582,-1.7627,-1.7711,-1.8174,-1.8603,-1.8906,0.0,0.0,0.0,0.0,0.0,0.0,0.0,0.0,-1.7582,-1.7553,0.0,-1.6623,0.0,0.0,0.0,0.0,0.0,0.0,0.0,0.0,-1.9952,-2.1016,-2.0664,-2.0674,-2.0674,-2.0683,-2.1025,-2.0284,-1.849,-1.5352,0.0,0.0,0.0,0.0,0.0,0.0,-1.5245,-1.7353,-1.8227,-1.9056,-1.9883,-1.9541,-1.9521,-1.9853,-1.8721,-1.7871,-1.7422,-1.6594,-1.5547,-1.426,-1.3398,0.0,0.0,0.0,0.0,0.0,0.0,0.0,0.0,0.0,0.0,0.0,0.0,0.0,0.0,0.0,0.0,0.0,0.0,0.0,0.0,-1.1066,0.0,0.0,0.0,0.0,0.0,0.0,0.0,0.0,0.0,0.0,-1.6427,-1.7314,-1.8535,-1.9746,0.0,0.0,0.0,0.0,-2.0264,-2.1073,-2.0898,-2.083,-2.1171,-2.121,-2.1103,-2.0762,0.0,0.0,-2.083,-2.1398,-2.166,-2.086,-2.1406,-2.1924,-2.1846,-2.0703,-2.0049,-2.0449,-1.994,-1.957,-1.9912,-2.0342,-2.0693,-2.0371,0.0,0.0,0.0,0.0,-1.8496,-1.9336,-2.0605,-2.0596,-2.0273,-1.9676,-1.9431,0.0,0.0,0.0,0.0,0.0,0.0,-1.8721,-1.9248,-2.0566,-2.1444,-2.1963,-2.2266,-2.2236,-2.1963,-2.209,-2.1531,-2.043,-1.918,-1.6985,-1.3942,0.0,0.0,0.0,0.0,-1.6716,-1.8188,-1.9075,-1.9814,-2.041,-2.0302,-2.0098,-1.9884,-1.9268,-1.8721,-1.8291,-1.7461,-1.6699,-1.5966,-1.4863,0.0,0.0,0.0,0.0,0.0,0.0,0.0,0.0,0.0,0.0,0.0,0.0,0.0,0.0,0.0,0.0,0.0,0.0,0.0,-1.1136,-1.1154,-1.1592,0.0,0.0,0.0,0.0,0.0,0.0,0.0,0.0,0.0,-1.9707,-1.9785,-2.0008,0.0,0.0,-2.0762,-2.1006,-2.0898,-2.1025,-2.1621,0.0,0.0,0.0,-2.1894,-2.1865,-2.2324,-2.2617,-2.2685,-2.2399,-2.2565,-2.2695,-2.2422,-2.2607,-2.274,-2.2682,-2.2002,-2.1406,-2.1525,-2.1533,-2.1621,-2.1758,-2.2058,-2.235,-2.3223,-2.1123,-2.0371,-2.0352,-2.083,-2.1006,-2.167,-2.2637,-2.2637,-2.2432,-2.2102,-2.1789,-2.0732,-1.915,-1.8887,0.0,0.0,0.0,-2.0283,-2.0977,-2.1629,-2.2223,-2.2721,-2.2974,-2.2964,-2.273,-2.2721,-2.2457,-2.1941,-2.1543,-1.9902,-1.7181,0.0,0.0,-1.619,-1.735,-1.851,-1.9602,-2.0352,-2.0742,-2.082,-2.0693,-2.0478,-2.0166,-1.96,-1.916,-1.8861,-1.8086,-1.7432,-1.697,-1.6084,-1.4893,0.0,0.0,0.0,0.0,0.0,0.0,0.0,0.0,0.0,0.0,0.0,-0.9226,0.0,0.0,0.0,0.0,-1.1074,-1.2158,-1.3032,-1.332,0.0,0.0,0.0,0.0,0.0,0.0,0.0,-1.8916,-2.0146,-2.1133,-2.1619,-2.165,-2.1582,-2.1592,-2.1533,-2.1611,-2.1902,0.0,-2.1894,-2.2314,-2.2598,-2.2721,-2.2764,-2.2549,-2.2559,-2.3013,-2.3101,-2.3101,-2.3101,-2.3101,-2.3101,-2.3101,-2.3101,-2.3149,-2.3315,-2.2969,-2.2578,-2.2422,-2.2535,-2.2711,-2.2721,-2.2916,-2.3101,-2.5596,-2.5165,-2.4,-2.3423,-2.3345,-2.3682,-2.3828,-2.3838,-2.3838,-2.4062,-2.4355,-2.3613,-2.2875,-2.2012,-2.082,0.0,0.0,-2.168,-2.2236,-2.2617,-2.2978,-2.3101,-2.3101,-2.3091,-2.3101,-2.3091,-2.3101,-2.3101,-2.3062,-2.2701,-2.1953,-2.0771,-1.9543,-1.9075,-1.9355,-1.9785,-2.0439,-2.122,-2.167,-2.1689,-2.1249,-2.085,-2.0635,-2.0595,-1.9774,-1.9268,-1.9209,-1.8447,-1.7822,-1.7402,-1.6931,-1.5946,-1.4299,0.0,0.0,0.0,0.0,0.0,0.0,0.0,0.0,0.0,0.0,0.0,0.0,0.0,0.0,0.0,-1.3568,0.0,-1.5459,-1.666,0.0,0.0,0.0,-1.8164,-1.8301,-1.9355,-2.0234,-2.0674,0.0,0.0,0.0,0.0,-2.3091,-2.3101,-2.2428,-2.2266,-2.2994,-2.2783,-2.2695,-2.2984,-2.3081,-2.3091,-2.3052,-2.3042,-2.3052,-2.3169,-2.3149,-2.3188,-2.3237,-2.3247,-2.3218,-2.3247,-2.3198,-2.3379,-2.3779,-2.3799,-2.3711,-2.3266,-2.3208,-2.3218,-2.3237,-2.3247,-2.3276,-2.665,-2.6523,-2.6221,-2.5332,-2.4131,-2.4228,-2.4268,-2.4268,-2.4268,-2.4326,-2.4404,-2.4209,-2.4004,-2.3799,-2.3477,-2.3408,-2.3506,-2.3389,-2.3389,-2.3467,-2.3198,-2.3101,-2.3101,-2.3101,-2.3101,-2.3101,-2.3101,-2.3101,-2.3091,-2.2994,-2.2789,-2.2487,-2.2175,-2.1259,-1.9844,-2.0489,-2.1191,-2.1728,-2.1836,-2.1836,-2.1728,-2.1309,-2.0908,-2.0605,-1.9774,-1.9131,-1.8763,-1.8291,-1.7812,-1.7393,-1.6963,-1.62,-1.5128,-1.3603,0.0,0.0,0.0,0.0,0.0,0.0,0.0,0.0,0.0,-1.3047,-1.0761,0.0,-1.4314,0.0,-1.5332,-1.6307,-1.6855,-1.7187,0.0,0.0,-1.9121,-1.9512,-2.081,-2.123,-2.1582,-2.2002,-2.2598,-2.2945,-2.2945,-2.3033,-2.3101,-2.3091,-2.2925,-2.2867,-2.3071,-2.3023,-2.2974,-2.3071,-2.3101,-2.3101,-2.311,-2.3101,-2.3227,-2.3584,-2.3633,-2.374,-2.4053,-2.4066,-2.4066,-2.4066,-2.4121,-2.417,-2.4248,-2.4268,-2.4238,-2.4131,-2.4066,-2.4066,-2.4111,-2.4102,-2.4066,-2.7305,-2.7285,-2.71,-2.6455,-2.5586,-2.5576,-2.5469,-2.5293,-2.5293,-2.5185,-2.4933,-2.4795,-2.46,-2.4424,-2.4424,-2.4424,-2.4404,-2.418,-2.4072,-2.4053,-2.3828,-2.3603,-2.3437,-2.3428,-2.3286,-2.3101,-2.3101,-2.3101,-2.3101,-2.3101,-2.3101,-2.3101,-2.3101,-2.2496,-2.1385,-2.1795,-2.2207,-2.2432,-2.2266,-2.2168,-2.2148,-2.1553,-2.1016,-2.0605,-1.9922,-1.9268,-1.8617,-1.8373,-1.7974,-1.7455,-1.7148,-1.6631,-1.5772,-1.4629,-1.3952,0.0,0.0,0.0,0.0,0.0,0.0,0.0,0.0,0.0,0.0,0.0,-1.6299,0.0,-1.7467,0.0,-1.9033,-1.9443,-2.0049,-2.0967,-2.1035,-2.1387,-2.2344,-2.2617,-2.29,-2.331,-2.3564,-2.3666,-2.3666,-2.3666,-2.3666,-2.3656,-2.3666,-2.352,-2.3169,-2.3101,-2.3101,-2.3101,-2.3101,-2.3179,-2.3344,-2.3539,-2.3744,-2.4014,-2.4072,-2.416,-2.4375,-2.4424,-2.4424,-2.4424,-2.4424,-2.4492,-2.4658,-2.4707,-2.4756,-2.4961,-2.4953,-2.4806,-2.4502,-2.4424,-2.4424,-2.7796,-2.7715,-2.7334,-2.7178,-2.7178,-2.7178,-2.6914,-2.6475,-2.6465,-2.623,-2.5752,-2.54,-2.499,-2.459,-2.458,-2.459,-2.4534,-2.4531,-2.4502,-2.4492,-2.4443,-2.4228,-2.3867,-2.3877,-2.3643,-2.3188,-2.3179,-2.3149,-2.3101,-2.3101,-2.3101,-2.3101,-2.3101,-2.3101,-2.3101,-2.3101,-2.3101,-2.3091,-2.274,-2.2555,-2.2578,-2.1765,-2.1162,-2.0703,-2.0166,-1.9475,-1.8646,-1.8598,-1.8247,-1.7519,-1.7519,-1.7168,-1.6388,-1.5908,-1.5498,0.0,-1.4756,0.0,0.0,0.0,0.0,0.0,0.0,0.0,0.0,-1.7886,-1.8613,-1.8831,-1.9766,-2.0615,-2.1298,-2.2168,-2.2676,-2.2685,-2.3003,-2.3257,-2.3276,-2.3633,-2.4004,-2.4375,-2.4424,-2.4414,-2.4385,-2.4424,-2.4414,-2.4365,-2.4346,-2.4102,-2.3442,-2.3315,-2.3325,-2.3257,-2.3257,-2.3481,-2.3818,-2.416,-2.4394,-2.4463,-2.4502,-2.4521,-2.4619,-2.4582,-2.4563,-2.4573,-2.4648,-2.4746,-2.5088,-2.5156,-2.5283,-2.5557,-2.5606,-2.5391,-2.4844,-2.4668,-2.458,-2.8174,-2.8164,-2.8086,-2.8057,-2.8047,-2.8057,-2.7607,-2.6904,-2.6904,-2.666,-2.6269,-2.6172,-2.5889,-2.545,-2.544,-2.543,-2.5421,-2.5107,-2.4988,-2.4932,-2.458,-2.4375,-2.4297,-2.4297,-2.4082,-2.3682,-2.3672,-2.3486,-2.3101,-2.3101,-2.3101,-2.3101,-2.3101,-2.3101,-2.3101,0.0,0.0,0.0,-2.3013,-2.2974,-2.2964,-2.2487,-2.1894,-2.1083,-2.0332,0.0,-1.8656,-1.8598,-1.8373,-1.7939,-1.8178,0.0,0.0,0.0,0.0,0.0,0.0,0.0,0.0,0.0,0.0,0.0,-1.8701,-1.8311,-1.8295,-2.0029,-2.0889,-2.0312,-2.1611,-2.2418,-2.2295,-2.3047,-2.3545,-2.3564,-2.3926,-2.417,-2.418,-2.4248,-2.4346,-2.4404,-2.4424,-2.4424,-2.4453,-2.4424,-2.4434,-2.4473,-2.4424,-2.4355,-2.4173,-2.415,-2.416,-2.4134,-2.4121,-2.4144,-2.4287,-2.4394,-2.4619,-2.4834,-2.4951,-2.5078,-2.5361,-2.5401,-2.5421,-2.5401,-2.544,-2.543,-2.5538,-2.5605,-2.5605,-2.5723,-2.5684,-2.5645,-2.5479,-2.543,-2.544,-2.8486,0.0,-2.8301,-2.8301,0.0,-2.8301,-2.8047,-2.7627,-2.7422,-2.71,-2.6699,-2.6699,-2.6455,-2.6055,-2.6064,-2.5937,-2.5684,-2.5498,-2.54,-2.5391,-2.5176,-2.4951,-2.4736,-2.4736,-2.4521,-2.4102,-2.3896,-2.3682,-2.3457,-2.3198,-2.3101,-2.3101,-2.3101,-2.3101,-2.3101,-2.3101,-2.3101,-2.3101,-2.3101,-2.3101,-2.3081,-2.2725,-2.2207,-2.1582,0.0,0.0,0.0,0.0,0.0,0.0,0.0,0.0,0.0,0.0,0.0,-1.9258,-1.9287,-1.9385,-1.96,-1.9805,-2.0293,-2.1123,-2.1191,-2.0928,-2.0293,-2.1445,-2.2197,-2.2187,-2.2959,-2.3457,-2.3467,-2.3838,-2.4102,-2.4102,-2.4297,-2.4492,-2.4697,-2.4736,-2.4824,-2.5029,-2.5021,-2.5021,-2.5021,-2.5021,-2.5021,-2.5021,-2.5011,-2.5059,-2.4972,-2.4678,-2.4424,-2.4434,-2.4629,-2.4736,-2.4766,-2.4961,-2.507,-2.5352,-2.54,-2.5488,-2.5645,-2.5684,-2.5684,-2.5684,-2.5684,-2.5684,-2.5684,-2.5684,-2.5684,-2.5684,-2.5684,-2.5684,-2.5684,-2.5684,-2.5684,-2.8838,-2.8516,-2.8437,-2.8408,-2.8398,-2.832,-2.8301,-2.8262,0.0,0.0,0.0,-2.7129,-2.6894,-2.6504,-2.6494,-2.626,-2.581,-2.5801,-2.5762,-2.5684,-2.5684,-2.5547,-2.5233,-2.5195,-2.4961,-2.4531,-2.418,-2.3975,-2.3887,-2.3467,-2.3208,-2.3198,-2.314,-2.3101,-2.3101,-2.3101,-2.3101,-2.3101,-2.3101,-2.3101,-2.3091,-2.276,-2.2422,-2.2012,-2.1924,-2.1504,-2.0762,-2.1035,-2.0693,-1.9717,-2.0039,-2.0107,-1.9785,-2.0068,-2.0586,-2.1239,-2.1385,-2.158,-2.1973,-2.207,-2.2285,-2.2715,-2.3003,-2.2959,-2.2275,-2.2539,-2.3057,-2.3838,-2.3906,-2.4043,-2.4375,-2.4492,-2.4531,-2.4531,-2.46,-2.4805,-2.5127,-2.5233,-2.5322,-2.5615,-2.5645,-2.5674,-2.5645,-2.5635,-2.5684,-2.5674,-2.5606,-2.5684,-2.5606,-2.5089,-2.4736,-2.4766,-2.501,-2.5185,-2.5234,-2.5439,-2.5664,-2.5635,-2.5664,-2.5684,-2.5684,-2.5684,-2.5684,-2.5684,-2.5684,-2.5684,-2.5684,-2.5684,-2.5723,-2.5791,-2.581,-2.583,-2.5898,-2.5918,-2.5898,-2.9499,-2.9355,-2.8984,-2.8828,-2.8799,-2.8447,-2.8301,-2.8281,-2.8232,-2.7969,-2.763,-2.762,-2.7334,-2.6934,-2.6934,-2.6699,-2.6309,-2.6299,-2.6103,0.0,-2.5684,-2.5654,-2.5596,-2.5644,-2.541,-2.5047,-2.4912,-2.4687,-2.4316,-2.3896,-2.3701,-2.3643,-2.3276,-2.3101,-2.3101,-2.3101,-2.3101,-2.3101,-2.3101,-2.3101,-2.3101,-2.3033,-2.2852,-2.2432,-2.208,-2.166,-2.1132,-2.1171,-2.1112,-2.0947,-2.1377,-2.1582,-2.1523,-2.1562,-2.167,-2.1797,-2.2139,-2.2363,-2.2432,-2.2711,-2.3154,-2.3564,-2.3672,-2.3643,-2.3545,-2.3574,-2.3809,-2.4277,-2.4326,-2.4346,-2.4387,-2.4766,-2.4971,-2.501,-2.5312,-2.5538,-2.5615,-2.5615,-2.5644,-2.5674,-2.5684,-2.5684,-2.5684,-2.5684,-2.5684,-2.5684,-2.5684,-2.5684,-2.5664,-2.5596,-2.5508,-2.5499,-2.5547,-2.5596,-2.5557,-2.5615,-2.5684,-2.5684,-2.5684,-2.5684,-2.5684,-2.5684,-2.5684,-2.5684,-2.5713,-2.5723,-2.5713,-2.5684,-2.5888,-2.6211,-2.6289,-2.6387,-2.666,-2.6697,-2.6572,-2.9785,-2.9616,-2.9355,-2.9268,-2.9238,-2.8818,-2.8506,-2.8301,-2.8301,-2.8184,-2.8018,-2.7998,-2.7773,-2.7383,-2.7363,-2.7139,-2.6719,-2.6494,-2.6279,-2.6074,-2.5801,-2.5684,-2.5684,-2.5684,-2.5625,-2.542,-2.5185,-2.5008,-2.4746,-2.4336,-2.4014,-2.3779,-2.3315,-2.3101,-2.3101,-2.3101,-2.3101,-2.3101,-2.3101,-2.3101,-2.3101,-2.3101,-2.3013,-2.2818,-2.2656,-2.2471,-2.2233,-2.2233,-2.2116,-2.1934,-2.2344,-2.2471,-2.2246,-2.2441,-2.2559,-2.2568,-2.2701,-2.2808,-2.2808,-2.3252,-2.3682,-2.4092,-2.4131,-2.4238,-2.4473,-2.4258,-2.4307,-2.4717,-2.4766,-2.4873,-2.506,-2.5312,-2.5439,-2.543,-2.5577,-2.5674,-2.5684,-2.5684,-2.5684,-2.5684,-2.5684,-2.5684,-2.5684,-2.5684,-2.5684,-2.5684,-2.5684,-2.5684,-2.5684,-2.5684,-2.5684,-2.5684,-2.5684,-2.5684,-2.5684,-2.5684,-2.5684,-2.5684,-2.5684,-2.5684,-2.5684,-2.5693,-2.5693,-2.5703,-2.5918,-2.6074,-2.6094,-2.6289,-2.6494,-2.6631,-2.6728,-2.6846,-2.6973,-2.7012,-2.6865,-3.0166,-2.9873,-2.9812,-2.9658,-2.9597,-2.9209,-2.8818,-2.8447,-2.8437,-2.8379,-2.8301,-2.8301,-2.8105,-2.7875,-2.7865,-2.7568,-2.7158,-2.6826,-2.6621,-2.6494,-2.6084,-2.5889,-2.582,-2.5742,-2.5684,-2.5654,-2.5381,-2.5225,-2.5176,-2.4775,-2.4355,-2.3926,-2.3496,-2.3247,-2.3237,-2.314,-2.3101,-2.3101,-2.3101,-2.3101,-2.3101,-2.3101,-2.3101,-2.3101,-2.3091,-2.3101,-2.3101,-2.3101,-2.2945,-2.2695,-2.2925,-2.2955,-2.2705,-2.2916,-2.3101,-2.3101,-2.3188,-2.3296,-2.3393,-2.374,-2.4111,-2.4521,-2.456,-2.4756,-2.5127,-2.4912,-2.4844,-2.5156,-2.5215,-2.5361,-2.5577,-2.5664,-2.5684,-2.5684,-2.5684,-2.5684,-2.5684,-2.5684,-2.5684,-2.5684,-2.5684,-2.5684,-2.5684,-2.5684,-2.5684,-2.5684,-2.5684,-2.5684,-2.5693,-2.5752,-2.5879,-2.582,-2.5762,-2.5684,-2.5684,-2.585,-2.5889,-2.583,-2.5957,-2.6035,-2.6044,-2.6005,-2.5996,-2.6074,-2.6309,-2.6494,-2.6553,-2.6758,-2.6992,-2.7109,-2.7168,-2.7207,-2.7344,-2.7383,-2.7207,-3.0791,-3.0703,-3.0303,-2.9912,-2.9646,-2.9531,-2.9258,-2.8887,-2.8857,-2.8643,-2.833,-2.8301,-2.8271,-2.8242,-2.8223,-2.7988,-2.7669,-2.7611,-2.7324,-2.6943,-2.6523,-2.6328,-2.6279,-2.5879,-2.5684,-2.5684,-2.5625,-2.5635,-2.5615,-2.5205,-2.4785,-2.4355,-2.3935,-2.373,-2.3691,-2.3305,-2.311,-2.3101,-2.3101,-2.3101,-2.3101,-2.3101,-2.3101,-2.3101,-2.3101,-2.3101,-2.3101,-2.3101,-2.3081,-2.3042,-2.3071,-2.3071,-2.3042,-2.3081,-2.3101,-2.313,-2.3516,-2.3887,-2.4248,-2.4336,-2.4551,-2.4941,-2.5057,-2.5185,-2.5605,-2.5635,-2.5567,-2.5674,-2.5625,-2.5664,-2.5684,-2.5723,-2.5781,-2.5801,-2.5771,-2.5684,-2.5742,-2.5684,-2.5684,-2.5684,-2.5791,-2.5693,-2.5791,-2.5791,-2.5752,-2.582,-2.5849,-2.584,-2.5849,-2.6133,-2.6328,-2.626,-2.5976,-2.5771,-2.5801,-2.6094,-2.6279,-2.6357,-2.6631,-2.6748,-2.6748,-2.6787,-2.6875,-2.666,-2.6885,-2.6953,-2.6953,-2.7021,-2.7207,-2.7519,-2.7627,-2.7705,-2.8047,-2.8105,-2.7851,-3.0898,-3.0879,-3.0684,-3.0351,-2.9971,-2.9941,-2.9697,-2.9297,-2.9023,-2.8818,-2.8643,-2.8398,-2.8301,-2.8301,-2.8301,-2.8193,-2.8018,-2.7783,-2.7578,-2.7363,-2.6963,-2.6641,-2.6377,-2.6221,-2.5996,-2.5703,-2.5684,-2.5684,-2.5606,-2.5283,-2.5018,-2.4775,-2.4365,-2.415,-2.4141,-2.3984,-2.3851,-2.3842,-2.3851,-2.3779,-2.3525,-2.3227,-2.3101,-2.3101,-2.3101,-2.3101,-2.3101,-2.3101,-2.3101,-2.3101,-2.3101,-2.3208,-2.3516,-2.3525,-2.3633,-2.3832,-2.4062,-2.4355,-2.4766,-2.4805,-2.499,-2.543,-2.5469,-2.5547,-2.5684,-2.5967,-2.6123,-2.6123,-2.6123,-2.6123,-2.6143,-2.6338,-2.6494,-2.6444,-2.6494,-2.6434,-2.6494,-2.6494,-2.6494,-2.6494,-2.6494,-2.6475,-2.6444,-2.6444,-2.6444,-2.6444,-2.6434,-2.6445,-2.6494,-2.665,-2.6738,-2.6738,-2.6592,-2.6514,-2.6484,-2.6621,-2.6748,-2.6787,-2.6885,-2.7012,-2.7051,-2.7012,-2.7002,-2.7031,-2.7246,-2.7383,-2.7393,-2.7637,-2.7861,-2.8061,-2.8027,-2.8105,-2.8262,-2.8291,-2.8086,-3.0898,-3.0898,-3.0898,-3.0693,-3.04,-3.0391,-3.0137,-2.9736,-2.9404,-2.9209,-2.9053,-2.8652,-2.8467,-2.8447,-2.835,-2.8301,-2.8252,-2.7969,-2.7842,-2.7783,-2.7383,-2.7031,-2.6738,-2.6475,-2.6221,-2.5937,-2.5742,-2.5684,-2.5654,-2.543,-2.5254,-2.5185,-2.4814,-2.46,-2.459,-2.4492,-2.4424,-2.4414,-2.4424,-2.4268,-2.3955,-2.3598,-2.3335,-2.313,-2.3208,-2.3276,-2.3276,-2.3428,-2.3442,-2.3442,-2.3442,-2.3588,-2.3926,-2.3965,-2.415,-2.4541,-2.459,-2.4785,-2.5225,-2.5254,-2.5391,-2.5654,-2.5781,-2.5859,-2.5937,-2.6318,-2.6543,-2.6572,-2.666,-2.6728,-2.6611,-2.6836,-2.7002,-2.7012,-2.7012,-2.7012,-2.6992,-2.7012,-2.6982,-2.7012,-2.6934,-2.7012,-2.7002,-2.6973,-2.6943,-2.6953,-2.6973,-2.7012,-2.7041,-2.709,-2.7197,-2.7207,-2.7275,-2.7236,-2.71,-2.7129,-2.7158,-2.7236,-2.7295,-2.7441,-2.7363,-2.7373,-2.7373,-2.7637,-2.7754,-2.7803,-2.7822,-2.8105,-2.8262,-2.8281,-2.8281,-2.8271,-2.8291,-2.8301,-2.8301,-3.0898,-3.0898,-3.0898,-3.0879,-3.085,-3.084,-3.0596,-3.0166,-3.0117,-2.9902,-2.9512,-2.9092,-2.8887,-2.8838,-2.8486,-2.8301,-2.8291,-2.8252,-2.8223,-2.8193,-2.7822,-2.7679,-2.7601,-2.6797,-2.6387,-2.6279,-2.5957,-2.5723,-2.5693,-2.5664,-2.5664,-2.5615,-2.5244,-2.5086,-2.5,-2.4678,-2.4443,-2.4521,-2.4521,-2.4434,-2.4394,-2.4365,-2.391,-2.3286,-2.3545,-2.376,-2.3799,-2.4141,-2.429,-2.4346,-2.4307,-2.4346,-2.4385,-2.4394,-2.4609,-2.498,-2.5039,-2.5244,-2.5635,-2.5664,-2.5703,-2.5771,-2.6162,-2.6357,-2.6387,-2.6748,-2.6973,-2.6992,-2.7334,-2.7422,-2.7109,-2.7129,-2.7129,-2.7109,-2.707,-2.708,-2.706,-2.7148,-2.7041,-2.708,-2.7129,-2.7168,-2.708,-2.7012,-2.7109,-2.7119,-2.707,-2.709,-2.7187,-2.7422,-2.7607,-2.7715,-2.7861,-2.7949,-2.7275,-2.7393,-2.7607,-2.7666,-2.7842,-2.8115,-2.8213,-2.8242,-2.8193,-2.8164,-2.8154,-2.8174,-2.8232,-2.8271,-2.8281,-2.8301,-2.8301,-2.8291,-2.8301,-2.8301,-2.8301,-3.0898,-3.0898,-3.0898,-3.0898,-3.0898,-3.0898,-3.0791,-3.0615,-3.0332,-3.0117,-2.9912,-2.9521,-2.918,-2.8906,-2.876,-2.8545,-2.831,-2.8301,-2.8301,-2.8271,-2.8135,-2.7982,-2.7699,-2.7386,-2.6885,-2.6426,-2.623,-2.6006,-2.5703,-2.5684,-2.5684,-2.5674,-2.5538,-2.5498,-2.5469,-2.5294,-2.5216,-2.5216,-2.5216,-2.5127,-2.4853,-2.4834,-2.4551,-2.3968,-2.4056,-2.4189,-2.4199,-2.4336,-2.4424,-2.4424,-2.4424,-2.4551,-2.4824,-2.5098,-2.5274,-2.5478,-2.5488,-2.5693,-2.6074,-2.6162,-2.6279,-2.6533,-2.6689,-2.6787,-2.6865,-2.7168,-2.7432,-2.75,-2.7812,-2.7949,-2.7891,-2.7832,-2.7832,-2.7832,-2.7822,-2.7793,-2.7832,-2.7832,-2.7832,-2.7832,-2.7822,-2.7832,-2.7773,-2.7822,-2.7832,-2.7832,-2.7832,-2.7803,-2.7832,-2.7978,-2.8047,-2.8076,-2.8174,-2.8193,-2.7959,-2.7939,-2.8066,-2.8096,-2.8203,-2.8223,-2.8281,-2.8291,-2.8232,-2.8223,-2.8291,-2.8291,-2.8281,-2.8281,-2.8301,-2.8301,-2.8301,-2.8301,-2.8301,-2.8301,-2.8301,-3.0898,-3.0898,-3.0898,-3.0898,-3.0898,-3.0898,-3.0898,-3.085,-3.0557,-3.042,-3.0342,-2.9971,-2.9609,-2.9307,-2.9043,-2.8779,-2.8496,-2.8359,-2.8301,-2.8301,-2.8301,-2.8144,-2.7943,-2.7777,-2.7425,-2.6816,-2.6494,-2.6221,-2.5957,-2.581,-2.5684,-2.5684,-2.5684,-2.5684,-2.5684,-2.5684,-2.5684,-2.5684,-2.5684,-2.5566,-2.5312,-2.5293,-2.5146,-2.4893,-2.4797,-2.4766,-2.4639,-2.4756,-2.4844,-2.4797,-2.4787,-2.498,-2.5283,-2.5566,-2.5762,-2.5879,-2.5957,-2.6133,-2.6514,-2.6592,-2.6709,-2.6992,-2.7158,-2.7226,-2.7256,-2.7627,-2.7885,-2.7939,-2.8096,-2.8301,-2.8301,-2.8281,-2.8301,-2.8301,-2.8301,-2.8301,-2.8301,-2.8281,-2.8271,-2.8252,-2.8232,-2.8271,-2.8301,-2.8281,-2.8262,-2.8301,-2.8301,-2.8301,-2.8301,-2.8301,-2.8301,-2.8291,-2.8271,-2.8291,-2.8174,-2.8174,-2.8203,-2.8242,-2.8242,-2.8281,-2.8301,-2.8301,-2.8301,-2.8301,-2.8301,-2.8301,-2.8301,-2.8301,-2.8301,-2.8301,-2.8301,-2.8301,-2.8301,-2.8301,-2.8301,-3.0898,-3.0898,-3.0898,-3.0898,-3.0898,-3.0898,-3.0898,-3.0889,-3.0869,-3.082,-3.0742,-3.0391,-3.0156,-2.998,-2.9316,-2.8926,-2.8799,-2.8467,-2.8301,-2.8301,-2.8301,-2.8291,-2.8223,-2.7891,-2.7676,-2.75,-2.6787,-2.6416,-2.6377,-2.6016,-2.5752,-2.5713,-2.5713,-2.5684,-2.5684,-2.5684,-2.5684,-2.5684,-2.5684,-2.5723,-2.5674,-2.5635,-2.5606,-2.5596,-2.5586,-2.5449,-2.5098,-2.5449,-2.5567,-2.5596,-2.5606,-2.5674,-2.5674,-2.5732,-2.5947,-2.6318,-2.6387,-2.6592,-2.6953,-2.7021,-2.7031,-2.7197,-2.7461,-2.7718,-2.7715,-2.7998,-2.8223,-2.8232,-2.8252,-2.8301,-2.8301,-2.8301,-2.8301,-2.8301,-2.8301,-2.8301,-2.8301,-2.8301,-2.8301,-2.8301,-2.8301,-2.8301,-2.8301,-2.8301,-2.8301,-2.8301,-2.8301,-2.8301,-2.8301,-2.8301,-2.8301,-2.8301,-2.8301,-2.8301,-2.8301,-2.8291,-2.8291,-2.8291,-2.8281,-2.8301,-2.8301,-2.8301,-2.8301,-2.8301,-2.8301,-2.8301,-2.8301,-2.8301,-2.8301,-2.8301,-2.8301,-2.8301,-2.8301,-2.8301,-2.8301,-3.0898,-3.0898,-3.0898,-3.0898,-3.0898,-3.0898,-3.0898,-3.0898,-3.0898,-3.0898,-3.0869,-3.0742,-3.0508,-3.0127,-2.96,-2.9199,-2.8896,-2.8496,-2.8301,-2.8301,-2.8301,-2.8301,-2.8271,-2.8164,-2.8002,-2.7669,-2.709,-2.6816,-2.6738,-2.6387,-2.6191,-2.6143,-2.5889,-2.5693,-2.5703,-2.5684,-2.5684,-2.5684,-2.5684,-2.5684,-2.5684,-2.5684,-2.5684,-2.5684,-2.5684,-2.5606,-2.5557,-2.5615,-2.5684,-2.5693,-2.5684,-2.582,-2.6113,-2.6182,-2.6387,-2.6758,-2.6816,-2.7012,-2.7383,-2.7471,-2.7588,-2.7832,-2.8027,-2.8086,-2.8096,-2.8203,-2.8301,-2.8301,-2.8301,-2.8301,-2.8301,-2.8301,-2.8301,-2.8301,-2.8301,-2.8301,-2.8301,-2.8301,-2.8301,-2.8301,-2.8301,-2.8301,-2.8301,-2.8301,-2.8301,-2.8301,-2.8301,-2.8301,-2.8301,-2.8301,-2.8301,-2.8301,-2.8301,-2.8301,-2.8301,-2.8301,-2.8301,-2.8301,-2.8301,-2.8301,-2.8301,-2.8301,-2.8301,-2.8301,-2.8301,-2.8301,-2.8301,-2.8301,-2.8301,-2.8301,-2.8301,-2.8301,-2.8301,-2.8301,-2.8301,-3.0898,-3.0898,-3.0898,-3.0898,-3.0898,-3.0898,-3.0898,-3.0898,-3.0898,-3.0898,-3.0898,-3.0889,-3.0732,-3.04,-2.999,-2.956,-2.9141,-2.8721,-2.8437,-2.831,-2.8301,-2.8301,-2.8301,-2.8301,-2.8184,-2.7871,-2.7461,-2.7256,-2.7226,-2.6836,-2.6621,-2.6543,-2.6191,-2.5986,-2.5908,-2.5762,-2.5684,-2.5684,-2.5684,-2.5684,-2.5684,-2.5684,-2.5684,-2.5703,-2.5889,-2.5977,-2.5996,-2.6074,-2.6093,-2.5996,-2.6113,-2.6357,-2.6602,-2.6631,-2.6807,-2.7158,-2.7285,-2.7441,-2.7832,-2.79,-2.7998,-2.8242,-2.8301,-2.8291,-2.8291,-2.8291,-2.8301,-2.8301,-2.8301,-2.8301,-2.8301,-2.8301,-2.8301,-2.8301,-2.8301,-2.8301,-2.8301,-2.8301,-2.8301,-2.8301,-2.8301,-2.8301,-2.8301,-2.8301,-2.8301,-2.8301,-2.8301,-2.8301,-2.8301,-2.8301,-2.8301,-2.8301,-2.8301,-2.8301,-2.8301,-2.8301,-2.8301,-2.8301,-2.8301,-2.8301,-2.8301,-2.8301,-2.8301,-2.8301,-2.8301,-2.8301,-2.8301,-2.8301,-2.8301,-2.8301,-2.8301,-2.8301,-2.8301,-2.8301,-2.8301,-3.0898,-3.0898,-3.0898,-3.0898,-3.0898,-3.0898,-3.0898,-3.0898,-3.0898,-3.0898,-3.0898,-3.0898,-3.0879,-3.0771,-3.0332,-2.9893,-2.9531,-2.9072,-2.8633,-2.8379,-2.8301,-2.8301,-2.8301,-2.8301,-2.8262,-2.8184,-2.7924,-2.7705,-2.7728,-2.7266,-2.7051,-2.7002,-2.665,-2.6426,-2.6367,-2.6016,-2.5849,-2.5888,-2.584,-2.584,-2.584,-2.582,-2.582,-2.5859,-2.623,-2.6426,-2.6465,-2.6768,-2.6826,-2.6533,-2.6738,-2.6924,-2.7031,-2.7051,-2.7246,-2.7708,-2.7695,-2.7933,-2.8184,-2.8223,-2.8242,-2.8281,-2.8301,-2.8301,-2.8301,-2.8301,-2.8301,-2.8301,-2.8301,-2.8301,-2.8301,-2.8301,-2.8301,-2.8301,-2.8301,-2.8301,-2.8301,-2.8301,-2.8301,-2.8301,-2.8301,-2.8301,-2.8301,-2.8301,-2.8301,-2.8301,-2.8301,-2.8301,-2.8301,-2.8301,-2.8301,-2.8301,-2.8301,-2.8301,-2.8301,-2.8301,-2.8301,-2.8301,-2.8301,-2.8301,-2.8301,-2.8301,-2.8301,-2.8301,-2.8301,-2.8301,-2.8301,-2.8301,-2.8301,-2.8301,-2.8301,-2.8301,-2.8301,-2.8301,-2.8301,-3.0898,-3.0898,-3.0898,-3.0898,-3.0898,-3.0898,-3.0898,-3.0898,-3.0898,-3.0898,-3.0898,-3.0898,-3.0898,-3.084,-3.041,-2.9971,-2.957,-2.9141,-2.8691,-2.835,-2.8301,-2.8301,-2.8301,-2.8301,-2.8301,-2.8271,-2.8164,-2.8125,-2.8096,-2.7695,-2.75,-2.748,-2.707,-2.6855,-2.6807,-2.6709,-2.668,-2.668,-2.666,-2.665,-2.6641,-2.6641,-2.668,-2.6689,-2.6787,-2.6855,-2.6894,-2.7266,-2.7295,-2.6904,-2.6934,-2.7178,-2.7451,-2.749,-2.7676,-2.8008,-2.8115,-2.8154,-2.8252,-2.8301,-2.8301,-2.8301,-2.8301,-2.8301,-2.8301,-2.8301,-2.8301,-2.8301,-2.8301,-2.833,-2.832,-2.832,-2.831,-2.8301,-2.8301,-2.8301,-2.8301,-2.8301,-2.8301,-2.8301,-2.8301,-2.8301,-2.8301,-2.8301,-2.8301,-2.8301,-2.8301,-2.8301,-2.8301,-2.8301,-2.8301,-2.8301,-2.8301,-2.8301,-2.8301,-2.8301,-2.8301,-2.8301,-2.8301,-2.8301,-2.8301,-2.8301,-2.8301,-2.8301,-2.8301,-2.8301,-2.8301,-2.8301,-2.8301,-2.8301,-2.8301,-2.8301,-2.8301,-2.8301,-2.8301,-3.0898,-3.0898,-3.0898,-3.0898,-3.0898,-3.0898,-3.0898,-3.0898,-3.0898,-3.0898,-3.0898,-3.0898,-3.0898,-3.0859,-3.0605,-3.0244,-2.9814,-2.9394,-2.8965,-2.8584,-2.8379,-2.8301,-2.8301,-2.8301,-2.8301,-2.8301,-2.8301,-2.8291,-2.8252,-2.8037,-2.7939,-2.7851,-2.75,-2.7305,-2.7266,-2.709,-2.7021,-2.6992,-2.7012,-2.7012,-2.7012,-2.7012,-2.7002,-2.706,-2.7168,-2.7344,-2.7549,-2.7803,-2.7725,-2.7432,-2.7451,-2.7666,-2.7881,-2.7982,-2.8047,-2.8291,-2.8301,-2.8291,-2.8301,-2.8301,-2.8301,-2.8301,-2.8301,-2.8301,-2.834,-2.8428,-2.8555,-2.8564,-2.8701,-2.8818,-2.8789,-2.8672,-2.8564,-2.8555,-2.8398,-2.831,-2.8301,-2.8301,-2.8301,-2.8301,-2.8301,-2.8301,-2.8301,-2.8301,-2.8301,-2.8301,-2.8301,-2.8301,-2.8301,-2.8301,-2.8301,-2.8301,-2.8301,-2.8301,-2.8301,-2.8301,-2.8301,-2.8301,-2.8301,-2.8301,-2.8301,-2.8301,-2.8301,-2.8301,-2.8301,-2.8301,-2.8301,-2.8301,-2.8301,-2.8301,-2.8301,-2.8301,-2.8301,-2.8301,-2.8301,-3.0898,-3.0898,-3.0898,-3.0898,-3.0898,-3.0898,-3.0898,-3.0898,-3.0898,-3.0898,-3.0898,-3.0898,-3.0898,-3.0898,-3.082,-3.0615,-3.0156,-2.9687,-2.9228,-2.8799,-2.8467,-2.8301,-2.8301,-2.8301,-2.8301,-2.8301,-2.8301,-2.8301,-2.8281,-2.8262,-2.8271,-2.8164,-2.7881,-2.7806,-2.7728,-2.7393,-2.7187,-2.7246,-2.7295,-2.7305,-2.7305,-2.7305,-2.7314,-2.7353,-2.7568,-2.7861,-2.8105,-2.8242,-2.8076,-2.7744,-2.8096,-2.8203,-2.8262,-2.8281,-2.8281,-2.8291,-2.8301,-2.8301,-2.8301,-2.8301,-2.8301,-2.8301,-2.8301,-2.833,-2.8428,-2.8682,-2.8887,-2.8984,-2.9336,-2.9424,-2.9414,-2.917,-2.8965,-2.8848,-2.8555,-2.8389,-2.8301,-2.8301,-2.8301,-2.8301,-2.8301,-2.8301,-2.8301,-2.8301,-2.8301,-2.8301,-2.8301,-2.8301,-2.8301,-2.8301,-2.8301,-2.8301,-2.8301,-2.8301,-2.8301,-2.8301,-2.8301,-2.8301,-2.8301,-2.8301,-2.8301,-2.8301,-2.8301,-2.8301,-2.8301,-2.8301,-2.8301,-2.8301,-2.8301,-2.8301,-2.8301,-2.8301,-2.8301,-2.8301,-2.8301,-3.0898,-3.0898,-3.0898,-3.0898,-3.0898,-3.0898,-3.0898,-3.0898,-3.0898,-3.0898,-3.0898,-3.0898,-3.0898,-3.0898,-3.0879,-3.0635,-3.0215,-2.9766,-2.918,-2.8467,-2.8359,-2.8301,-2.8301,-2.8301,-2.8301,-2.8301,-2.8301,-2.8301,-2.8301,-2.8301,-2.8301,-2.8262,-2.8193,-2.8154,-2.8096,-2.7998,-2.8018,-2.8018,-2.7988,-2.7949,-2.793,-2.7939,-2.7939,-2.7959,-2.8066,-2.8164,-2.8262,-2.8301,-2.8242,-2.8203,-2.8232,-2.8301,-2.8301,-2.8301,-2.8301,-2.8301,-2.8301,-2.8301,-2.8301,-2.8301,-2.8301,-2.8301,-2.834,-2.8428,-2.8769,-2.8877,-2.9121,-2.9336,-2.9577,-2.9668,-2.9658,-2.9521,-2.9287,-2.9043,-2.8838,-2.8623,-2.8379,-2.8301,-2.8301,-2.8301,-2.8301,-2.8301,-2.8301,-2.8301,-2.8301,-2.8301,-2.8301,-2.8301,-2.8301,-2.8301,-2.8301,-2.8301,-2.8301,-2.8301,-2.8301,-2.8301,-2.8301,-2.8301,-2.8301,-2.8301,-2.8301,-2.8301,-2.8301,-2.8301,-2.8301,-2.8301,-2.8301,-2.8301,-2.8301,-2.8301,-2.8301,-2.8301,-2.8301,-2.8301,-2.8301,-3.0898,-3.0898,-3.0898,-3.0898,-3.0898,-3.0898,-3.0898,-3.0898,-3.0898,-3.0898,-3.0898,-3.0898,-3.0898,-3.0898,-3.0889,-3.0732,-3.042,-2.9844,-2.9228,-2.8662,-2.8418,-2.8301,-2.8301,-2.8301,-2.8301,-2.8301,-2.8301,-2.8301,-2.8301,-2.8301,-2.8301,-2.8301,-2.8301,-2.8271,-2.8301,-2.8301,-2.8262,-2.8262,-2.8301,-2.8301,-2.8301,-2.8301,-2.8301,-2.8301,-2.8301,-2.8301,-2.8301,-2.8301,-2.8301,-2.8291,-2.8291,-2.8291,-2.8301,-2.8301,-2.8301,-2.8301,-2.8301,-2.8301,-2.8301,-2.8301,-2.8301,-2.831,-2.8457,-2.8672,-2.9004,-2.9238,-2.96,-2.9853,-3.0059,-3.0205,-3.0176,-2.9941,-2.9687,-2.9307,-2.9043,-2.874,-2.8408,-2.8301,-2.8301,-2.8301,-2.8301,-2.8301,-2.8301,-2.8301,-2.8301,-2.8301,-2.8301,-2.8301,-2.8301,-2.8301,-2.8301,-2.8301,-2.8301,-2.8301,-2.8301,-2.8301,-2.8301,-2.8301,-2.8301,-2.8301,-2.8301,-2.8301,-2.8301,-2.8301,-2.8301,-2.8301,-2.8301,-2.8301,-2.8301,-2.8301,-2.8301,-2.8301,-2.8301,-2.8301,-2.8301,-3.0898,-3.0898,-3.0898,-3.0898,-3.0898,-3.0898,-3.0898,-3.0898,-3.0898,-3.0898,-3.0898,-3.0898,-3.0898,-3.0898,-3.0898,-3.0869,-3.0547,-2.998,-2.9287,-2.8867,-2.8457,-2.832,-2.8301,-2.8301,-2.8301,-2.8301,-2.8301,-2.8301,-2.8301,-2.8301,-2.8301,-2.8301,-2.8301,-2.8301,-2.8301,-2.8301,-2.8301,-2.8301,-2.8301,-2.8301,-2.8301,-2.8301,-2.8301,-2.8301,-2.8301,-2.8548,-2.8698,-2.8794,-2.8698,-2.8601,-2.8601,-2.8495,-2.8291,-2.8301,-2.8301,-2.8301,-2.8301,-2.8301,-2.833,-2.8369,-2.8428,-2.8408,-2.8779,-2.9053,-2.9287,-2.9717,-3.0078,-3.0361,-3.0557,-3.0771,-3.0859,-3.0547,-3.0117,-2.9717,-2.9277,-2.8857,-2.8496,-2.835,-2.8301,-2.8301,-2.8301,-2.8301,-2.8301,-2.8301,-2.8301,-2.8301,-2.8301,-2.8301,-2.8301,-2.8301,-2.8301,-2.8301,-2.8301,-2.8301,-2.8301,-2.8301,-2.8301,-2.8301,-2.8301,-2.8301,-2.8301,-2.8301,-2.8301,-2.8301,-2.8301,-2.8301,-2.8301,-2.8301,-2.8301,-2.8301,-2.8301,-2.8301,-2.8301,-2.8301,-2.8301,-3.0898,-3.0898,-3.0898,-3.0898,-3.0898,-3.0898,-3.0898,-3.0898,-3.0898,-3.0898,-3.0898,-3.0898,-3.0898,-3.0898,-3.0898,-3.0693,-3.0361,-2.9873,-2.9394,-2.8955,-2.8555,-2.835,-2.8301,-2.8301,-2.8301,-2.8301,-2.8301,-2.8301,-2.8301,-2.8301,-2.8301,-2.8301,-2.8301,-2.8301,-2.8301,-2.8301,-2.8301,-2.8301,-2.8301,-2.8301,-2.8301,-2.8451,-2.8495,-2.8548,-2.8644,-2.9154,-2.9807,-2.9964,-2.9964,-2.9964,-2.9974,-2.9313,-2.8548,-2.8301,-2.8301,-2.8301,-2.8301,-2.8301,-2.8379,-2.8623,-2.876,-2.8906,-2.9219,-2.9619,-2.9873,-3.0117,-3.0391,-3.0654,-3.0791,-3.0898,-3.0889,-3.0762,-3.0537,-3.0127,-2.9707,-2.9268,-2.8857,-2.8545,-2.833,-2.8301,-2.8301,-2.8301,-2.8301,-2.8301,-2.8301,-2.8301,-2.8301,-2.8301,-2.8301,-2.8301,-2.8301,-2.8301,-2.8301,-2.8301,-2.8301,-2.8301,-2.8301,-2.8301,-2.8301,-2.8301,-2.8301,-2.8301,-2.8301,-2.8301,-2.8301,-2.8301,-2.8301,-2.8301,-2.8301,-2.8301,-2.8301,-2.8301,-2.8301,-2.8301,-2.8301,-3.0898,-3.0898,-3.0898,-3.0898,-3.0898,-3.0898,-3.0898,-3.0898,-3.0898,-3.0898,-3.0898,-3.0898,-3.0898,-3.0898,-3.0898,-3.0742,-3.0488,-3.0098,-2.9668,-2.9238,-2.8828,-2.8476,-2.833,-2.8301,-2.8301,-2.8301,-2.8301,-2.8301,-2.8301,-2.8301,-2.8301,-2.8301,-2.8301,-2.8301,-2.8301,-2.8301,-2.8344,-2.8344,-2.8344,-2.8291,-2.8398,-2.8847,-2.9303,-2.9398,-2.9964,-3.0721,-3.1122,-3.1327,-3.0979,-3.0473,-3.0276,-2.9565,-2.8751,-2.8398,-2.8354,-2.8354,-2.831,-2.8408,-2.8564,-2.8838,-2.8984,-2.9277,-2.9658,-2.9951,-3.0195,-3.04,-3.0635,-3.0801,-3.0898,-3.0898,-3.0889,-3.0898,-3.0654,-3.0283,-2.998,-2.959,-2.9082,-2.876,-2.8525,-2.835,-2.8301,-2.8301,-2.8301,-2.8301,-2.8301,-2.8301,-2.8301,-2.8301,-2.8301,-2.8301,-2.8301,-2.8301,-2.8301,-2.8301,-2.8301,-2.8301,-2.8301,-2.8301,-2.8301,-2.8301,-2.8301,-2.8301,-2.8301,-2.8301,-2.8301,-2.8301,-2.8301,-2.8301,-2.8301,-2.8301,-2.8301,-2.8301,-2.8301,-2.8301,-2.8301,-3.0898,-3.0898,-3.0898,-3.0898,-3.0947,-3.1218,-3.116,-3.1005,-3.1276,-3.1218,-3.0898,-3.0898,-3.0898,-3.0898,-3.0898,-3.0879,-3.085,-3.0391,-2.999,-2.9639,-2.9121,-2.8711,-2.8506,-2.833,-2.8301,-2.8301,-2.8301,-2.8301,-2.8301,-2.8301,-2.8301,-2.8451,-2.8451,-2.8698,-2.8804,-2.9303,-2.8996,-2.9049,-2.8751,-2.8654,-2.8698,-2.9807,-3.0525,-3.0421,-3.1582,-3.2292,-3.2694,-3.2744,-3.2292,-3.1684,-3.1184,-3.0473,-2.9112,-2.8953,-2.9046,-2.886,-2.8623,-2.8613,-2.8828,-2.9199,-2.9434,-2.9687,-3.0098,-3.0283,-3.041,-3.0654,-3.0869,-3.0898,-3.0898,-3.0898,-3.0898,-3.0898,-3.0723,-3.0478,-3.0234,-2.9932,-2.9336,-2.8916,-2.8633,-2.8476,-2.835,-2.8344,-2.8398,-2.8301,-2.8301,-2.8301,-2.8301,-2.8301,-2.8301,-2.8301,-2.8301,-2.8301,-2.8301,-2.8301,-2.8301,-2.8301,-2.8301,-2.8301,-2.8301,-2.8301,-2.8301,-2.8301,-2.8301,-2.8301,-2.8301,-2.8301,-2.8301,-2.8301,-2.8301,-2.8301,-2.8301,-2.8301,-2.8301,-2.8301,-2.8301,-3.0898,-3.0898,-3.0947,-3.0898,-3.117,-3.2264,-3.2092,-3.1276,-3.2197,-3.2045,-3.1286,-3.1005,-3.1054,-3.1064,-3.1064,-3.1005,-3.0762,-3.0488,-3.0205,-2.9951,-2.9336,-2.8926,-2.876,-2.8447,-2.832,-2.8301,-2.8301,-2.8301,-2.8504,-2.8504,-2.8398,-2.8591,-2.9555,-3.0057,-3.0162,-3.0813,-3.1836,-3.1531,-3.0566,-2.946,-2.9006,-3.0762,-3.1276,-3.1173,-3.1836,-3.3093,-3.4019,-3.4129,-3.3871,-3.3723,-3.3723,-3.2555,-3.0824,-3.1265,-3.1277,-3.0631,-2.9729,-2.8867,-2.9256,-2.9597,-2.9961,-3.0166,-3.0518,-3.0752,-3.1052,-3.1225,-3.1392,-3.0898,-3.1005,-3.1276,-3.1383,-3.0995,-3.0898,-3.0741,-3.0564,-3.0248,-2.9738,-2.9235,-2.8941,-2.9203,-2.9265,-2.8781,-2.8548,-2.8398,-2.8301,-2.8301,-2.8301,-2.8301,-2.8301,-2.8301,-2.8301,-2.8301,-2.8301,-2.8301,-2.8301,-2.8301,-2.8301,-2.8301,-2.8301,-2.8301,-2.8301,-2.8301,-2.8301,-2.8301,-2.8301,-2.8301,-2.8301,-2.8301,-2.8301,-2.8301,-2.8301,-2.8301,-2.8301,-2.8301,-2.8301,-3.2436,-3.0995,-3.1825,-3.215,-3.2207,-3.2851,-3.3247,-3.3145,-3.2275,-3.2493,-3.3031,-3.2426,-3.215,-3.1988,-3.215,-3.1652,-3.1073,-3.077,-3.042,-3.0317,-2.9757,-2.926,-2.8848,-2.8516,-2.8301,-2.8495,-2.8398,-2.89,-2.9112,-2.9471,-2.946,-2.9597,-3.0721,-3.1429,-3.1469,-3.1977,-3.1673,-3.1173,-3.0514,-3.0016,-3.0276,-3.1847,-3.3204,-3.2644,-3.3848,-3.4751,-3.5271,-3.5523,-3.5078,-3.4678,-3.4385,-3.3514,-3.2028,-3.196,-3.2148,-3.2312,-3.1155,-3.0656,-3.0842,-3.0499,-3.0455,-3.0605,-3.0878,-3.1237,-3.1998,-3.2825,-3.3268,-3.3427,-3.2597,-3.254,-3.2597,-3.1777,-3.171,-3.1562,-3.1421,-3.1317,-3.0858,-2.982,-2.95,-2.984,-3.0035,-2.9426,-2.8794,-2.8495,-2.8344,-2.8301,-2.8301,-2.8301,-2.8301,-2.8301,-2.8301,-2.8301,-2.8301,-2.8301,-2.8301,-2.8301,-2.8301,-2.8301,-2.8301,-2.8301,-2.8301,-2.8301,-2.8301,-2.8301,-2.8301,-2.8301,-2.8301,-2.8301,-2.8301,-2.8301,-2.8301,-2.8301,-2.8301,-2.8301,-2.8301,-3.3979,-3.216,-3.3191,-3.3631,-3.3687,-3.4013,-3.4337,-3.4403,-3.3417,-3.3258,-3.3586,-3.2918,-3.2473,-3.269,-3.269,-3.2416,-3.1546,-3.1825,-3.1785,-3.14,-3.0995,-3.0789,-3.0542,-2.9952,-2.9635,-2.926,-2.966,-3.0068,-3.068,-3.1133,-3.1286,-3.0916,-3.2191,-3.2755,-3.2944,-3.3231,-3.3132,-3.1938,-3.218,-3.1724,-3.148,-3.3514,-3.4337,-3.4836,-3.5571,-3.6417,-3.6417,-3.6358,-3.5715,-3.5271,-3.503,-3.4362,-3.3143,-3.3577,-3.3889,-3.3977,-3.3287,-3.3333,-3.2873,-3.2122,-3.1122,-3.1311,-3.194,-3.2815,-3.3529,-3.4792,-3.5288,-3.4914,-3.4292,-3.4348,-3.4526,-3.3155,-3.3145,-3.3088,-3.2886,-3.2819,-3.2527,-3.1584,-3.0629,-3.0403,-3.0401,-2.9806,-2.9197,-2.8654,-2.8398,-2.8291,-2.8301,-2.8301,-2.8301,-2.8301,-2.8301,-2.8301,-2.8301,-2.8301,-2.8301,-2.8301,-2.8301,-2.8301,-2.8301,-2.8301,-2.8301,-2.8301,-2.8301,-2.8301,-2.8301,-2.8301,-2.8301,-2.8301,-2.8301,-2.8301,-2.8301,-2.8301,-2.8301,-2.8301,-2.8301,-3.5189,-3.5013,-3.5123,-3.5178,-3.5245,-3.6649,-3.5661,-3.4236,-3.5879,-3.4448,-3.2207,-3.145,-3.1825,-3.172,-3.2861,-3.3191,-3.2918,-3.4348,-3.4393,-3.4384,-3.4403,-3.3495,-3.2906,-3.2405,-3.2215,-3.1783,-3.1451,-3.1633,-3.2392,-3.3066,-3.2905,-3.2543,-3.37,-3.4129,-3.4422,-3.4703,-3.4557,-3.3859,-3.4252,-3.3836,-3.3441,-3.4399,-3.5523,-3.4969,-3.5667,-3.6417,-3.6417,-3.6417,-3.631,-3.5966,-3.5966,-3.5571,-3.4665,-3.5405,-3.5841,-3.5681,-3.5572,-3.5746,-3.5495,-3.3471,-3.2078,-3.2851,-3.4013,-3.4792,-3.5123,-3.5233,-3.5398,-3.5727,-3.5497,-3.5453,-3.5453,-3.5068,-3.4581,-3.4736,-3.4548,-3.4373,-3.4076,-3.3418,-3.2447,-3.1466,-3.08,-3.036,-2.9702,-2.9154,-2.8548,-2.8398,-2.8291,-2.8301,-2.8301,-2.8301,-2.8301,-2.8301,-2.8301,-2.8301,-2.8301,-2.8301,-2.8301,-2.8301,-2.8301,-2.8301,-2.8301,-2.8301,-2.8301,-2.8301,-2.8301,-2.8301,-2.8301,-2.8301,-2.8301,-2.8301,-2.8301,-2.8301,-2.8301,-2.8301,-2.8301,-3.7477,-3.6757,-3.7595,-3.7489,-3.6703,-3.724,-3.7358,-3.6823,-3.5497,-3.457,-3.3586,-3.4459,-3.4459,-3.3968,-3.3912,-3.3912,-3.3406,-3.4626,-3.5233,-3.512,-3.4773,-3.4513,-3.4087,-3.3749,-3.3032,-3.2898,-3.2634,-3.2894,-3.3662,-3.4276,-3.4763,-3.4896,-3.5259,-3.5511,-3.581,-3.5415,-3.4933,-3.4824,-3.4872,-3.441,-3.4508,-3.5198,-3.6156,-3.5858,-3.5918,-3.6417,-3.6417,-3.6417,-3.6417,-3.6417,-3.643,-3.6063,-3.5779,-3.678,-3.7145,-3.7093,-3.7046,-3.7163,-3.724,-3.5178,-3.4024,-3.447,-3.5715,-3.6649,-3.6715,-3.737,-3.7873,-3.782,-3.7091,-3.6876,-3.782,-3.6511,-3.5354,-3.5999,-3.6213,-3.6056,-3.5657,-3.5095,-3.4334,-3.3384,-3.2115,-3.1206,-3.0411,-2.966,-2.9006,-2.8495,-2.8398,-2.8301,-2.8301,-2.8301,-2.8301,-2.8301,-2.8301,-2.8301,-2.8301,-2.8301,-2.8301,-2.8301,-2.8301,-2.8301,-2.8301,-2.8301,-2.8301,-2.8301,-2.8301,-2.8301,-2.8301,-2.8301,-2.8301,-2.8301,-2.8301,-2.8301,-2.8301,-2.8301,-2.8301,-3.9089,-3.8295,-3.9245,-3.9129,-3.819,-3.8125,-3.8465,-3.853,-3.6433,-3.5277,-3.5999,-3.6649,-3.6325,-3.5563,-3.5781,-3.5551,-3.5222,-3.6054,-3.6553,-3.6706,-3.656,-3.6044,-3.5649,-3.524,-3.496,-3.4322,-3.3942,-3.424,-3.4969,-3.4981,-3.5415,-3.5966,-3.6417,-3.631,-3.6108,-3.5571,-3.4981,-3.4969,-3.4969,-3.4969,-3.5174,-3.581,-3.6405,-3.631,-3.637,-3.6417,-3.6417,-3.6417,-3.6417,-3.648,-3.6556,-3.6669,-3.686,-3.7297,-3.7826,-3.7929,-3.797,-3.775,-3.7635,-3.6876,-3.5999,-3.6108,-3.7317,-3.7967,-3.8465,-3.9129,-3.9193,-3.931,-3.8635,-3.8582,-3.9633,-3.8043,-3.7275,-3.7926,-3.7713,-3.7541,-3.7324,-3.6845,-3.6129,-3.5282,-3.3691,-3.1774,-3.1224,-3.0369,-2.9313,-2.8698,-2.8344,-2.8301,-2.8301,-2.8301,-2.8301,-2.8301,-2.8301,-2.8301,-2.8301,-2.8301,-2.8301,-2.8301,-2.8301,-2.8301,-2.8301,-2.8301,-2.8301,-2.8301,-2.8301,-2.8301,-2.8301,-2.8301,-2.8301,-2.8301,-2.8301,-2.8301,-2.8301,-2.8301,-2.8301,-3.9645,-3.9697,-3.9697,-3.9633,-3.9478,-3.9645,-3.8921,-3.8243,-3.8635,-3.8307,-3.7133,-3.6271,-3.5727,-3.5781,-3.6703,-3.6865,-3.7133,-3.836,-3.9089,-3.8871,-3.8641,-3.8873,-3.8362,-3.7679,-3.6713,-3.6943,-3.6168,-3.5702,-3.6156,-3.6013,-3.6263,-3.631,-3.6417,-3.6417,-3.6405,-3.6358,-3.631,-3.631,-3.6203,-3.6156,-3.6168,-3.631,-3.6358,-3.6417,-3.6417,-3.6417,-3.6417,-3.6417,-3.6455,-3.6606,-3.686,-3.7036,-3.7249,-3.8152,-3.8605,-3.8718,-3.9193,-3.939,-3.9478,-3.819,-3.7583,-3.753,-3.8635,-3.9193,-3.9478,-3.9697,-3.9697,-3.9645,-3.9413,-3.9413,-3.9633,-3.953,-3.9297,-3.9141,-3.8868,-3.8755,-3.8487,-3.7908,-3.7063,-3.5968,-3.3989,-3.2241,-3.1774,-3.1071,-2.9817,-2.9006,-2.8504,-2.8301,-2.8301,-2.8301,-2.8301,-2.8301,-2.8301,-2.8301,-2.8301,-2.8301,-2.8301,-2.8301,-2.8301,-2.8301,-2.8301,-2.8301,-2.8301,-2.8301,-2.8301,-2.8301,-2.8301,-2.8301,-2.8301,-2.8301,-2.8301,-2.8301,-2.8301,-2.8301,-2.8301,-3.9697,-3.9697,-3.9697,-3.9697,-3.9697,-3.9697,-3.9349,-3.9077,-3.9362,-3.8856,-3.7636,-3.6865,-3.6757,-3.6984,-3.7198,-3.7636,-3.7849,-3.8973,-3.9697,-3.9697,-3.9697,-3.9622,-3.917,-3.8479,-3.7902,-3.7525,-3.6935,-3.6417,-3.6358,-3.6417,-3.6417,-3.6417,-3.6417,-3.6417,-3.6417,-3.6417,-3.6417,-3.6417,-3.637,-3.637,-3.6417,-3.6417,-3.6417,-3.6417,-3.6417,-3.6417,-3.6417,-3.6417,-3.6531,-3.6795,-3.7111,-3.7362,-3.7713,-3.8542,-3.8932,-3.9057,-3.9396,-3.9685,-3.9645,-3.9077,-3.9025,-3.9141,-3.931,-3.9697,-3.9697,-3.9697,-3.9697,-3.9697,-3.9697,-3.9697,-3.9645,-3.9645,-3.953,-3.953,-3.9426,-3.9426,-3.9166,-3.8366,-3.7444,-3.6176,-3.4439,-3.3065,-3.228,-3.1582,-3.0369,-2.9355,-2.8804,-2.8398,-2.8301,-2.8301,-2.8301,-2.8301,-2.8301,-2.8301,-2.8301,-2.8301,-2.8301,-2.8301,-2.8301,-2.8301,-2.8301,-2.8301,-2.8301,-2.8301,-2.8301,-2.8301,-2.8301,-2.8301,-2.8301,-2.8301,-2.8301,-2.8301,-2.8301,-2.8301,-2.8301,-3.9697,-3.9697,-3.9697,-3.9697,-3.9697,-3.9697,-3.9697,-3.9697,-3.9697,-3.9141,-3.8413,-3.8243,-3.8243,-3.8243,-3.8243,-3.8243,-3.8348,-3.9193,-3.9697,-3.9697,-3.9697,-3.9672,-3.932,-3.8617,-3.8065,-3.7701,-3.701,-3.6417,-3.6417,-3.6417,-3.6417,-3.6417,-3.6417,-3.6417,-3.6417,-3.6417,-3.6417,-3.6417,-3.6417,-3.6417,-3.6417,-3.6417,-3.6417,-3.6417,-3.6417,-3.6417,-3.6417,-3.6468,-3.6568,-3.6933,-3.7262,-3.7588,-3.8103,-3.8655,-3.9069,-3.9308,-3.9433,-3.9685,-3.9697,-3.9645,-3.953,-3.9581,-3.9697,-3.9697,-3.9697,-3.9697,-3.9697,-3.9697,-3.9697,-3.9697,-3.9697,-3.9697,-3.9697,-3.9697,-3.9697,-3.9697,-3.9421,-3.8567,-3.7853,-3.6514,-3.5224,-3.3918,-3.2733,-3.1876,-3.0927,-3.0016,-2.9154,-2.8698,-2.8301,-2.8301,-2.8301,-2.8301,-2.8301,-2.8301,-2.8301,-2.8301,-2.8301,-2.8301,-2.8301,-2.8301,-2.8301,-2.8301,-2.8301,-2.8301,-2.8301,-2.8301,-2.8301,-2.8301,-2.8301,-2.8301,-2.8301,-2.8301,-2.8301,-2.8301,-2.8301,-3.9697,-3.9697,-3.9697,-3.9697,-3.9697,-3.9697,-3.9697,-3.9697,-3.9697,-3.9633,-3.9633,-3.9517,-3.9413,-3.9581,-3.9594,-3.953,-3.9465,-3.9633,-3.9697,-3.9697,-3.9697,-3.9697,-3.932,-3.858,-3.8115,-3.7638,-3.7023,-3.6417,-3.6417,-3.6417,-3.6417,-3.6417,-3.6417,-3.6417,-3.6417,-3.6417,-3.6417,-3.6417,-3.6417,-3.6417,-3.6417,-3.6417,-3.6417,-3.6417,-3.6417,-3.6417,-3.6417,-3.6443,-3.648,-3.6797,-3.7349,-3.7789,-3.8366,-3.9082,-3.9459,-3.9685,-3.9672,-3.9685,-3.9697,-3.9697,-3.9697,-3.9697,-3.9697,-3.9697,-3.9697,-3.9697,-3.9697,-3.9697,-3.9697,-3.9697,-3.9697,-3.9697,-3.9697,-3.9697,-3.9697,-3.9584,-3.9396,-3.8818,-3.814,-3.6998,-3.5673,-3.4457,-3.3514,-3.2593,-3.1531,-3.068,-2.966,-2.8654,-2.8301,-2.8301,-2.8301,-2.8301,-2.8301,-2.8301,-2.8301,-2.8301,-2.8301,-2.8301,-2.8301,-2.8301,-2.8301,-2.8301,-2.8301,-2.8301,-2.8301,-2.8301,-2.8301,-2.8301,-2.8301,-2.8301,-2.8301,-2.8301,-2.8301,-2.8301,-2.8301,-3.9697,-3.9697,-3.9697,-3.9697,-3.9697,-3.9697,-3.9697,-3.9697,-3.9697,-3.9697,-3.9697,-3.9697,-3.9697,-3.9697,-3.9697,-3.9697,-3.9697,-3.9697,-3.9697,-3.9697,-3.9697,-3.9697,-3.9295,-3.8617,-3.814,-3.7638,-3.7084,-3.6417,-3.6417,-3.6417,-3.6417,-3.6417,-3.6417,-3.6417,-3.6417,-3.6417,-3.6417,-3.6417,-3.6417,-3.6417,-3.6417,-3.6417,-3.6417,-3.6417,-3.6417,-3.6417,-3.6417,-3.6417,-3.6531,-3.7033,-3.7224,-3.7651,-3.868,-3.8969,-3.9233,-3.9659,-3.9697,-3.9697,-3.9697,-3.9697,-3.9697,-3.9697,-3.9697,-3.9697,-3.9697,-3.9697,-3.9697,-3.9697,-3.9697,-3.9697,-3.9697,-3.9697,-3.9697,-3.9697,-3.9622,-3.9408,-3.9145,-3.8542,-3.7889,-3.7141,-3.5817,-3.5501,-3.4508,-3.3143,-3.214,-3.1235,-3.0214,-2.9059,-2.8301,-2.8301,-2.8301,-2.8301,-2.8301,-2.8301,-2.8301,-2.8301,-2.8301,-2.8301,-2.8301,-2.8301,-2.8301,-2.8301,-2.8301,-2.8301,-2.8301,-2.8301,-2.8301,-2.8301,-2.8301,-2.8301,-2.8301,-2.8301,-2.8301,-2.8301,-2.8301,-3.9697,-3.9697,-3.9697,-3.9697,-3.9697,-3.9697,-3.9697,-3.9697,-3.9697,-3.9697,-3.9697,-3.9697,-3.9697,-3.9697,-3.9697,-3.9697,-3.9697,-3.9697,-3.9697,-3.9697,-3.9697,-3.9697,-3.9308,-3.863,-3.8115,-3.7613,-3.7048,-3.6417,-3.6417,-3.6417,-3.6417,-3.6417,-3.6417,-3.6417,-3.6417,-3.6417,-3.6417,-3.6417,-3.6417,-3.6417,-3.6417,-3.6417,-3.6417,-3.6417,-3.6417,-3.6417,-3.6417,-3.6417,-3.6619,-3.6945,-3.7021,-3.7575,-3.853,-3.8881,-3.9258,-3.9685,-3.9697,-3.9697,-3.9697,-3.9697,-3.9697,-3.9697,-3.9697,-3.9697,-3.9697,-3.9697,-3.9697,-3.9697,-3.9697,-3.9697,-3.9697,-3.9697,-3.9697,-3.9697,-3.9459,-3.9271,-3.8693,-3.8115,-3.7525,-3.7008,-3.6574,-3.6386,-3.5463,-3.4007,-3.2694,-3.1785,-3.0669,-2.9355,-2.8601,-2.8301,-2.8301,-2.8301,-2.8301,-2.8301,-2.8301,-2.8301,-2.8301,-2.8301,-2.8301,-2.8301,-2.8301,-2.8301,-2.8301,-2.8301,-2.8301,-2.8301,-2.8301,-2.8301,-2.8301,-2.8301,-2.8301,-2.8301,-2.8301,-2.8301,-2.8301,-3.9647,-3.9697,-3.9697,-3.9697,-3.9697,-3.9697,-3.9697,-3.9697,-3.9697,-3.9697,-3.9697,-3.9697,-3.9697,-3.9697,-3.9697,-3.9697,-3.9697,-3.9697,-3.9697,-3.9697,-3.9697,-3.9697,-3.9371,-3.8605,-3.809,-3.7638,-3.7061,-3.6417,-3.6417,-3.6417,-3.6417,-3.6417,-3.6417,-3.6417,-3.6417,-3.6417,-3.6417,-3.6417,-3.6417,-3.6417,-3.6417,-3.6417,-3.6417,-3.6417,-3.6417,-3.6417,-3.6417,-3.6417,-3.6417,-3.6593,-3.687,-3.7349,-3.8153,-3.8906,-3.9396,-3.9597,-3.9572,-3.9622,-3.9647,-3.9697,-3.9697,-3.9697,-3.9697,-3.9697,-3.9697,-3.9697,-3.9697,-3.9697,-3.9697,-3.9697,-3.9697,-3.9672,-3.9659,-3.9471,-3.9195,-3.8844,-3.8203,-3.7626,-3.7096,-3.6656,-3.6568,-3.637,-3.6061,-3.4605,-3.3613,-3.2543,-3.1429,-3.012,-2.9555,-2.9102,-2.8601,-2.8548,-2.8344,-2.8344,-2.8301,-2.8301,-2.8301,-2.8301,-2.8301,-2.8301,-2.8301,-2.8301,-2.8301,-2.8301,-2.8301,-2.8301,-2.8301,-2.8301,-2.8301,-2.8301,-2.8301,-2.8301,-2.8301,-2.8301,-2.8301,-3.9308,-3.9697,-3.9697,-3.9697,-3.9697,-3.9697,-3.9697,-3.9697,-3.9697,-3.9697,-3.9697,-3.9697,-3.9697,-3.9697,-3.9697,-3.9697,-3.9697,-3.9697,-3.9697,-3.9697,-3.9697,-3.9697,-3.9471,-3.858,-3.809,-3.7651,-3.7061,-3.6417,-3.6417,-3.6417,-3.6417,-3.6417,-3.6417,-3.6417,-3.6417,-3.6417,-3.6417,-3.6417,-3.6417,-3.6417,-3.6417,-3.6417,-3.6417,-3.6417,-3.6417,-3.6417,-3.6417,-3.6417,-3.6417,-3.648,-3.6518,-3.7109,-3.7952,-3.868,-3.9245,-3.9521,-3.9258,-3.9283,-3.9421,-3.9496,-3.9484,-3.9584,-3.9609,-3.9672,-3.9697,-3.9697,-3.9672,-3.9659,-3.9697,-3.9697,-3.9634,-3.9609,-3.9534,-3.9233,-3.8856,-3.8278,-3.7713,-3.7197,-3.6606,-3.6505,-3.643,-3.6263,-3.6108,-3.5511,-3.4532,-3.3563,-3.2593,-3.1673,-3.1429,-3.0968,-2.9555,-2.9197,-2.8504,-2.8398,-2.8451,-2.8301,-2.8301,-2.8301,-2.8301,-2.8301,-2.8301,-2.8301,-2.8301,-2.8301,-2.8301,-2.8301,-2.8301,-2.8301,-2.8301,-2.8301,-2.8301,-2.8301,-2.8301,-2.8301,-2.8301,-3.8806,-3.9333,-3.9597,-3.9697,-3.9697,-3.9697,-3.9697,-3.9697,-3.9697,-3.9697,-3.9697,-3.9697,-3.9697,-3.9697,-3.9697,-3.9697,-3.9697,-3.9697,-3.9697,-3.9697,-3.9697,-3.9697,-3.9233,-3.8555,-3.8178,-3.7713,-3.6945,-3.6417,-3.6417,-3.6417,-3.6417,-3.6417,-3.6417,-3.6417,-3.6417,-3.6417,-3.6417,-3.6417,-3.6417,-3.6417,-3.6417,-3.6417,-3.6417,-3.6417,-3.6417,-3.6417,-3.6417,-3.6417,-3.6417,-3.6531,-3.6681,-3.6971,-3.7626,-3.8153,-3.858,-3.873,-3.868,-3.863,-3.8881,-3.9019,-3.9032,-3.9044,-3.8981,-3.8831,-3.8806,-3.8793,-3.9019,-3.9082,-3.9597,-3.9685,-3.932,-3.9195,-3.9182,-3.8994,-3.8278,-3.7563,-3.7136,-3.6757,-3.648,-3.6455,-3.6417,-3.637,-3.6263,-3.6156,-3.5223,-3.4288,-3.3365,-3.2783,-3.2682,-3.2833,-3.1367,-3.0162,-2.966,-2.926,-2.9355,-2.89,-2.8301,-2.8301,-2.8301,-2.8301,-2.8301,-2.8301,-2.8301,-2.8301,-2.8301,-2.8301,-2.8301,-2.8301,-2.8301,-2.8301,-2.8301,-2.8301,-2.8301,-2.8301,-2.8301,-3.8291,-3.8957,-3.9383,-3.9634,-3.9697,-3.9697,-3.9697,-3.9697,-3.9697,-3.9697,-3.9697,-3.9697,-3.9697,-3.9697,-3.9697,-3.9697,-3.9697,-3.9697,-3.9697,-3.9697,-3.9697,-3.9559,-3.9145,-3.8555,-3.8015,-3.745,-3.6795,-3.6518,-3.6417,-3.6417,-3.6417,-3.6417,-3.6417,-3.6417,-3.6417,-3.6417,-3.6417,-3.6417,-3.6417,-3.6417,-3.6417,-3.6417,-3.6417,-3.6417,-3.6417,-3.6417,-3.6417,-3.6417,-3.6417,-3.6606,-3.6857,-3.7086,-3.7287,-3.7688,-3.7952,-3.8128,-3.804,-3.8027,-3.8128,-3.8228,-3.8178,-3.809,-3.799,-3.799,-3.8027,-3.8153,-3.8379,-3.858,-3.9107,-3.927,-3.8906,-3.8743,-3.873,-3.8479,-3.7651,-3.701,-3.6719,-3.643,-3.6417,-3.6417,-3.6417,-3.6417,-3.6417,-3.6358,-3.587,-3.4933,-3.4325,-3.3761,-3.3491,-3.3836,-3.338,-3.218,-3.1327,-3.0927,-3.011,-2.926,-2.8291,-2.8301,-2.8301,-2.8301,-2.8301,-2.8301,-2.8301,-2.8301,-2.8301,-2.8344,-2.8291,-2.8301,-2.8301,-2.8344,-2.8301,-2.8301,-2.8301,-2.8301,-2.8301,-3.7939,-3.8932,-3.8994,-3.927,-3.9647,-3.9697,-3.9697,-3.9697,-3.9697,-3.9697,-3.9697,-3.9697,-3.9697,-3.9697,-3.9697,-3.9697,-3.9697,-3.9697,-3.9697,-3.9697,-3.9697,-3.9421,-3.8931,-3.8278,-3.75,-3.6983,-3.6581,-3.648,-3.6417,-3.6417,-3.6417,-3.6417,-3.6417,-3.6417,-3.6417,-3.6417,-3.6417,-3.6417,-3.6417,-3.6417,-3.6417,-3.6417,-3.6417,-3.6417,-3.6417,-3.6417,-3.6417,-3.6417,-3.6417,-3.6568,-3.6845,-3.7036,-3.7161,-3.7249,-3.7475,-3.76,-3.75,-3.7538,-3.7613,-3.7713,-3.7701,-3.7751,-3.7739,-3.7776,-3.7801,-3.7826,-3.7852,-3.76,-3.8002,-3.8304,-3.8128,-3.8153,-3.8115,-3.7613,-3.6958,-3.6744,-3.648,-3.6417,-3.6417,-3.6417,-3.6417,-3.6417,-3.6417,-3.6405,-3.6358,-3.5727,-3.5727,-3.5198,-3.5102,-3.5198,-3.5198,-3.3995,-3.2794,-3.0773,-2.9154,-2.89,-2.8301,-2.8301,-2.8301,-2.8301,-2.8301,-2.8301,-2.8291,-2.8654,-2.8548,-2.8495,-2.8451,-2.8698,-2.8398,-2.8398,-2.8344,-2.8301,-2.8301,-2.8301,-2.8301]},{"header":{"parameterUnit":"m.s-1","parameterCategory":1,"la1":31.0,"la2":29.5877,"lo1":-88.7671,"lo2":-86.6584,"dy":0.0162,"dx":0.0185,"nx":115,"ny":88,"refTime":"2025-07-09T12:00:00:Z","depth":0,"parameterNumber":3,"parameterNumberName":"V-component_of_WINDS"},"data":[0.0,0.0,0.0,0.0,0.0,0.0,0.0,0.0,0.0,0.0,0.0,0.0,0.0,0.0,0.0,0.0,0.0,0.0,0.0,0.0,0.0,0.0,0.0,0.0,0.0,0.0,0.0,0.0,0.0,0.0,0.0,0.0,0.0,0.0,0.0,0.0,0.0,0.0,0.0,0.0,0.0,0.0,0.0,0.0,0.0,0.0,0.0,0.0,0.0,0.0,0.0,0.0,0.0,0.0,0.0,0.0,0.0,0.0,0.0,0.0,0.0,0.0,0.0,0.0,0.0,0.0,0.0,0.0,0.0,0.0,0.0,0.0,0.0,0.0,0.0,0.0,0.0,0.0,0.0,0.0,0.0,0.0,0.0,0.0,0.0,0.0,0.0,0.0,0.0,0.0,0.0,0.0,0.0,0.0,0.0,0.0,0.0,0.0,0.0,0.0,0.0,0.0,0.0,0.0,0.0,0.0,0.0,0.0,0.0,0.0,0.0,0.0,0.0,0.0,0.0,0.0,0.0,0.0,0.0,0.0,0.0,0.0,0.0,0.0,0.0,0.0,0.0,0.0,0.0,0.0,0.0,0.0,0.0,0.0,0.0,0.0,0.0,0.0,0.0,0.0,0.0,0.0,0.0,0.0,0.0,0.0,0.0,0.0,0.0,0.0,0.0,0.0,0.0,0.0,0.0,0.0,0.0,0.0,0.0,0.0,0.0,0.0,0.0,0.0,0.0,0.0,0.0,0.0,0.0,0.0,0.0,0.0,0.0,0.0,0.0,0.0,0.0,0.0,0.0,0.0,0.0,0.0,0.0,0.0,0.0,0.0,0.0,0.0,0.0,0.0,0.0,0.0,0.0,0.0,0.0,0.0,0.0,0.0,0.0,0.0,0.0,0.0,0.0,0.0,0.0,0.0,0.0,0.0,0.0,0.0,0.0,0.0,0.0,0.0,0.0,0.0,0.0,0.0,0.0,0.0,0.0,0.0,0.0,0.0,0.0,0.0,0.0,0.0,0.0,0.0,0.0,0.0,0.0,0.0,0.0,0.0,0.0,0.0,0.0,0.0,0.0,0.0,0.0,0.0,0.0,0.0,0.0,0.0,0.0,0.0,0.0,0.0,0.0,0.0,0.0,0.0,0.0,0.0,0.0,0.0,0.0,0.0,0.0,0.0,0.0,0.0,0.0,0.0,0.0,0.0,0.0,0.0,0.0,0.0,0.0,0.0,0.0,0.0,0.0,0.0,0.0,0.0,0.0,0.0,0.0,0.0,0.0,0.0,0.0,0.0,0.0,0.0,0.0,0.0,0.0,0.0,0.0,0.0,0.0,0.0,0.0,0.0,0.0,0.0,0.0,0.0,0.0,0.0,0.0,0.0,0.0,0.0,0.0,0.0,0.0,0.0,0.0,0.0,0.0,0.0,0.0,0.0,0.0,0.0,0.0,0.0,0.0,0.0,0.0,0.0,0.0,0.0,0.0,0.0,0.0,0.0,0.0,0.0,0.0,0.0,0.0,0.0,0.0,0.0,0.0,0.0,0.0,0.0,0.0,0.0,0.0,0.0,0.0,0.0,0.0,0.0,0.0,0.0,0.0,0.0,0.0,0.0,0.0,0.0,0.0,0.0,0.0,0.0,0.0,0.0,0.0,0.0,0.0,0.0,0.0,0.0,0.0,0.0,0.0,0.0,0.0,0.0,0.0,0.0,0.0,0.0,0.0,0.0,0.0,0.0,0.0,0.0,0.0,0.0,0.0,0.0,0.0,0.0,0.0,0.0,0.0,0.0,0.0,0.0,0.0,0.0,0.0,0.0,0.0,0.0,0.0,0.0,0.0,0.0,0.0,0.0,0.0,0.0,0.0,0.0,0.0,0.0,0.0,0.0,0.0,0.0,0.0,0.0,0.0,0.0,0.0,0.0,0.0,0.0,0.0,0.0,0.0,0.0,0.0,0.0,0.0,0.0,0.0,0.0,0.0,0.0,0.0,0.0,0.0,0.0,0.0,0.0,0.0,0.0,0.0,0.0,0.0,0.0,0.0,0.0,0.0,0.0,0.0,0.0,0.0,0.0,0.0,0.0,0.0,0.0,0.0,0.0,0.0,0.0,0.0,0.0,0.0,0.0,0.0,0.0,0.0,0.0,0.0,0.0,0.0,0.0,0.0,0.0,0.0,0.0,0.0,0.0,0.0,0.0,0.0,0.0,0.0,0.0,0.0,0.0,0.0,0.0,0.0,0.0,0.0,0.0,0.0,0.0,0.0,0.0,0.0,0.0,0.0,0.0,0.0,0.0,0.0,0.0,0.0,0.0,0.0,0.0,0.0,0.0,0.0,0.0,0.0,0.0,0.0,0.0,0.0,0.0,0.0,0.0,0.0,0.0,0.0,0.0,0.0,0.0,0.0,0.0,0.0,0.0,0.0,0.0,0.0,0.0,0.0,0.0,0.0,0.0,0.0,0.0,0.0,0.0,0.0,0.0,0.0,0.0,0.0,0.0,0.0,0.0,0.0,0.0,0.0,0.0,0.0,0.0,0.0,0.0,0.0,0.0,0.0,0.0,0.0,0.0,0.0,0.0,0.0,0.0,0.0,0.0,0.0,0.0,0.0,0.0,0.0,0.0,0.0,0.0,0.0,0.0,0.0,0.0,0.0,0.0,0.0,0.0,0.0,0.0,0.0,0.0,0.0,0.0,0.0,0.0,0.0,0.0,0.0,0.0,0.0,0.0,0.0,0.0,0.0,0.0,0.0,0.0,0.0,0.0,0.0,0.0,0.0,0.0,0.0,0.0,0.0,0.0,0.0,0.0,0.0,0.0,0.0,0.0,0.0,0.0,0.0,0.0,0.0,0.0,0.0,0.0,0.0,0.0,0.0,0.0,0.0,0.0,0.0,0.0,0.0,0.0,0.0,0.0,0.0,0.0,0.0,0.0,0.0,0.0,0.0,0.0,0.0,0.0,0.0,0.0,0.0,0.0,0.0,0.0,0.0,0.0,0.0,0.0,0.0,0.0,0.0,0.0,0.0,0.0,0.0,0.0,0.0,0.0,0.0,0.0,0.0,0.0,0.0,0.0,0.0,0.0,0.0,0.0,0.0,0.0,0.0,0.0,0.0,0.0,0.0,0.0,0.0,0.0,0.0,0.0,0.0,0.0,0.0,0.0,0.0,0.0,0.0,0.0,0.0,0.0,0.0,0.0,0.0,0.0,0.0,0.0,0.0,0.0,0.0,0.0,0.0,0.0,0.0,0.0,0.0,0.0,0.0,0.0,0.0,0.0,0.0,0.0,0.0,0.0,0.0,0.0,0.0,0.0,0.0,0.0,0.0,0.0,0.0,0.0,0.0,0.0,0.0,0.0,0.0,0.0,0.0,0.0,0.0,0.0,0.0,0.0,0.0,0.0,0.0,0.0,0.0,0.0,0.0,0.0,0.0,0.0,0.0,0.0,0.0,0.0,0.0,0.0,0.0,0.0,0.0,0.0,0.0,0.0,0.0,0.0,0.0,0.0,0.0,0.0,0.0,0.0,0.0,0.0,0.0,0.0,0.0,0.0,0.0,0.0,0.0,0.0,0.0,0.0,0.0,0.0,0.0,0.0,0.0,0.0,0.0,0.0,0.0,0.0,0.0,0.0,0.0,0.0,0.0,0.0,0.0,0.0,0.0,0.0,0.0,0.0,0.0,0.0,0.0,0.0,0.0,0.0,0.0,0.0,0.0,0.0,0.0,0.0,0.0,0.0,0.0,0.0,0.0,0.0,0.0,0.0,0.0,0.0,0.0,0.0,0.0,0.0,0.0,0.0,0.0,0.0,0.0,0.0,0.0,0.0,0.0,0.0,0.0,0.0,0.0,0.0,0.0,0.0,0.0,0.0,0.0,0.0,0.0,0.0,0.0,0.0,0.0,0.0,0.0,0.0,0.0,0.0,0.0,0.0,0.0,0.0,0.0,0.0,0.0,0.0,0.0,0.0,0.0,0.0,0.0,0.0,0.0,0.0,0.0,0.0,0.0,0.0,0.0,0.0,0.0,0.0,0.0,0.0,0.0,0.0,0.0,0.0,0.0,0.0,0.0,0.0,0.0,0.0,0.0,0.0,0.0,0.0,0.0,0.0,0.0,0.0,0.0,0.0,0.0,0.0,0.0,0.0,0.0,0.0,0.0,0.0,0.0,0.0,0.0,0.0,0.0,0.0,0.0,0.0,0.0,0.0,0.0,0.0,0.0,0.0,0.0,0.0,0.0,0.0,0.0,0.0,0.0,0.0,0.0,0.0,0.0,0.0,0.0,0.0,-0.659,0.0,0.0,0.0,0.0,0.0,0.0,0.0,0.0,0.0,0.0,0.0,0.0,0.0,0.0,0.0,0.0,0.0,0.0,0.0,0.0,0.0,0.0,0.0,0.0,0.0,0.0,0.0,0.0,0.0,0.0,0.0,0.0,0.0,0.0,0.0,0.0,0.0,0.0,0.0,0.0,0.0,0.0,0.0,0.0,0.0,0.0,0.0,0.0,0.0,0.0,0.0,0.0,0.0,0.0,0.0,0.0,0.0,0.0,0.0,0.0,0.0,0.0,0.0,0.0,0.0,0.0,0.0,0.0,0.0,0.0,0.0,0.0,0.0,0.0,0.0,0.0,0.0,0.0,0.0,0.0,0.0,0.0,0.0,0.0,0.0,0.0,0.0,0.0,0.0,0.0,0.0,0.0,0.0,0.0,0.0,0.0,0.0,0.0,0.0,0.0,0.0,0.0,0.0,0.0,0.0,0.0,0.0,0.0,0.0,0.0,-0.7056,-0.7064,-0.6988,-0.6926,-0.6931,0.0,0.0,0.0,0.0,0.0,0.0,0.0,0.0,0.0,0.0,0.0,0.0,0.0,0.0,0.0,0.0,0.0,0.0,0.0,0.0,0.0,0.0,0.0,0.0,0.0,0.0,0.0,0.0,0.0,0.0,0.0,0.0,0.0,0.0,0.0,0.0,0.0,0.0,0.0,0.0,0.0,0.0,0.0,0.0,0.0,0.0,0.0,0.0,0.0,0.0,0.0,0.0,0.0,0.0,0.0,0.0,0.0,0.0,0.0,0.0,0.0,0.0,0.0,0.0,0.0,0.0,0.0,0.0,0.0,0.0,0.0,0.0,0.0,0.0,0.0,0.0,0.0,0.0,0.0,0.0,0.0,0.0,0.0,0.0,0.0,0.0,0.0,0.0,0.0,0.0,0.0,0.0,0.0,0.0,0.0,0.0,0.0,0.0,0.0,0.0,0.0,0.0,0.0,0.0,0.0,0.0,0.0,0.0,0.0,0.0,0.0,0.0,-0.7902,-0.7876,-0.7868,0.0,0.0,0.0,0.0,0.0,0.0,0.0,0.0,0.0,0.0,0.0,0.0,0.0,0.0,0.0,0.0,0.0,0.0,0.0,0.0,0.0,0.0,0.0,0.0,0.0,0.0,0.0,0.0,0.0,0.0,0.0,0.0,0.0,0.0,0.0,0.0,0.0,0.0,0.0,0.0,0.0,0.0,0.0,0.0,0.0,0.0,0.0,0.0,0.0,0.0,0.0,0.0,0.0,0.0,0.0,0.0,0.0,0.0,0.0,0.0,0.0,0.0,0.0,0.0,0.0,0.0,0.0,0.0,0.0,0.0,0.0,0.0,0.0,0.0,0.0,0.0,0.0,0.0,0.0,0.0,0.0,0.0,0.0,0.0,0.0,0.0,0.0,0.0,0.0,0.0,0.0,0.0,0.0,0.0,0.0,0.0,0.0,0.0,0.0,0.0,0.0,0.0,0.0,0.0,0.0,0.0,0.0,0.0,0.0,0.0,-0.8406,-1.0136,-1.0003,0.0,-0.9929,0.0,0.0,0.0,0.0,0.0,0.0,0.0,0.0,0.0,0.0,0.0,0.0,0.0,0.0,0.0,0.0,0.0,0.0,0.0,0.0,0.0,0.0,0.0,0.0,0.0,0.0,0.0,0.0,0.0,0.0,0.0,0.0,0.0,0.0,0.0,0.0,0.0,0.0,0.0,0.0,0.0,0.0,0.0,0.0,0.0,0.0,0.0,0.0,0.0,0.0,0.0,0.0,0.0,0.0,0.0,0.0,0.0,0.0,0.0,0.0,0.0,0.0,0.0,0.0,0.0,0.0,0.0,0.0,0.0,0.0,0.0,0.0,0.0,0.0,0.0,0.0,0.0,0.0,0.0,0.0,0.0,0.0,0.0,0.0,0.0,0.0,0.0,0.0,0.0,0.0,0.0,0.0,0.0,0.0,0.0,0.0,0.0,0.0,0.0,0.0,0.0,0.0,0.0,0.0,0.0,0.0,0.0,0.0,0.0,0.0,0.0,-1.0673,-1.0592,-1.0561,0.0,0.0,0.0,0.0,0.0,0.0,0.0,0.0,0.0,0.0,0.0,0.0,0.0,0.0,0.0,0.0,0.0,0.0,0.0,0.0,0.0,0.0,0.0,0.0,0.0,0.0,0.0,0.0,0.0,0.0,0.0,0.0,0.0,0.0,0.0,0.0,0.0,0.0,0.0,0.0,0.0,0.0,0.0,0.0,0.0,0.0,0.0,0.0,0.0,0.0,0.0,0.0,0.0,0.0,0.0,0.0,0.0,0.0,0.0,0.0,0.0,0.0,0.0,0.0,0.0,0.0,0.0,0.0,0.0,0.0,0.0,0.0,0.0,0.0,0.0,0.0,0.0,0.0,0.0,0.0,0.0,0.0,0.0,0.0,0.0,0.0,0.0,0.0,0.0,0.0,0.0,0.0,0.0,0.0,0.0,0.0,0.0,0.0,0.0,0.0,0.0,0.0,0.0,0.0,0.0,0.0,0.0,0.0,0.0,0.0,-1.0374,0.0,-1.1574,-1.163,-1.1365,-1.0827,0.0,0.0,0.0,0.0,0.0,0.0,0.0,0.0,0.0,0.0,0.0,0.0,0.0,0.0,0.0,0.0,0.0,0.0,0.0,0.0,0.0,0.0,0.0,0.0,0.0,0.0,0.0,0.0,0.0,0.0,0.0,0.0,0.0,0.0,0.0,0.0,0.0,0.0,0.0,0.0,0.0,0.0,0.0,0.0,0.0,0.0,0.0,0.0,0.0,0.0,0.0,0.0,0.0,0.0,0.0,0.0,0.0,0.0,0.0,0.0,0.0,0.0,0.0,0.0,0.0,0.0,0.0,0.0,0.0,0.0,0.0,0.0,0.0,0.0,0.0,0.0,0.0,0.0,0.0,0.0,0.0,0.0,0.0,0.0,0.0,0.0,0.0,0.0,0.0,0.0,0.0,0.0,0.0,0.0,0.0,0.0,0.0,0.0,0.0,0.0,0.0,0.0,0.0,0.0,0.0,0.0,0.0,0.0,0.0,-1.1694,-1.1723,-1.3603,-1.3648,-1.2766,0.0,0.0,0.0,0.0,0.0,0.0,0.0,0.0,0.0,0.0,0.0,0.0,0.0,0.0,0.0,0.0,0.0,0.0,0.0,0.0,0.0,0.0,0.0,0.0,0.0,0.0,0.0,0.0,0.0,0.0,0.0,0.0,0.0,0.0,0.0,0.0,0.0,0.0,0.0,0.0,0.0,0.0,0.0,0.0,0.0,0.0,0.0,0.0,0.0,0.0,0.0,0.0,0.0,0.0,0.0,0.0,0.0,0.0,0.0,0.0,0.0,0.0,0.0,0.0,0.0,0.0,0.0,0.0,0.0,0.0,0.0,0.0,0.0,0.0,0.0,0.0,0.0,0.0,0.0,0.0,0.0,0.0,0.0,0.0,0.0,0.0,0.0,0.0,0.0,0.0,0.0,0.0,0.0,0.0,0.0,0.0,0.0,0.0,0.0,0.0,0.0,0.0,0.0,0.0,0.0,0.0,0.0,0.0,0.0,-0.995,-1.0533,-1.2366,-1.5412,-1.3229,-1.2138,0.0,0.0,0.0,0.0,0.0,0.0,0.0,0.0,0.0,0.0,0.0,0.0,0.0,0.0,0.0,0.0,0.0,0.0,0.0,0.0,0.0,0.0,0.0,0.0,0.0,0.0,0.0,0.0,0.0,0.0,0.0,0.0,0.0,0.0,0.0,0.0,0.0,0.0,0.0,0.0,0.0,0.0,0.0,0.0,0.0,0.0,0.0,0.0,0.0,0.0,0.0,0.0,0.0,0.0,0.0,0.0,0.0,0.0,0.0,0.0,0.0,0.0,0.0,0.0,0.0,0.0,0.0,0.0,0.0,0.0,0.0,0.0,0.0,0.0,0.0,0.0,0.0,0.0,0.0,0.0,0.0,0.0,0.0,0.0,0.0,0.0,0.0,0.0,0.0,0.0,0.0,0.0,0.0,0.0,0.0,0.0,0.0,0.0,0.0,0.0,0.0,0.0,0.0,0.0,0.0,0.0,0.0,0.0,0.0,-0.9803,0.0,-1.3857,0.0,-1.3172,-1.1824,0.0,0.0,0.0,0.0,0.0,0.0,0.0,0.0,0.0,0.0,0.0,0.0,0.0,0.0,0.0,0.0,0.0,0.0,0.0,0.0,0.0,0.0,0.0,0.0,0.0,0.0,0.0,0.0,0.0,0.0,0.0,0.0,0.0,0.0,0.0,0.0,0.0,0.0,0.0,0.0,0.0,0.0,0.0,0.0,0.0,0.0,0.0,0.0,0.0,0.0,0.0,0.0,0.0,0.0,0.0,0.0,0.0,0.0,0.0,0.0,0.0,0.0,0.0,0.0,0.0,0.0,0.0,0.0,0.0,0.0,0.0,0.0,0.0,0.0,0.0,0.0,0.0,0.0,0.0,0.0,0.0,0.0,0.0,0.0,0.0,0.0,0.0,0.0,0.0,0.0,0.0,0.0,0.0,0.0,0.0,0.0,0.0,0.0,0.0,0.0,0.0,0.0,0.0,0.0,0.0,0.0,0.0,0.0,0.0,-1.3608,-1.597,-1.6076,-1.397,-1.3762,-1.195,0.0,0.0,0.0,0.0,0.0,0.0,0.0,0.0,0.0,0.0,0.0,0.0,0.0,0.0,0.0,0.0,0.0,0.0,0.0,0.0,0.0,0.0,0.0,0.0,0.0,0.0,0.0,0.0,0.0,0.0,0.0,0.0,0.0,0.0,0.0,0.0,0.0,0.0,0.0,0.0,0.0,0.0,0.0,0.0,0.0,0.0,0.0,0.0,0.0,0.0,0.0,0.0,0.0,0.0,0.0,0.0,0.0,0.0,0.0,0.0,0.0,0.0,0.0,0.0,0.0,0.0,0.0,0.0,0.0,0.0,0.0,0.0,0.0,0.0,0.0,0.0,0.0,0.0,0.0,0.0,0.0,0.0,0.0,0.0,0.0,0.0,0.0,0.0,0.0,0.0,0.0,0.0,0.0,0.0,0.0,0.0,0.0,0.0,0.0,0.0,0.0,0.0,0.0,0.0,0.0,0.0,0.0,0.0,0.0,-1.3203,-1.4915,-1.5961,-1.6198,-1.4081,-1.261,0.0,0.0,0.0,0.0,0.0,0.0,0.0,0.0,0.0,0.0,0.0,0.0,0.0,0.0,0.0,0.0,0.0,0.0,0.0,0.0,0.0,0.0,0.0,0.0,0.0,0.0,0.0,0.0,0.0,0.0,0.0,0.0,0.0,0.0,0.0,0.0,0.0,0.0,0.0,0.0,0.0,0.0,0.0,0.0,0.0,0.0,0.0,0.0,0.0,0.0,0.0,0.0,0.0,0.0,0.0,0.0,0.0,0.0,0.0,0.0,0.0,0.0,0.0,0.0,0.0,0.0,0.0,0.0,0.0,0.0,0.0,0.0,0.0,0.0,0.0,0.0,0.0,0.0,0.0,0.0,0.0,0.0,0.0,0.0,0.0,0.0,0.0,0.0,0.0,0.0,0.0,0.0,0.0,0.0,0.0,0.0,0.0,0.0,0.0,0.0,0.0,0.0,0.0,0.0,0.0,0.0,0.0,0.0,0.0,-1.6021,-1.7002,-1.7552,-1.7644,-1.4983,-1.3559,-1.3405,0.0,0.0,0.0,0.0,0.0,0.0,0.0,0.0,0.0,0.0,0.0,0.0,0.0,0.0,0.0,0.0,0.0,0.0,0.0,0.0,0.0,0.0,0.0,0.0,0.0,0.0,0.0,0.0,0.0,0.0,0.0,0.0,0.0,0.0,0.0,0.0,0.0,0.0,0.0,0.0,0.0,0.0,0.0,0.0,0.0,0.0,0.0,0.0,0.0,0.0,0.0,0.0,0.0,0.0,0.0,0.0,0.0,0.0,0.0,0.0,0.0,0.0,0.0,0.0,0.0,0.0,0.0,0.0,0.0,0.0,0.0,0.0,0.0,0.0,0.0,0.0,0.0,0.0,0.0,0.0,0.0,0.0,0.0,0.0,0.0,0.0,0.0,0.0,0.0,0.0,0.0,0.0,0.0,0.0,0.0,0.0,0.0,0.0,0.0,0.0,0.0,0.0,0.0,0.0,0.0,0.0,0.0,0.0,-2.1156,-2.1568,-2.0635,-1.8375,-1.6581,-1.4828,0.0,0.0,0.0,0.0,0.0,0.0,0.0,0.0,0.0,0.0,0.0,0.0,0.0,0.0,0.0,0.0,0.0,0.0,0.0,0.0,0.0,0.0,0.0,0.0,0.0,0.0,0.0,0.0,0.0,0.0,0.0,0.0,0.0,0.0,0.0,0.0,0.0,0.0,0.0,0.0,0.0,0.0,0.0,0.0,0.0,0.0,0.0,0.0,0.0,0.0,0.0,0.0,0.0,0.0,0.0,0.0,0.0,0.0,0.0,0.0,0.0,0.0,0.0,0.0,0.0,0.0,0.0,0.0,0.0,0.0,0.0,0.0,0.0,0.0,0.0,0.0,0.0,0.0,0.0,0.0,0.0,0.0,0.0,0.0,0.0,0.0,0.0,0.0,0.0,0.0,0.0,0.0,0.0,0.0,0.0,0.0,0.0,0.0,0.0,0.0,0.0,0.0,0.0,0.0,0.0,0.0,0.0,0.0,0.0,-2.1123,-2.2849,-2.3009,-2.1501,-1.9597,-1.7473,0.0,0.0,0.0,0.0,0.0,0.0,0.0,0.0,0.0,0.0,0.0,0.0,0.0,0.0,0.0,0.0,0.0,0.0,0.0,0.0,0.0,0.0,0.0,0.0,0.0,0.0,0.0,0.0,0.0,0.0,0.0,0.0,0.0,0.0,0.0,0.0,0.0,0.0,0.0,0.0,0.0,0.0,0.0,0.0,0.0,0.0,0.0,0.0,0.0,0.0,0.0,0.0,0.0,0.0,0.0,0.0,0.0,0.0,0.0,0.0,0.0,0.0,0.0,0.0,0.0,0.0,0.0,0.0,0.0,0.0,0.0,0.0,0.0,0.0,0.0,0.0,0.0,0.0,0.0,0.0,0.0,0.0,0.0,0.0,0.0,0.0,0.0,0.0,0.0,0.0,0.0,0.0,0.0,0.0,0.0,0.0,0.0,0.0,0.0,0.0,0.0,0.0,0.0,0.0,0.0,0.0,0.0,0.0,-2.0132,-2.3001,-2.4611,-2.5073,-2.4412,-2.1947,-1.9651,0.0,0.0,0.0,0.0,0.0,0.0,0.0,0.0,0.0,0.0,0.0,0.0,0.0,0.0,0.0,0.0,0.0,0.0,0.0,0.0,0.0,0.0,0.0,0.0,0.0,0.0,0.0,0.0,0.0,0.0,0.0,0.0,0.0,0.0,0.0,0.0,0.0,0.0,0.0,0.0,0.0,0.0,0.0,0.0,0.0,0.0,0.0,0.0,0.0,0.0,0.0,0.0,0.0,0.0,0.0,0.0,0.0,0.0,0.0,0.0,0.0,0.0,0.0,0.0,0.0,0.0,0.0,0.0,0.0,0.0,0.0,0.0,0.0,0.0,0.0,0.0,0.0,0.0,0.0,0.0,0.0,0.0,0.0,0.0,0.0,0.0,0.0,0.0,0.0,0.0,0.0,0.0,0.0,0.0,0.0,0.0,0.0,0.0,0.0,0.0,0.0,0.0,0.0,0.0,0.0,0.0,0.0,0.0,-2.2043,-2.5508,-2.6471,-2.6894,-2.6742,-2.3786,-2.1477,0.0,0.0,0.0,0.0,0.0,0.0,0.0,0.0,0.0,0.0,0.0,0.0,0.0,0.0,0.0,0.0,0.0,0.0,0.0,0.0,0.0,0.0,0.0,0.0,0.0,0.0,0.0,0.0,0.0,0.0,0.0,0.0,0.0,0.0,0.0,0.0,0.0,0.0,0.0,0.0,0.0,0.0,0.0,0.0,0.0,0.0,0.0,0.0,0.0,0.0,0.0,0.0,0.0,0.0,0.0,0.0,0.0,0.0,0.0,0.0,0.0,0.0,0.0,0.0,0.0,0.0,0.0,0.0,0.0,0.0,0.0,0.0,0.0,0.0,0.0,0.0,0.0,0.0,0.0,0.0,0.0,0.0,0.0,0.0,0.0,0.0,0.0,0.0,0.0,0.0,0.0,0.0,0.0,0.0,0.0,0.0,0.0,0.0,0.0,0.0,0.0,0.0,0.0,0.0,0.0,0.0,0.0,0.0,-2.3615,-2.5575,-2.7503,-2.8197,-2.757,-2.5206,-2.2707,0.0,0.0,0.0,0.0,0.0,0.0,0.0,0.0,0.0,0.0,0.0,0.0,0.0,0.0,0.0,0.0,0.0,0.0,0.0,0.0,0.0,0.0,0.0,0.0,0.0,0.0,0.0,0.0,0.0,0.0,0.0,0.0,0.0,0.0,0.0,0.0,0.0,0.0,0.0,0.0,0.0,0.0,0.0,0.0,0.0,0.0,0.0,0.0,-1.2179,0.0,0.0,0.0,0.0,0.0,0.0,0.0,0.0,0.0,0.0,0.0,0.0,0.0,0.0,0.0,0.0,0.0,0.0,0.0,0.0,0.0,0.0,0.0,0.0,0.0,0.0,0.0,0.0,0.0,0.0,0.0,0.0,0.0,0.0,0.0,0.0,0.0,0.0,0.0,0.0,0.0,0.0,0.0,0.0,0.0,0.0,0.0,0.0,0.0,0.0,0.0,0.0,0.0,0.0,0.0,0.0,0.0,0.0,0.0,-2.4812,-2.6607,-2.8518,-2.9144,-2.8349,-2.6877,-2.4492,0.0,0.0,0.0,0.0,0.0,0.0,0.0,0.0,0.0,0.0,0.0,0.0,0.0,0.0,0.0,0.0,0.0,0.0,0.0,0.0,0.0,0.0,0.0,0.0,0.0,0.0,0.0,0.0,0.0,0.0,0.0,0.0,0.0,0.0,0.0,0.0,0.0,0.0,0.0,0.0,0.0,0.0,0.0,0.0,0.0,0.0,0.0,0.0,0.0,0.0,0.0,0.0,0.0,0.0,0.0,0.0,0.0,0.0,0.0,0.0,0.0,0.0,0.0,0.0,0.0,0.0,0.0,0.0,0.0,0.0,0.0,0.0,0.0,0.0,0.0,0.0,0.0,0.0,0.0,0.0,0.0,0.0,0.0,0.0,0.0,0.0,0.0,0.0,0.0,0.0,0.0,0.0,0.0,0.0,0.0,0.0,0.0,0.0,0.0,0.0,0.0,0.0,0.0,0.0,0.0,0.0,0.0,-2.2462,-2.5642,-2.7908,-2.9499,-2.9871,-2.9027,-2.8349,-2.6218,0.0,0.0,0.0,0.0,0.0,0.0,0.0,0.0,0.0,0.0,0.0,0.0,0.0,0.0,0.0,0.0,0.0,0.0,0.0,0.0,0.0,0.0,0.0,0.0,0.0,0.0,0.0,0.0,0.0,0.0,0.0,0.0,0.0,0.0,0.0,0.0,0.0,0.0,0.0,-1.1967,-1.3404,0.0,0.0,0.0,0.0,0.0,0.0,0.0,0.0,-1.5122,0.0,0.0,0.0,0.0,0.0,0.0,0.0,0.0,0.0,0.0,0.0,0.0,0.0,0.0,0.0,0.0,0.0,0.0,0.0,0.0,0.0,0.0,0.0,0.0,0.0,0.0,0.0,0.0,0.0,0.0,0.0,0.0,0.0,0.0,0.0,0.0,0.0,0.0,0.0,0.0,0.0,0.0,0.0,0.0,0.0,0.0,0.0,0.0,0.0,0.0,0.0,0.0,0.0,0.0,0.0,0.0,-2.1498,-2.3494,-2.5895,-2.8756,-3.0243,-3.0381,-2.9061,-2.8874,-2.6742,-2.2499,0.0,0.0,0.0,0.0,0.0,0.0,0.0,0.0,0.0,0.0,0.0,0.0,0.0,0.0,0.0,0.0,0.0,0.0,0.0,0.0,0.0,0.0,0.0,0.0,0.0,0.0,0.0,0.0,0.0,0.0,0.0,0.0,0.0,0.0,0.0,0.0,0.0,0.0,0.0,-1.6031,-1.7452,0.0,0.0,0.0,0.0,0.0,0.0,0.0,0.0,-1.672,0.0,0.0,0.0,0.0,0.0,0.0,0.0,0.0,0.0,0.0,0.0,0.0,0.0,0.0,0.0,0.0,0.0,0.0,0.0,0.0,0.0,0.0,0.0,0.0,0.0,0.0,0.0,0.0,0.0,0.0,0.0,0.0,0.0,0.0,0.0,0.0,0.0,0.0,0.0,0.0,0.0,0.0,0.0,0.0,0.0,0.0,0.0,0.0,0.0,0.0,0.0,0.0,0.0,0.0,0.0,-2.1011,-2.4101,-2.6725,-2.8942,-3.0429,-3.0499,-2.9044,-2.8231,-2.6082,0.0,0.0,0.0,0.0,0.0,0.0,0.0,0.0,0.0,0.0,0.0,0.0,0.0,0.0,0.0,0.0,0.0,0.0,0.0,0.0,0.0,0.0,0.0,0.0,0.0,0.0,0.0,0.0,0.0,0.0,0.0,0.0,0.0,0.0,0.0,0.0,0.0,0.0,0.0,0.0,-1.7128,-1.8282,-1.9339,0.0,0.0,0.0,0.0,0.0,0.0,-1.8101,-1.7569,0.0,0.0,0.0,0.0,0.0,0.0,0.0,0.0,0.0,0.0,0.0,0.0,0.0,0.0,0.0,0.0,0.0,0.0,0.0,0.0,0.0,0.0,0.0,0.0,0.0,0.0,0.0,0.0,0.0,0.0,0.0,0.0,0.0,0.0,0.0,0.0,0.0,0.0,0.0,0.0,0.0,0.0,0.0,0.0,0.0,0.0,0.0,0.0,0.0,0.0,0.0,0.0,0.0,0.0,0.0,-2.0234,-2.4205,-2.7148,-2.8959,-3.0465,-3.0565,-2.9247,-2.7875,-2.571,0.0,0.0,0.0,0.0,0.0,0.0,0.0,0.0,0.0,0.0,0.0,0.0,0.0,0.0,0.0,0.0,0.0,0.0,0.0,0.0,0.0,0.0,0.0,0.0,0.0,0.0,0.0,0.0,0.0,0.0,0.0,0.0,0.0,0.0,0.0,0.0,0.0,0.0,0.0,0.0,0.0,-1.9341,-2.0481,-1.9533,0.0,0.0,0.0,0.0,-2.0272,-1.9592,0.0,0.0,0.0,0.0,0.0,0.0,0.0,0.0,0.0,0.0,0.0,0.0,0.0,0.0,0.0,0.0,0.0,0.0,0.0,0.0,0.0,0.0,0.0,0.0,0.0,0.0,0.0,0.0,0.0,0.0,0.0,0.0,0.0,0.0,0.0,0.0,0.0,0.0,0.0,0.0,0.0,0.0,0.0,0.0,0.0,0.0,0.0,0.0,0.0,0.0,0.0,0.0,0.0,0.0,0.0,0.0,-2.0919,-2.3492,-2.6132,-2.8891,-3.0429,-3.0801,-2.9989,-2.9179,-2.6996,0.0,0.0,0.0,0.0,0.0,0.0,0.0,0.0,0.0,0.0,0.0,0.0,0.0,0.0,0.0,0.0,0.0,0.0,0.0,0.0,0.0,0.0,0.0,0.0,0.0,0.0,0.0,0.0,0.0,0.0,0.0,0.0,0.0,0.0,0.0,0.0,0.0,0.0,0.0,0.0,0.0,-2.2347,-2.1289,-2.1488,-2.1583,0.0,0.0,0.0,-2.2009,-2.2429,0.0,0.0,0.0,0.0,0.0,0.0,0.0,0.0,0.0,0.0,0.0,0.0,0.0,0.0,0.0,0.0,0.0,0.0,0.0,0.0,0.0,0.0,0.0,0.0,0.0,0.0,0.0,0.0,0.0,0.0,0.0,0.0,0.0,0.0,0.0,0.0,0.0,0.0,0.0,0.0,0.0,0.0,0.0,0.0,0.0,0.0,0.0,0.0,0.0,0.0,0.0,0.0,0.0,0.0,0.0,-1.7027,-2.1718,-2.4408,-2.7012,-2.9533,-3.0649,-3.0852,-3.0106,-2.8535,-2.6352,0.0,0.0,0.0,0.0,0.0,0.0,0.0,0.0,0.0,0.0,0.0,0.0,0.0,0.0,0.0,0.0,0.0,0.0,0.0,0.0,0.0,0.0,0.0,0.0,0.0,0.0,0.0,0.0,0.0,0.0,0.0,0.0,0.0,0.0,0.0,0.0,0.0,0.0,0.0,0.0,0.0,0.0,-2.2409,-2.2716,0.0,0.0,0.0,-2.356,-2.356,0.0,0.0,0.0,0.0,0.0,0.0,0.0,0.0,0.0,0.0,0.0,0.0,0.0,0.0,0.0,0.0,0.0,0.0,0.0,0.0,0.0,0.0,0.0,0.0,0.0,0.0,0.0,0.0,0.0,0.0,0.0,0.0,0.0,0.0,0.0,0.0,0.0,0.0,0.0,0.0,0.0,0.0,0.0,0.0,0.0,0.0,0.0,0.0,0.0,0.0,0.0,0.0,0.0,0.0,0.0,0.0,0.0,-2.2513,-2.549,-2.7994,-3.0021,-3.0818,-3.0937,-3.0362,-2.8383,0.0,0.0,0.0,0.0,0.0,0.0,0.0,0.0,0.0,0.0,0.0,0.0,0.0,0.0,0.0,0.0,0.0,0.0,0.0,0.0,0.0,0.0,0.0,0.0,0.0,0.0,0.0,-0.9523,0.0,0.0,0.0,0.0,0.0,0.0,0.0,0.0,0.0,0.0,0.0,0.0,0.0,0.0,-2.2615,-2.356,-2.4154,-2.4628,0.0,0.0,-2.5252,-2.5083,-2.4746,-2.4069,0.0,0.0,0.0,0.0,0.0,0.0,0.0,0.0,0.0,0.0,0.0,0.0,0.0,0.0,0.0,0.0,0.0,0.0,0.0,0.0,0.0,0.0,0.0,0.0,0.0,0.0,0.0,0.0,0.0,0.0,0.0,0.0,0.0,0.0,0.0,0.0,0.0,0.0,0.0,0.0,0.0,0.0,0.0,0.0,0.0,0.0,0.0,0.0,0.0,0.0,0.0,0.0,0.0,0.0,0.0,-2.3224,-2.6218,-2.8483,-3.0038,-3.0818,-3.1173,-3.1106,-2.9653,-2.7436,0.0,0.0,0.0,0.0,0.0,0.0,0.0,0.0,0.0,0.0,0.0,0.0,0.0,0.0,0.0,0.0,0.0,0.0,0.0,0.0,0.0,0.0,0.0,0.0,0.0,0.0,0.0,0.0,0.0,0.0,0.0,0.0,0.0,0.0,0.0,0.0,0.0,0.0,0.0,0.0,0.0,-2.5084,-2.4491,-2.6201,-2.7266,0.0,0.0,-2.735,-2.6657,-2.7063,-2.6556,-2.3782,0.0,0.0,0.0,0.0,0.0,0.0,0.0,0.0,0.0,0.0,0.0,0.0,0.0,0.0,0.0,0.0,0.0,0.0,0.0,0.0,0.0,0.0,0.0,0.0,0.0,0.0,0.0,0.0,0.0,0.0,0.0,0.0,0.0,0.0,0.0,0.0,0.0,0.0,0.0,0.0,0.0,0.0,0.0,0.0,0.0,0.0,0.0,0.0,0.0,0.0,0.0,0.0,0.0,-1.9587,-2.4017,-2.6539,-2.877,-3.07,-3.1055,-3.119,-3.119,-3.0209,-2.8264,0.0,0.0,0.0,0.0,0.0,0.0,0.0,0.0,0.0,0.0,0.0,0.0,0.0,0.0,0.0,0.0,0.0,0.0,0.0,0.0,0.0,0.0,0.0,0.0,0.0,0.0,0.0,0.0,-1.3193,-1.376,-1.403,0.0,0.0,0.0,0.0,0.0,0.0,0.0,0.0,0.0,0.0,-2.5304,-2.6387,-2.7689,0.0,0.0,-2.9127,-2.9482,-2.8299,-2.7943,-2.7097,-2.5084,-2.4002,0.0,0.0,0.0,0.0,0.0,0.0,0.0,0.0,0.0,0.0,0.0,0.0,0.0,0.0,0.0,0.0,0.0,0.0,0.0,0.0,0.0,0.0,0.0,0.0,0.0,0.0,0.0,0.0,0.0,0.0,0.0,0.0,0.0,0.0,0.0,0.0,0.0,0.0,0.0,0.0,0.0,0.0,0.0,0.0,0.0,0.0,0.0,0.0,0.0,0.0,0.0,0.0,-2.0331,-2.4778,-2.7029,-2.9245,-3.1498,-3.1309,-3.1309,-3.1478,-3.0598,-2.8805,0.0,0.0,0.0,0.0,0.0,0.0,0.0,0.0,0.0,0.0,0.0,0.0,0.0,0.0,0.0,0.0,0.0,0.0,0.0,0.0,0.0,0.0,0.0,0.0,0.0,0.0,0.0,0.0,-1.453,-1.4909,-1.5138,0.0,0.0,0.0,0.0,0.0,0.0,0.0,0.0,0.0,0.0,-2.6488,-2.8246,-2.9161,-2.9738,-2.9958,-3.0685,-3.0835,-2.9822,-2.9178,-2.8246,-2.6522,0.0,0.0,0.0,0.0,0.0,0.0,0.0,0.0,0.0,0.0,0.0,0.0,0.0,0.0,0.0,0.0,0.0,0.0,0.0,0.0,0.0,0.0,0.0,0.0,0.0,0.0,0.0,0.0,0.0,0.0,0.0,0.0,0.0,0.0,0.0,0.0,0.0,0.0,0.0,0.0,0.0,0.0,0.0,0.0,0.0,0.0,0.0,0.0,0.0,0.0,0.0,0.0,0.0,0.0,-2.5524,-2.7824,-3.0059,-3.2175,-3.1579,-3.1582,-3.2226,-3.0869,-2.9042,-2.6742,0.0,0.0,0.0,0.0,0.0,0.0,0.0,0.0,0.0,0.0,0.0,0.0,0.0,0.0,0.0,0.0,0.0,0.0,0.0,0.0,0.0,0.0,0.0,0.0,0.0,0.0,-1.5494,-1.5571,-1.5866,0.0,0.0,0.0,0.0,0.0,0.0,0.0,0.0,0.0,0.0,-2.7486,-2.9179,-2.992,-3.0683,-3.136,-3.2107,-3.1664,-3.1241,-3.119,-3.1123,-3.0362,0.0,0.0,0.0,0.0,0.0,0.0,0.0,0.0,0.0,0.0,0.0,0.0,0.0,0.0,0.0,0.0,0.0,0.0,0.0,0.0,0.0,0.0,0.0,0.0,0.0,0.0,0.0,-2.2009,-2.045,0.0,0.0,0.0,0.0,0.0,0.0,0.0,0.0,0.0,0.0,0.0,-2.7892,-2.9111,0.0,0.0,0.0,0.0,0.0,0.0,0.0,0.0,0.0,0.0,0.0,0.0,-2.2868,-2.6268,-2.9077,-3.1275,-3.2949,-3.2797,-3.278,-3.3,-3.207,-3.026,-2.7503,0.0,0.0,0.0,0.0,0.0,0.0,0.0,0.0,0.0,0.0,0.0,0.0,0.0,0.0,0.0,0.0,0.0,0.0,0.0,0.0,0.0,0.0,0.0,0.0,0.0,-1.6255,0.0,0.0,0.0,0.0,0.0,0.0,0.0,0.0,0.0,0.0,0.0,-2.5338,-2.7571,-2.8941,-3.0176,-3.1393,-3.1785,-3.2192,0.0,0.0,0.0,0.0,0.0,0.0,0.0,0.0,0.0,0.0,0.0,0.0,0.0,0.0,-3.256,-2.7604,-2.5896,-2.5456,-2.6184,0.0,0.0,0.0,0.0,0.0,0.0,0.0,0.0,0.0,0.0,0.0,0.0,0.0,0.0,0.0,0.0,-2.4458,0.0,0.0,0.0,0.0,0.0,0.0,0.0,0.0,-2.933,-3.1326,-3.2053,-3.3,-3.2949,0.0,-3.1799,-2.8654,0.0,0.0,0.0,0.0,0.0,0.0,0.0,0.0,-2.4661,-2.7807,-3.033,-3.229,-3.3694,-3.3525,-3.3541,-3.3744,-3.2577,-3.0869,-2.8669,-2.6235,-2.4577,0.0,0.0,0.0,0.0,0.0,0.0,0.0,0.0,0.0,0.0,0.0,0.0,0.0,0.0,0.0,0.0,0.0,0.0,0.0,0.0,0.0,0.0,0.0,-1.8031,0.0,0.0,0.0,0.0,0.0,0.0,0.0,0.0,0.0,-2.505,-2.6454,-2.8383,-3.0618,-3.1106,-3.1782,-3.3237,0.0,0.0,0.0,0.0,0.0,0.0,0.0,-3.3935,-3.4134,-3.3419,-3.2966,-3.3372,-3.5081,-3.6225,-3.5684,0.0,0.0,-3.1478,-2.9939,-2.9634,-3.0376,-3.0531,-3.0753,-3.1478,-3.2222,-3.2747,0.0,0.0,0.0,0.0,0.0,0.0,0.0,0.0,-3.0376,-3.0326,0.0,-2.872,0.0,0.0,0.0,0.0,0.0,0.0,0.0,0.0,-3.4646,-3.64,-3.5701,-3.5718,-3.5718,-3.5735,-3.6417,-3.5221,-3.2107,-2.659,0.0,0.0,0.0,0.0,0.0,0.0,-2.6471,-3.0057,-3.165,-3.3089,-3.4438,-3.3846,-3.3812,-3.4387,-3.2425,-3.0954,-3.0176,-2.8669,-2.686,-2.4762,-2.3207,0.0,0.0,0.0,0.0,0.0,0.0,0.0,0.0,0.0,0.0,0.0,0.0,0.0,0.0,0.0,0.0,0.0,0.0,0.0,0.0,-1.9118,0.0,0.0,0.0,0.0,0.0,0.0,0.0,0.0,0.0,0.0,-2.8382,-2.9989,-3.2104,-3.4201,0.0,0.0,0.0,0.0,-3.5098,-3.6592,-3.6197,-3.5988,-3.6761,-3.6829,-3.6552,-3.587,0.0,0.0,-3.5988,-3.6969,-3.7516,-3.6039,-3.7077,-3.7973,-3.7838,-3.5859,-3.4726,-3.5329,-3.445,-3.3897,-3.4489,-3.5233,-3.5752,-3.5284,0.0,0.0,0.0,0.0,-3.2036,-3.3491,-3.569,-3.5673,-3.5025,-3.3994,-3.3571,0.0,0.0,0.0,0.0,0.0,0.0,-3.2425,-3.3339,-3.5712,-3.7235,-3.8041,-3.8565,-3.8514,-3.8041,-3.8261,-3.7388,-3.5475,-3.322,-2.9345,-2.4088,0.0,0.0,0.0,0.0,-2.9027,-3.1582,-3.3123,-3.432,-3.5261,-3.5076,-3.481,-3.4527,-3.3372,-3.2425,-3.1681,-3.0243,-2.8924,-2.7723,-2.5744,0.0,0.0,0.0,0.0,0.0,0.0,0.0,0.0,0.0,0.0,0.0,0.0,0.0,0.0,0.0,0.0,0.0,0.0,0.0,-1.9191,-1.927,-2.0078,0.0,0.0,0.0,0.0,0.0,0.0,0.0,0.0,0.0,-3.4134,-3.4269,-3.4568,0.0,0.0,-3.596,-3.6383,-3.6288,-3.6508,-3.7449,0.0,0.0,0.0,-3.7922,-3.7872,-3.8667,-3.9174,-3.9292,-3.8894,-3.9182,-3.9309,-3.8836,-3.9157,-3.9486,-3.9385,-3.8108,-3.7077,-3.7188,-3.7297,-3.7449,-3.7686,-3.8302,-3.8809,-4.0223,-3.6586,-3.5284,-3.525,-3.6079,-3.6383,-3.7533,-3.9208,-3.9208,-3.8853,-3.8186,-3.7645,-3.5819,-3.3169,-3.2713,0.0,0.0,0.0,-3.5131,-3.6332,-3.7557,-3.8589,-3.9453,-3.9893,-3.9876,-3.9469,-3.9453,-3.8996,-3.8099,-3.7313,-3.4472,-2.9683,0.0,0.0,-2.8113,-3.0127,-3.2141,-3.4037,-3.525,-3.5926,-3.6062,-3.5752,-3.538,-3.4928,-3.3947,-3.3186,-3.275,-3.1326,-3.0192,-2.9467,-2.7858,-2.5795,0.0,0.0,0.0,0.0,0.0,0.0,0.0,0.0,0.0,0.0,0.0,-1.594,0.0,0.0,0.0,0.0,-1.9181,-2.1059,-2.2516,-2.3071,0.0,0.0,0.0,0.0,0.0,0.0,0.0,-3.2763,-3.4895,-3.6603,-3.754,-3.7499,-3.7381,-3.7398,-3.7297,-3.7432,-3.8031,0.0,-3.7922,-3.865,-3.914,-3.9453,-3.9428,-3.9056,-3.9073,-3.996,-4.0113,-4.0113,-4.0113,-4.0113,-4.0113,-4.0113,-4.0113,-4.0197,-4.0485,-3.9783,-3.9106,-3.8836,-3.9131,-3.9436,-3.9453,-3.9791,-4.0113,-4.4333,-4.3477,-4.1465,-4.0468,-4.0333,-4.1018,-4.1271,-4.1288,-4.1288,-4.1677,-4.2185,-4.0899,-3.9521,-3.8125,-3.6062,0.0,0.0,-3.755,-3.8514,-3.9174,-3.98,-4.0113,-4.0113,-4.0096,-4.0113,-4.0096,-4.0113,-4.0113,-4.0045,-3.9419,-3.8024,-3.5977,-3.3935,-3.3123,-3.3525,-3.4269,-3.5402,-3.6846,-3.7533,-3.7567,-3.6897,-3.6113,-3.565,-3.5583,-3.4163,-3.3372,-3.3271,-3.1952,-3.0869,-3.0142,-2.9399,-2.769,-2.4829,0.0,0.0,0.0,0.0,0.0,0.0,0.0,0.0,0.0,0.0,0.0,0.0,0.0,0.0,0.0,-2.356,0.0,-2.6843,-2.8856,0.0,0.0,0.0,-3.1461,-3.1698,-3.3525,-3.5047,-3.5808,0.0,0.0,0.0,0.0,-4.0096,-4.0113,-3.8945,-3.8565,-3.9926,-3.9462,-3.9309,-3.991,-4.0079,-4.0096,-4.0028,-4.0011,-4.0028,-4.0231,-4.0197,-4.0265,-4.035,-4.0367,-4.0316,-4.0367,-4.0282,-4.0493,-4.1187,-4.1221,-4.1068,-4.04,-4.0299,-4.0316,-4.035,-4.0367,-4.0417,-4.616,-4.594,-4.5415,-4.3876,-4.1796,-4.1965,-4.2033,-4.2033,-4.2033,-4.2134,-4.2269,-4.1931,-4.1576,-4.1221,-4.0663,-4.0544,-4.0713,-4.051,-4.051,-4.0646,-4.0282,-4.0113,-4.0113,-4.0113,-4.0113,-4.0113,-4.0113,-4.0113,-4.0096,-3.9926,-3.9571,-3.9046,-3.8505,-3.6914,-3.437,-3.5577,-3.6705,-3.7635,-3.7821,-3.7821,-3.7635,-3.6907,-3.6214,-3.56,-3.4163,-3.3136,-3.2581,-3.1681,-3.0852,-3.0125,-2.9381,-2.813,-2.6268,-2.3562,0.0,0.0,0.0,0.0,0.0,0.0,0.0,0.0,0.0,-2.2598,-1.8685,0.0,-2.473,0.0,-2.6623,-2.8316,-2.9194,-2.977,0.0,0.0,-3.3119,-3.3795,-3.6045,-3.6772,-3.7381,-3.8108,-3.914,-3.9842,-3.9842,-3.9994,-4.0113,-4.0096,-3.9808,-3.9706,-4.0062,-3.9977,-3.9893,-4.0062,-4.0113,-4.0113,-4.013,-4.0113,-4.0333,-4.0849,-4.0933,-4.1119,-4.166,-4.1788,-4.1788,-4.1788,-4.1779,-4.1863,-4.1999,-4.2033,-4.1982,-4.1796,-4.1788,-4.1788,-4.1762,-4.1745,-4.1788,-4.7293,-4.7259,-4.6938,-4.5821,-4.4316,-4.4299,-4.4113,-4.3809,-4.3809,-4.3623,-4.3295,-4.2946,-4.2608,-4.2303,-4.2303,-4.2303,-4.2269,-4.188,-4.1694,-4.166,-4.1271,-4.0882,-4.0595,-4.0578,-4.0434,-4.0113,-4.0113,-4.0113,-4.0113,-4.0113,-4.0113,-4.0113,-4.0113,-3.9063,-3.7134,-3.7845,-3.8464,-3.8853,-3.8565,-3.8396,-3.8362,-3.733,-3.64,-3.56,-3.4506,-3.3372,-3.2327,-3.1904,-3.121,-3.0156,-2.9702,-2.8805,-2.7249,-2.5338,-2.4105,0.0,0.0,0.0,0.0,0.0,0.0,0.0,0.0,0.0,0.0,0.0,-2.823,0.0,-3.033,0.0,-3.2966,-3.3677,-3.4726,-3.6315,-3.6434,-3.7043,-3.87,-3.9174,-3.9665,-4.0375,-4.0815,-4.1094,-4.1094,-4.1094,-4.1094,-4.1077,-4.1094,-4.084,-4.0231,-4.0113,-4.0113,-4.0113,-4.0113,-4.0248,-4.0536,-4.0874,-4.123,-4.1593,-4.1694,-4.1847,-4.2219,-4.2303,-4.2303,-4.2303,-4.2303,-4.2422,-4.2709,-4.2794,-4.2878,-4.3234,-4.3328,-4.3075,-4.2439,-4.2303,-4.2303,-4.8024,-4.8003,-4.7344,-4.7073,-4.7073,-4.7073,-4.6616,-4.5855,-4.5838,-4.5432,-4.4716,-4.3995,-4.3284,-4.2591,-4.2574,-4.2591,-4.2601,-4.2489,-4.2439,-4.2422,-4.2337,-4.1965,-4.1339,-4.1356,-4.095,-4.0265,-4.0248,-4.0197,-4.0113,-4.0113,-4.0113,-4.0113,-4.0113,-4.0113,-4.0113,-4.0113,-4.0113,-4.0096,-3.9486,-3.9165,-3.9106,-3.7794,-3.6654,-3.5769,-3.4928,-3.3816,-3.2378,-3.2293,-3.1684,-3.0345,-3.0345,-2.9736,-2.8314,-2.7554,-2.6843,0.0,-2.5558,0.0,0.0,0.0,0.0,0.0,0.0,0.0,0.0,-3.1058,-3.2239,-3.2699,-3.4235,-3.5707,-3.6981,-3.8396,-3.9276,-3.9292,-3.9943,-4.0383,-4.0417,-4.0933,-4.1576,-4.2219,-4.2303,-4.2286,-4.2236,-4.2303,-4.2286,-4.2202,-4.2168,-4.1745,-4.0705,-4.0485,-4.0502,-4.0383,-4.0383,-4.0773,-4.1255,-4.1847,-4.2252,-4.2371,-4.2439,-4.2472,-4.2642,-4.2685,-4.2651,-4.2668,-4.2692,-4.2861,-4.3453,-4.3572,-4.3792,-4.4378,-4.4462,-4.409,-4.3031,-4.2726,-4.2574,-4.8798,-4.8781,-4.8646,-4.8595,-4.8578,-4.8595,-4.7817,-4.6599,-4.6599,-4.6177,-4.55,-4.5331,-4.484,-4.4192,-4.4175,-4.4158,-4.4141,-4.3487,-4.3172,-4.3183,-4.2574,-4.2219,-4.2083,-4.2083,-4.1711,-4.1018,-4.1001,-4.0679,-4.0113,-4.0113,-4.0113,-4.0113,-4.0113,-4.0113,-4.0113,0.0,0.0,0.0,-3.996,-3.9893,-3.9876,-3.9046,-3.7922,-3.6609,-3.5216,0.0,-3.2395,-3.2293,-3.1904,-3.1072,-3.1565,0.0,0.0,0.0,0.0,0.0,0.0,0.0,0.0,0.0,0.0,0.0,-3.2391,-3.1715,-3.1769,-3.4692,-3.618,-3.5182,-3.7432,-3.8928,-3.8616,-3.9918,-4.0781,-4.0815,-4.1441,-4.1863,-4.188,-4.1999,-4.2168,-4.2269,-4.2303,-4.2303,-4.2354,-4.2303,-4.232,-4.2388,-4.2303,-4.2185,-4.1974,-4.183,-4.1847,-4.1907,-4.1779,-4.1924,-4.2066,-4.2252,-4.2642,-4.3014,-4.3217,-4.3436,-4.3927,-4.4107,-4.4141,-4.4107,-4.4175,-4.4158,-4.4344,-4.435,-4.435,-4.4553,-4.4598,-4.453,-4.4242,-4.4158,-4.4175,-4.934,0.0,-4.9018,-4.9018,0.0,-4.9018,-4.8578,-4.7851,-4.7496,-4.6938,-4.6244,-4.6244,-4.5821,-4.5128,-4.5145,-4.4925,-4.4598,-4.4164,-4.3995,-4.3978,-4.3606,-4.3217,-4.2844,-4.2844,-4.2472,-4.1745,-4.139,-4.1018,-4.0629,-4.0282,-4.0113,-4.0113,-4.0113,-4.0113,-4.0113,-4.0113,-4.0113,-4.0113,-4.0113,-4.0113,-4.0079,-3.936,-3.8464,-3.7381,0.0,0.0,0.0,0.0,0.0,0.0,0.0,0.0,0.0,0.0,0.0,-3.3355,-3.3406,-3.3575,-3.3947,-3.4303,-3.5148,-3.6586,-3.6705,-3.6248,-3.5148,-3.7144,-3.8447,-3.843,-3.9766,-4.0629,-4.0646,-4.1288,-4.1745,-4.1745,-4.2083,-4.2422,-4.2777,-4.2844,-4.2997,-4.3352,-4.3447,-4.3447,-4.3447,-4.3447,-4.3447,-4.3447,-4.343,-4.3403,-4.3362,-4.2743,-4.2303,-4.232,-4.2658,-4.2844,-4.2895,-4.3234,-4.3532,-4.391,-4.3995,-4.4147,-4.453,-4.4598,-4.4598,-4.4598,-4.4598,-4.4598,-4.4598,-4.4598,-4.4598,-4.4598,-4.4598,-4.4598,-4.4598,-4.4598,-4.4598,-4.9949,-4.939,-4.9255,-4.9204,-4.9187,-4.9052,-4.9018,-4.8951,0.0,0.0,0.0,-4.6989,-4.6583,-4.5906,-4.5889,-4.5483,-4.4818,-4.4801,-4.4733,-4.4598,-4.4598,-4.4248,-4.3595,-4.3639,-4.3234,-4.2489,-4.188,-4.1525,-4.1373,-4.0646,-4.0299,-4.0282,-4.018,-4.0113,-4.0113,-4.0113,-4.0113,-4.0113,-4.0113,-4.0113,-4.0096,-3.952,-3.8836,-3.8125,-3.7973,-3.7246,-3.587,-3.6434,-3.5932,-3.415,-3.4709,-3.4827,-3.4269,-3.4759,-3.5656,-3.688,-3.7134,-3.7472,-3.8058,-3.8227,-3.8599,-3.9343,-3.9943,-3.9766,-3.8582,-3.9039,-3.9935,-4.1288,-4.1407,-4.1644,-4.2219,-4.2422,-4.2489,-4.2489,-4.2608,-4.2963,-4.3521,-4.3595,-4.3859,-4.4479,-4.453,-4.4581,-4.453,-4.4513,-4.4598,-4.4581,-4.4462,-4.4598,-4.4462,-4.3565,-4.2844,-4.2895,-4.3318,-4.3623,-4.3707,-4.4062,-4.4564,-4.4513,-4.4564,-4.4598,-4.4598,-4.4598,-4.4598,-4.4598,-4.4598,-4.4598,-4.4598,-4.4598,-4.4666,-4.4784,-4.4818,-4.4852,-4.497,-4.5004,-4.497,-5.0965,-5.0845,-5.0202,-4.9932,-4.9881,-4.9272,-4.9018,-4.8984,-4.89,-4.8443,-4.7736,-4.772,-4.7344,-4.665,-4.665,-4.6244,-4.5568,-4.5551,-4.5213,0.0,-4.4598,-4.4547,-4.4445,-4.4418,-4.4012,-4.3274,-4.3149,-4.276,-4.2117,-4.139,-4.1052,-4.095,-4.0417,-4.0113,-4.0113,-4.0113,-4.0113,-4.0113,-4.0113,-4.0113,-4.0113,-3.9994,-3.958,-3.8853,-3.8244,-3.7516,-3.6694,-3.6761,-3.666,-3.6372,-3.7026,-3.7381,-3.728,-3.7347,-3.7533,-3.7753,-3.8345,-3.8734,-3.8853,-3.9436,-4.0104,-4.0815,-4.1001,-4.095,-4.0781,-4.0832,-4.1238,-4.2049,-4.2134,-4.2168,-4.2347,-4.2895,-4.325,-4.3318,-4.3842,-4.4344,-4.4367,-4.4367,-4.4418,-4.4581,-4.4598,-4.4598,-4.4598,-4.4598,-4.4598,-4.4598,-4.4598,-4.4598,-4.4564,-4.4445,-4.4293,-4.4276,-4.4361,-4.4445,-4.4378,-4.4479,-4.4598,-4.4598,-4.4598,-4.4598,-4.4598,-4.4598,-4.4598,-4.4598,-4.4649,-4.4666,-4.4649,-4.4598,-4.4953,-4.5399,-4.5534,-4.5703,-4.6177,-4.6358,-4.6024,-5.1589,-5.1168,-5.0845,-5.0693,-5.0642,-4.9915,-4.9373,-4.9018,-4.9018,-4.8815,-4.8528,-4.8494,-4.8105,-4.7428,-4.7394,-4.7005,-4.6278,-4.5889,-4.5517,-4.5162,-4.4801,-4.4598,-4.4598,-4.4598,-4.4384,-4.4028,-4.3623,-4.3206,-4.2861,-4.2151,-4.1593,-4.1187,-4.0485,-4.0113,-4.0113,-4.0113,-4.0113,-4.0113,-4.0113,-4.0113,-4.0113,-4.0113,-3.996,-3.9622,-3.9242,-3.892,-3.8606,-3.8606,-3.8403,-3.799,-3.87,-3.892,-3.8531,-3.887,-3.9073,-3.9089,-3.9419,-3.9605,-3.9605,-4.0273,-4.1018,-4.1728,-4.1796,-4.1982,-4.2388,-4.2016,-4.21,-4.2811,-4.2895,-4.3081,-4.3515,-4.3842,-4.4062,-4.4045,-4.4412,-4.4581,-4.4598,-4.4598,-4.4598,-4.4598,-4.4598,-4.4598,-4.4598,-4.4598,-4.4598,-4.4598,-4.4598,-4.4598,-4.4598,-4.4598,-4.4598,-4.4598,-4.4598,-4.4598,-4.4598,-4.4598,-4.4598,-4.4598,-4.4598,-4.4598,-4.4598,-4.4615,-4.4615,-4.4632,-4.4891,-4.5162,-4.5196,-4.5534,-4.5889,-4.6126,-4.6295,-4.6498,-4.6718,-4.6786,-4.6532,-5.2249,-5.1742,-5.1506,-5.1369,-5.1134,-5.0591,-4.9915,-4.9272,-4.9255,-4.9154,-4.9018,-4.9018,-4.868,-4.8159,-4.8142,-4.775,-4.7039,-4.6464,-4.6109,-4.5889,-4.5179,-4.484,-4.4835,-4.4699,-4.4598,-4.4547,-4.3961,-4.369,-4.3606,-4.2912,-4.2185,-4.1441,-4.0696,-4.0367,-4.035,-4.018,-4.0113,-4.0113,-4.0113,-4.0113,-4.0113,-4.0113,-4.0113,-4.0113,-4.0096,-4.0113,-4.0113,-4.0113,-3.9842,-3.9309,-3.9808,-3.9859,-3.9326,-3.9791,-4.0113,-4.0113,-4.0265,-4.0451,-4.062,-4.1119,-4.1762,-4.2472,-4.254,-4.2878,-4.3521,-4.3149,-4.3031,-4.3572,-4.3673,-4.3927,-4.4412,-4.4564,-4.4598,-4.4598,-4.4598,-4.4598,-4.4598,-4.4598,-4.4598,-4.4598,-4.4598,-4.4598,-4.4598,-4.4598,-4.4598,-4.4598,-4.4598,-4.4598,-4.4615,-4.4716,-4.4823,-4.4835,-4.4733,-4.4598,-4.4598,-4.4773,-4.484,-4.4852,-4.5072,-4.5207,-4.5224,-4.5156,-4.5139,-4.5275,-4.5568,-4.5889,-4.5991,-4.6346,-4.6752,-4.6955,-4.7056,-4.7124,-4.7361,-4.7428,-4.7124,-5.3331,-5.3179,-5.2486,-5.1809,-5.1219,-5.115,-5.0676,-5.0033,-4.9982,-4.961,-4.9069,-4.9018,-4.8968,-4.8917,-4.8883,-4.8477,-4.7804,-4.7703,-4.7327,-4.6667,-4.594,-4.5602,-4.5517,-4.4936,-4.4598,-4.4598,-4.4496,-4.4401,-4.4367,-4.3656,-4.2929,-4.2185,-4.1457,-4.1102,-4.1035,-4.0468,-4.013,-4.0113,-4.0113,-4.0113,-4.0113,-4.0113,-4.0113,-4.0113,-4.0113,-4.0113,-4.0113,-4.0113,-4.0079,-4.0011,-4.0062,-4.0062,-4.0011,-4.0079,-4.0113,-4.0163,-4.073,-4.1373,-4.1999,-4.2151,-4.2523,-4.32,-4.3291,-4.3623,-4.435,-4.4401,-4.4395,-4.4468,-4.4496,-4.4564,-4.4598,-4.4666,-4.4767,-4.4801,-4.475,-4.4598,-4.4699,-4.4598,-4.4598,-4.4598,-4.4784,-4.4615,-4.4784,-4.4784,-4.4716,-4.4835,-4.4886,-4.4869,-4.4886,-4.5263,-4.5602,-4.5483,-4.5106,-4.475,-4.4801,-4.5196,-4.5517,-4.5652,-4.6126,-4.6329,-4.6329,-4.6397,-4.6549,-4.6177,-4.6566,-4.6684,-4.6684,-4.6802,-4.7124,-4.7665,-4.7851,-4.7986,-4.8578,-4.868,-4.824,-5.3518,-5.3484,-5.3145,-5.257,-5.1911,-5.186,-5.1437,-5.0744,-5.027,-4.9915,-4.961,-4.9187,-4.9018,-4.9018,-4.9018,-4.8832,-4.8528,-4.8122,-4.7767,-4.7394,-4.6701,-4.6143,-4.5686,-4.5415,-4.5026,-4.4632,-4.4598,-4.4598,-4.4462,-4.3792,-4.3223,-4.2912,-4.2202,-4.183,-4.1813,-4.1542,-4.1416,-4.1399,-4.1416,-4.1187,-4.0747,-4.0333,-4.0113,-4.0113,-4.0113,-4.0113,-4.0113,-4.0113,-4.0113,-4.0113,-4.0113,-4.0299,-4.073,-4.0747,-4.0933,-4.1382,-4.1677,-4.2185,-4.2895,-4.2963,-4.3284,-4.4045,-4.4113,-4.4248,-4.4598,-4.4976,-4.5246,-4.5246,-4.5246,-4.5246,-4.528,-4.5618,-4.5889,-4.5918,-4.5889,-4.5901,-4.5889,-4.5889,-4.5889,-4.5889,-4.5889,-4.5855,-4.5918,-4.5918,-4.5918,-4.5918,-4.5901,-4.5805,-4.5889,-4.616,-4.6312,-4.6312,-4.6058,-4.5923,-4.5872,-4.6109,-4.6329,-4.6397,-4.6566,-4.6786,-4.6853,-4.6786,-4.6769,-4.6819,-4.7192,-4.7428,-4.7445,-4.7868,-4.8257,-4.848,-4.8545,-4.868,-4.8951,-4.9001,-4.8646,-5.3518,-5.3518,-5.3518,-5.3162,-5.2655,-5.2638,-5.2198,-5.1505,-5.093,-5.0591,-5.0321,-4.9627,-4.9306,-4.9272,-4.9103,-4.9018,-4.8934,-4.8443,-4.8223,-4.8122,-4.7428,-4.6819,-4.6312,-4.5855,-4.5415,-4.4925,-4.4699,-4.4598,-4.4547,-4.4045,-4.3741,-4.3623,-4.298,-4.2608,-4.2591,-4.2422,-4.2303,-4.2286,-4.2303,-4.2033,-4.1491,-4.0976,-4.0519,-4.0163,-4.0299,-4.0417,-4.0417,-4.0578,-4.0705,-4.0705,-4.0705,-4.0959,-4.1441,-4.1508,-4.183,-4.2506,-4.2591,-4.2929,-4.369,-4.3741,-4.3978,-4.4547,-4.4767,-4.4902,-4.5038,-4.5585,-4.5974,-4.6024,-4.6177,-4.6295,-4.6092,-4.6481,-4.6769,-4.6786,-4.6786,-4.6786,-4.6752,-4.6786,-4.6735,-4.6786,-4.665,-4.6786,-4.6769,-4.6718,-4.6667,-4.6684,-4.6718,-4.6786,-4.6836,-4.6921,-4.7107,-4.7124,-4.7242,-4.7175,-4.6938,-4.6989,-4.7039,-4.7175,-4.7276,-4.753,-4.7394,-4.7411,-4.7411,-4.7868,-4.8071,-4.8156,-4.8189,-4.868,-4.8951,-4.8984,-4.8984,-4.8968,-4.9001,-4.9018,-4.9018,-5.3518,-5.3518,-5.3518,-5.3484,-5.3433,-5.3416,-5.2993,-5.2249,-5.2164,-5.1792,-5.1116,-5.0388,-5.0033,-4.9949,-4.934,-4.9018,-4.9001,-4.8934,-4.8883,-4.8832,-4.8189,-4.7821,-4.7686,-4.6413,-4.5703,-4.5517,-4.4959,-4.4666,-4.4615,-4.4564,-4.4564,-4.4479,-4.3724,-4.3341,-4.3301,-4.2743,-4.2337,-4.2472,-4.2472,-4.232,-4.2252,-4.2202,-4.1517,-4.0434,-4.0781,-4.1153,-4.1221,-4.1813,-4.2178,-4.2168,-4.21,-4.2168,-4.2236,-4.2252,-4.2625,-4.3267,-4.3369,-4.3724,-4.4401,-4.4564,-4.4632,-4.475,-4.5314,-4.5652,-4.5703,-4.6329,-4.6718,-4.6752,-4.7344,-4.7496,-4.6955,-4.6989,-4.6989,-4.6955,-4.6887,-4.6904,-4.687,-4.7022,-4.6836,-4.6904,-4.6989,-4.7056,-4.6904,-4.6786,-4.6955,-4.6972,-4.6887,-4.6921,-4.709,-4.7496,-4.7817,-4.8003,-4.8257,-4.8409,-4.7242,-4.7445,-4.7817,-4.7919,-4.8223,-4.8697,-4.8866,-4.8917,-4.8832,-4.8781,-4.8765,-4.8798,-4.89,-4.8968,-4.8984,-4.9018,-4.9018,-4.9001,-4.9018,-4.9018,-4.9018,-5.3518,-5.3518,-5.3518,-5.3518,-5.3518,-5.3518,-5.3331,-5.3027,-5.2536,-5.2164,-5.1809,-5.1133,-5.0541,-5.0067,-4.9813,-4.9441,-4.9035,-4.9018,-4.9018,-4.8968,-4.8731,-4.8345,-4.7855,-4.7314,-4.6566,-4.5771,-4.5432,-4.5043,-4.4632,-4.4598,-4.4598,-4.4581,-4.4344,-4.4164,-4.4113,-4.3921,-4.3785,-4.3785,-4.3785,-4.3521,-4.3047,-4.3014,-4.2523,-4.1619,-4.1771,-4.1897,-4.1914,-4.2151,-4.2303,-4.2303,-4.2303,-4.2523,-4.2997,-4.347,-4.3887,-4.413,-4.4147,-4.4502,-4.5162,-4.5314,-4.5517,-4.5957,-4.6227,-4.6397,-4.6532,-4.7056,-4.7513,-4.7631,-4.8173,-4.8409,-4.8308,-4.8206,-4.8206,-4.8206,-4.8189,-4.8139,-4.8206,-4.8206,-4.8206,-4.8206,-4.8189,-4.8206,-4.8105,-4.8189,-4.8206,-4.8206,-4.8206,-4.8156,-4.8206,-4.846,-4.8578,-4.8629,-4.8798,-4.8832,-4.8426,-4.8392,-4.8612,-4.8663,-4.8849,-4.8883,-4.8984,-4.9001,-4.89,-4.8883,-4.9001,-4.9001,-4.8984,-4.8984,-4.9018,-4.9018,-4.9018,-4.9018,-4.9018,-4.9018,-4.9018,-5.3518,-5.3518,-5.3518,-5.3518,-5.3518,-5.3518,-5.3518,-5.3433,-5.2926,-5.2689,-5.2553,-5.1911,-5.1285,-5.076,-5.0304,-4.9847,-4.9357,-4.912,-4.9018,-4.9018,-4.9018,-4.8748,-4.8277,-4.799,-4.7382,-4.6447,-4.5889,-4.5415,-4.4959,-4.4705,-4.4598,-4.4598,-4.4598,-4.4598,-4.4598,-4.4598,-4.4598,-4.4598,-4.4598,-4.4282,-4.3842,-4.3809,-4.3555,-4.3115,-4.3058,-4.2895,-4.2675,-4.2878,-4.3031,-4.3058,-4.3041,-4.3267,-4.3792,-4.4282,-4.4733,-4.4936,-4.4959,-4.5263,-4.5923,-4.6058,-4.6261,-4.6752,-4.7039,-4.7158,-4.7208,-4.7851,-4.8176,-4.8392,-4.8663,-4.9018,-4.9018,-4.8984,-4.9018,-4.9018,-4.9018,-4.9018,-4.9018,-4.8984,-4.8968,-4.8934,-4.89,-4.8968,-4.9018,-4.8984,-4.8951,-4.9018,-4.9018,-4.9018,-4.9018,-4.9018,-4.9018,-4.9001,-4.8968,-4.9001,-4.8798,-4.8798,-4.8849,-4.8917,-4.8917,-4.8984,-4.9018,-4.9018,-4.9018,-4.9018,-4.9018,-4.9018,-4.9018,-4.9018,-4.9018,-4.9018,-4.9018,-4.9018,-4.9018,-4.9018,-4.9018,-5.3518,-5.3518,-5.3518,-5.3518,-5.3518,-5.3518,-5.3518,-5.3501,-5.3467,-5.3382,-5.3247,-5.2638,-5.2232,-5.1928,-5.0777,-5.0101,-4.9881,-4.9306,-4.9018,-4.9018,-4.9018,-4.9001,-4.8883,-4.8308,-4.7936,-4.7631,-4.6397,-4.5754,-4.5686,-4.506,-4.4716,-4.4649,-4.4649,-4.4598,-4.4598,-4.4598,-4.4598,-4.4598,-4.4598,-4.4553,-4.4581,-4.4513,-4.4462,-4.4445,-4.4429,-4.4079,-4.347,-4.4079,-4.4395,-4.4445,-4.4462,-4.4581,-4.4581,-4.4682,-4.4942,-4.5585,-4.5703,-4.6058,-4.6684,-4.6802,-4.6819,-4.7107,-4.7564,-4.7889,-4.8003,-4.8494,-4.8883,-4.89,-4.8934,-4.9018,-4.9018,-4.9018,-4.9018,-4.9018,-4.9018,-4.9018,-4.9018,-4.9018,-4.9018,-4.9018,-4.9018,-4.9018,-4.9018,-4.9018,-4.9018,-4.9018,-4.9018,-4.9018,-4.9018,-4.9018,-4.9018,-4.9018,-4.9018,-4.9018,-4.9018,-4.9001,-4.9001,-4.9001,-4.8984,-4.9018,-4.9018,-4.9018,-4.9018,-4.9018,-4.9018,-4.9018,-4.9018,-4.9018,-4.9018,-4.9018,-4.9018,-4.9018,-4.9018,-4.9018,-4.9018,-5.3518,-5.3518,-5.3518,-5.3518,-5.3518,-5.3518,-5.3518,-5.3518,-5.3518,-5.3518,-5.3467,-5.3247,-5.2841,-5.2181,-5.1268,-5.0574,-5.005,-4.9357,-4.9018,-4.9018,-4.9018,-4.9018,-4.8968,-4.8781,-4.8379,-4.7804,-4.6921,-4.6447,-4.6312,-4.5703,-4.5365,-4.528,-4.484,-4.4615,-4.4632,-4.4598,-4.4598,-4.4598,-4.4598,-4.4598,-4.4598,-4.4598,-4.4598,-4.4598,-4.4598,-4.4462,-4.4265,-4.4479,-4.4598,-4.4615,-4.4598,-4.4835,-4.5229,-4.5348,-4.5703,-4.6346,-4.6447,-4.6786,-4.7428,-4.7581,-4.7784,-4.8206,-4.8545,-4.8646,-4.8663,-4.8849,-4.9018,-4.9018,-4.9018,-4.9018,-4.9018,-4.9018,-4.9018,-4.9018,-4.9018,-4.9018,-4.9018,-4.9018,-4.9018,-4.9018,-4.9018,-4.9018,-4.9018,-4.9018,-4.9018,-4.9018,-4.9018,-4.9018,-4.9018,-4.9018,-4.9018,-4.9018,-4.9018,-4.9018,-4.9018,-4.9018,-4.9018,-4.9018,-4.9018,-4.9018,-4.9018,-4.9018,-4.9018,-4.9018,-4.9018,-4.9018,-4.9018,-4.9018,-4.9018,-4.9018,-4.9018,-4.9018,-4.9018,-4.9018,-4.9018,-5.3518,-5.3518,-5.3518,-5.3518,-5.3518,-5.3518,-5.3518,-5.3518,-5.3518,-5.3518,-5.3518,-5.3501,-5.323,-5.2655,-5.1944,-5.12,-5.0473,-4.9746,-4.9255,-4.9035,-4.9018,-4.9018,-4.9018,-4.9018,-4.8815,-4.8274,-4.7564,-4.7208,-4.7158,-4.6481,-4.6109,-4.5974,-4.5365,-4.501,-4.4987,-4.4733,-4.4598,-4.4598,-4.4598,-4.4598,-4.4598,-4.4598,-4.4598,-4.4632,-4.484,-4.4993,-4.5026,-4.5275,-4.5309,-4.5139,-4.5229,-4.5652,-4.6075,-4.6126,-4.643,-4.7039,-4.7259,-4.753,-4.8206,-4.8325,-4.8494,-4.8917,-4.9018,-4.9001,-4.9001,-4.9001,-4.9018,-4.9018,-4.9018,-4.9018,-4.9018,-4.9018,-4.9018,-4.9018,-4.9018,-4.9018,-4.9018,-4.9018,-4.9018,-4.9018,-4.9018,-4.9018,-4.9018,-4.9018,-4.9018,-4.9018,-4.9018,-4.9018,-4.9018,-4.9018,-4.9018,-4.9018,-4.9018,-4.9018,-4.9018,-4.9018,-4.9018,-4.9018,-4.9018,-4.9018,-4.9018,-4.9018,-4.9018,-4.9018,-4.9018,-4.9018,-4.9018,-4.9018,-4.9018,-4.9018,-4.9018,-4.9018,-4.9018,-4.9018,-4.9018,-5.3518,-5.3518,-5.3518,-5.3518,-5.3518,-5.3518,-5.3518,-5.3518,-5.3518,-5.3518,-5.3518,-5.3518,-5.3484,-5.3298,-5.2536,-5.1775,-5.115,-5.0355,-4.9593,-4.9154,-4.9018,-4.9018,-4.9018,-4.9018,-4.8951,-4.8815,-4.8244,-4.7986,-4.7906,-4.7225,-4.6853,-4.6769,-4.616,-4.5771,-4.5669,-4.506,-4.4886,-4.4953,-4.4869,-4.4869,-4.4869,-4.4835,-4.4835,-4.4902,-4.5432,-4.5771,-4.5838,-4.6363,-4.6464,-4.5957,-4.6312,-4.6633,-4.6819,-4.6853,-4.7192,-4.7872,-4.797,-4.8261,-4.8815,-4.8883,-4.8917,-4.8984,-4.9018,-4.9018,-4.9018,-4.9018,-4.9018,-4.9018,-4.9018,-4.9018,-4.9018,-4.9018,-4.9018,-4.9018,-4.9018,-4.9018,-4.9018,-4.9018,-4.9018,-4.9018,-4.9018,-4.9018,-4.9018,-4.9018,-4.9018,-4.9018,-4.9018,-4.9018,-4.9018,-4.9018,-4.9018,-4.9018,-4.9018,-4.9018,-4.9018,-4.9018,-4.9018,-4.9018,-4.9018,-4.9018,-4.9018,-4.9018,-4.9018,-4.9018,-4.9018,-4.9018,-4.9018,-4.9018,-4.9018,-4.9018,-4.9018,-4.9018,-4.9018,-4.9018,-4.9018,-5.3518,-5.3518,-5.3518,-5.3518,-5.3518,-5.3518,-5.3518,-5.3518,-5.3518,-5.3518,-5.3518,-5.3518,-5.3518,-5.3416,-5.2672,-5.1911,-5.1217,-5.0473,-4.9695,-4.9103,-4.9018,-4.9018,-4.9018,-4.9018,-4.9018,-4.8968,-4.8781,-4.8714,-4.8663,-4.797,-4.7631,-4.7597,-4.6887,-4.6515,-4.643,-4.6261,-4.621,-4.621,-4.6177,-4.616,-4.6143,-4.6143,-4.621,-4.6227,-4.6397,-4.6515,-4.6583,-4.7225,-4.7276,-4.6599,-4.665,-4.7073,-4.7547,-4.7614,-4.7936,-4.8511,-4.8697,-4.8765,-4.8934,-4.9018,-4.9018,-4.9018,-4.9018,-4.9018,-4.9018,-4.9018,-4.9018,-4.9018,-4.9018,-4.9069,-4.9052,-4.9052,-4.9035,-4.9018,-4.9018,-4.9018,-4.9018,-4.9018,-4.9018,-4.9018,-4.9018,-4.9018,-4.9018,-4.9018,-4.9018,-4.9018,-4.9018,-4.9018,-4.9018,-4.9018,-4.9018,-4.9018,-4.9018,-4.9018,-4.9018,-4.9018,-4.9018,-4.9018,-4.9018,-4.9018,-4.9018,-4.9018,-4.9018,-4.9018,-4.9018,-4.9018,-4.9018,-4.9018,-4.9018,-4.9018,-4.9018,-4.9018,-4.9018,-4.9018,-4.9018,-5.3518,-5.3518,-5.3518,-5.3518,-5.3518,-5.3518,-5.3518,-5.3518,-5.3518,-5.3518,-5.3518,-5.3518,-5.3518,-5.345,-5.301,-5.2384,-5.164,-5.0913,-5.0168,-4.9509,-4.9154,-4.9018,-4.9018,-4.9018,-4.9018,-4.9018,-4.9018,-4.9001,-4.8934,-4.8562,-4.8392,-4.824,-4.7631,-4.7293,-4.7225,-4.6921,-4.6802,-4.6752,-4.6786,-4.6786,-4.6786,-4.6786,-4.6769,-4.687,-4.7056,-4.7361,-4.7716,-4.8156,-4.802,-4.7513,-4.7547,-4.7919,-4.8291,-4.8345,-4.8578,-4.9001,-4.9018,-4.9001,-4.9018,-4.9018,-4.9018,-4.9018,-4.9018,-4.9018,-4.9086,-4.9238,-4.9458,-4.9475,-4.9712,-4.9915,-4.9864,-4.9661,-4.9475,-4.9458,-4.9187,-4.9035,-4.9018,-4.9018,-4.9018,-4.9018,-4.9018,-4.9018,-4.9018,-4.9018,-4.9018,-4.9018,-4.9018,-4.9018,-4.9018,-4.9018,-4.9018,-4.9018,-4.9018,-4.9018,-4.9018,-4.9018,-4.9018,-4.9018,-4.9018,-4.9018,-4.9018,-4.9018,-4.9018,-4.9018,-4.9018,-4.9018,-4.9018,-4.9018,-4.9018,-4.9018,-4.9018,-4.9018,-4.9018,-4.9018,-4.9018,-5.3518,-5.3518,-5.3518,-5.3518,-5.3518,-5.3518,-5.3518,-5.3518,-5.3518,-5.3518,-5.3518,-5.3518,-5.3518,-5.3518,-5.3382,-5.3027,-5.2232,-5.142,-5.0625,-4.9881,-4.9306,-4.9018,-4.9018,-4.9018,-4.9018,-4.9018,-4.9018,-4.9018,-4.8984,-4.8951,-4.8968,-4.8781,-4.8291,-4.8041,-4.7906,-4.7445,-4.709,-4.7192,-4.7276,-4.7293,-4.7293,-4.7293,-4.731,-4.7378,-4.775,-4.8257,-4.868,-4.8917,-4.8629,-4.8054,-4.8663,-4.8849,-4.8951,-4.8984,-4.8984,-4.9001,-4.9018,-4.9018,-4.9018,-4.9018,-4.9018,-4.9018,-4.9018,-4.9069,-4.9238,-4.9678,-5.0033,-5.0202,-5.0811,-5.0963,-5.0947,-5.0524,-5.0168,-4.9965,-4.9458,-4.9171,-4.9018,-4.9018,-4.9018,-4.9018,-4.9018,-4.9018,-4.9018,-4.9018,-4.9018,-4.9018,-4.9018,-4.9018,-4.9018,-4.9018,-4.9018,-4.9018,-4.9018,-4.9018,-4.9018,-4.9018,-4.9018,-4.9018,-4.9018,-4.9018,-4.9018,-4.9018,-4.9018,-4.9018,-4.9018,-4.9018,-4.9018,-4.9018,-4.9018,-4.9018,-4.9018,-4.9018,-4.9018,-4.9018,-4.9018,-5.3518,-5.3518,-5.3518,-5.3518,-5.3518,-5.3518,-5.3518,-5.3518,-5.3518,-5.3518,-5.3518,-5.3518,-5.3518,-5.3518,-5.3484,-5.3061,-5.2334,-5.1555,-5.0541,-4.9306,-4.912,-4.9018,-4.9018,-4.9018,-4.9018,-4.9018,-4.9018,-4.9018,-4.9018,-4.9018,-4.9018,-4.8951,-4.8832,-4.8765,-4.8663,-4.8494,-4.8528,-4.8528,-4.8477,-4.8409,-4.8376,-4.8392,-4.8392,-4.8426,-4.8612,-4.8781,-4.8951,-4.9018,-4.8917,-4.8849,-4.89,-4.9018,-4.9018,-4.9018,-4.9018,-4.9018,-4.9018,-4.9018,-4.9018,-4.9018,-4.9018,-4.9018,-4.9086,-4.9238,-4.983,-5.0016,-5.0439,-5.0811,-5.11,-5.1386,-5.1369,-5.1133,-5.0727,-5.0304,-4.9949,-4.9576,-4.9154,-4.9018,-4.9018,-4.9018,-4.9018,-4.9018,-4.9018,-4.9018,-4.9018,-4.9018,-4.9018,-4.9018,-4.9018,-4.9018,-4.9018,-4.9018,-4.9018,-4.9018,-4.9018,-4.9018,-4.9018,-4.9018,-4.9018,-4.9018,-4.9018,-4.9018,-4.9018,-4.9018,-4.9018,-4.9018,-4.9018,-4.9018,-4.9018,-4.9018,-4.9018,-4.9018,-4.9018,-4.9018,-4.9018,-5.3518,-5.3518,-5.3518,-5.3518,-5.3518,-5.3518,-5.3518,-5.3518,-5.3518,-5.3518,-5.3518,-5.3518,-5.3518,-5.3518,-5.3501,-5.323,-5.2689,-5.1691,-5.0625,-4.9644,-4.9221,-4.9018,-4.9018,-4.9018,-4.9018,-4.9018,-4.9018,-4.9018,-4.9018,-4.9018,-4.9018,-4.9018,-4.9018,-4.8968,-4.9018,-4.9018,-4.8951,-4.8951,-4.9018,-4.9018,-4.9018,-4.9018,-4.9018,-4.9018,-4.9018,-4.9018,-4.9018,-4.9018,-4.9018,-4.9001,-4.9001,-4.9001,-4.9018,-4.9018,-4.9018,-4.9018,-4.9018,-4.9018,-4.9018,-4.9018,-4.9018,-4.9035,-4.9289,-4.9661,-5.0236,-5.0642,-5.1268,-5.1708,-5.2063,-5.2317,-5.2266,-5.186,-5.142,-5.076,-5.0304,-4.9779,-4.9204,-4.9018,-4.9018,-4.9018,-4.9018,-4.9018,-4.9018,-4.9018,-4.9018,-4.9018,-4.9018,-4.9018,-4.9018,-4.9018,-4.9018,-4.9018,-4.9018,-4.9018,-4.9018,-4.9018,-4.9018,-4.9018,-4.9018,-4.9018,-4.9018,-4.9018,-4.9018,-4.9018,-4.9018,-4.9018,-4.9018,-4.9018,-4.9018,-4.9018,-4.9018,-4.9018,-4.9018,-4.9018,-4.9018,-5.3518,-5.3518,-5.3518,-5.3518,-5.3518,-5.3518,-5.3518,-5.3518,-5.3518,-5.3518,-5.3518,-5.3518,-5.3518,-5.3518,-5.3518,-5.3467,-5.2909,-5.1928,-5.0727,-4.9999,-4.9289,-4.9052,-4.9018,-4.9018,-4.9018,-4.9018,-4.9018,-4.9018,-4.9018,-4.9018,-4.9018,-4.9018,-4.9018,-4.9018,-4.9018,-4.9018,-4.9018,-4.9018,-4.9018,-4.9018,-4.9018,-4.9018,-4.9018,-4.9018,-4.9018,-4.8829,-4.8719,-4.8639,-4.8719,-4.8798,-4.8798,-4.8861,-4.9001,-4.9018,-4.9018,-4.9018,-4.9018,-4.9018,-4.9069,-4.9137,-4.9238,-4.9204,-4.9847,-5.0321,-5.0727,-5.1471,-5.2097,-5.2587,-5.2926,-5.3298,-5.345,-5.2909,-5.2164,-5.1471,-5.071,-4.9982,-4.9357,-4.9103,-4.9018,-4.9018,-4.9018,-4.9018,-4.9018,-4.9018,-4.9018,-4.9018,-4.9018,-4.9018,-4.9018,-4.9018,-4.9018,-4.9018,-4.9018,-4.9018,-4.9018,-4.9018,-4.9018,-4.9018,-4.9018,-4.9018,-4.9018,-4.9018,-4.9018,-4.9018,-4.9018,-4.9018,-4.9018,-4.9018,-4.9018,-4.9018,-4.9018,-4.9018,-4.9018,-4.9018,-4.9018,-5.3518,-5.3518,-5.3518,-5.3518,-5.3518,-5.3518,-5.3518,-5.3518,-5.3518,-5.3518,-5.3518,-5.3518,-5.3518,-5.3518,-5.3518,-5.3162,-5.2587,-5.1742,-5.0913,-5.0152,-4.9458,-4.9103,-4.9018,-4.9018,-4.9018,-4.9018,-4.9018,-4.9018,-4.9018,-4.9018,-4.9018,-4.9018,-4.9018,-4.9018,-4.9018,-4.9018,-4.9018,-4.9018,-4.9018,-4.9018,-4.9018,-4.8909,-4.8861,-4.8829,-4.875,-4.8401,-4.7933,-4.7836,-4.7836,-4.7836,-4.7852,-4.8306,-4.8829,-4.9018,-4.9018,-4.9018,-4.9018,-4.9018,-4.9154,-4.9576,-4.9813,-5.0067,-5.0608,-5.1302,-5.1742,-5.2164,-5.2638,-5.3095,-5.3331,-5.3518,-5.3501,-5.3281,-5.2892,-5.2181,-5.1454,-5.0693,-4.9982,-4.9441,-4.9069,-4.9018,-4.9018,-4.9018,-4.9018,-4.9018,-4.9018,-4.9018,-4.9018,-4.9018,-4.9018,-4.9018,-4.9018,-4.9018,-4.9018,-4.9018,-4.9018,-4.9018,-4.9018,-4.9018,-4.9018,-4.9018,-4.9018,-4.9018,-4.9018,-4.9018,-4.9018,-4.9018,-4.9018,-4.9018,-4.9018,-4.9018,-4.9018,-4.9018,-4.9018,-4.9018,-4.9018,-5.3518,-5.3518,-5.3518,-5.3518,-5.3518,-5.3518,-5.3518,-5.3518,-5.3518,-5.3518,-5.3518,-5.3518,-5.3518,-5.3518,-5.3518,-5.3247,-5.2807,-5.2131,-5.1386,-5.0642,-4.9932,-4.9323,-4.9069,-4.9018,-4.9018,-4.9018,-4.9018,-4.9018,-4.9018,-4.9018,-4.9018,-4.9018,-4.9018,-4.9018,-4.9018,-4.9018,-4.897,-4.897,-4.897,-4.9001,-4.894,-4.8608,-4.8289,-4.8208,-4.7836,-4.7306,-4.702,-4.6884,-4.7138,-4.7489,-4.7638,-4.8129,-4.8688,-4.894,-4.8987,-4.8987,-4.9035,-4.9204,-4.9475,-4.9949,-5.0202,-5.071,-5.1369,-5.1877,-5.23,-5.2655,-5.3061,-5.3348,-5.3518,-5.3518,-5.3501,-5.3518,-5.3095,-5.2452,-5.1928,-5.1251,-5.0371,-4.9813,-4.9407,-4.9103,-4.9018,-4.9018,-4.9018,-4.9018,-4.9018,-4.9018,-4.9018,-4.9018,-4.9018,-4.9018,-4.9018,-4.9018,-4.9018,-4.9018,-4.9018,-4.9018,-4.9018,-4.9018,-4.9018,-4.9018,-4.9018,-4.9018,-4.9018,-4.9018,-4.9018,-4.9018,-4.9018,-4.9018,-4.9018,-4.9018,-4.9018,-4.9018,-4.9018,-4.9018,-4.9018,-5.3518,-5.3518,-5.3518,-5.3518,-5.3467,-5.3264,-5.3298,-5.3433,-5.323,-5.3264,-5.3518,-5.3518,-5.3518,-5.3518,-5.3518,-5.3484,-5.3433,-5.2638,-5.1944,-5.1336,-5.0439,-4.9729,-4.9373,-4.9069,-4.9018,-4.9018,-4.9018,-4.9018,-4.9018,-4.9018,-4.9018,-4.8909,-4.8909,-4.8719,-4.8656,-4.8289,-4.8497,-4.8465,-4.8688,-4.8767,-4.8719,-4.7933,-4.7456,-4.7523,-4.6712,-4.6224,-4.5941,-4.5905,-4.6224,-4.6643,-4.7002,-4.7489,-4.845,-4.8545,-4.858,-4.8873,-4.908,-4.956,-4.9932,-5.0574,-5.098,-5.142,-5.2131,-5.2452,-5.2672,-5.3095,-5.3467,-5.3518,-5.3518,-5.3518,-5.3518,-5.3518,-5.3213,-5.279,-5.2367,-5.1843,-5.0811,-5.0084,-4.9593,-4.9323,-4.9103,-4.897,-4.894,-4.9018,-4.9018,-4.9018,-4.9018,-4.9018,-4.9018,-4.9018,-4.9018,-4.9018,-4.9018,-4.9018,-4.9018,-4.9018,-4.9018,-4.9018,-4.9018,-4.9018,-4.9018,-4.9018,-4.9018,-4.9018,-4.9018,-4.9018,-4.9018,-4.9018,-4.9018,-4.9018,-4.9018,-4.9018,-4.9018,-4.9018,-4.9018,-5.3518,-5.3518,-5.3467,-5.3518,-5.3314,-5.2522,-5.2627,-5.323,-5.254,-5.2679,-5.3246,-5.3433,-5.3382,-5.3399,-5.3399,-5.3433,-5.3281,-5.2807,-5.2317,-5.1877,-5.0811,-5.0101,-4.9813,-4.9272,-4.9052,-4.9018,-4.9018,-4.9018,-4.8877,-4.8877,-4.894,-4.8781,-4.8112,-4.7754,-4.7688,-4.7223,-4.6539,-4.6747,-4.7406,-4.8193,-4.8513,-4.7256,-4.6918,-4.6986,-4.6539,-4.5654,-4.5042,-4.4983,-4.5153,-4.5264,-4.5264,-4.6064,-4.7239,-4.6902,-4.7479,-4.8431,-4.9355,-4.9999,-5.0293,-5.1134,-5.1894,-5.2249,-5.2858,-5.3264,-5.3112,-5.301,-5.3161,-5.3518,-5.3433,-5.323,-5.3144,-5.3416,-5.3382,-5.3112,-5.2673,-5.1998,-5.112,-5.0509,-5.0002,-4.8964,-4.8585,-4.8738,-4.8829,-4.894,-4.9018,-4.9018,-4.9018,-4.9018,-4.9018,-4.9018,-4.9018,-4.9018,-4.9018,-4.9018,-4.9018,-4.9018,-4.9018,-4.9018,-4.9018,-4.9018,-4.9018,-4.9018,-4.9018,-4.9018,-4.9018,-4.9018,-4.9018,-4.9018,-4.9018,-4.9018,-4.9018,-4.9018,-4.9018,-4.9018,-4.9018,-5.2416,-5.3416,-5.2835,-5.2592,-5.2557,-5.2065,-5.1813,-5.1902,-5.2539,-5.2381,-5.1974,-5.24,-5.2592,-5.2714,-5.2592,-5.2939,-5.3281,-5.3028,-5.2689,-5.2116,-5.1154,-5.0426,-4.9965,-4.939,-4.9018,-4.8861,-4.894,-4.8576,-4.845,-4.821,-4.8193,-4.8063,-4.7306,-4.6815,-4.6765,-4.6419,-4.6627,-4.6986,-4.744,-4.7803,-4.7638,-4.6555,-4.5597,-4.5977,-4.5122,-4.4479,-4.4143,-4.3966,-4.4297,-4.4586,-4.4812,-4.5395,-4.6384,-4.6502,-4.6775,-4.768,-4.914,-5.0026,-5.0576,-5.1648,-5.2353,-5.2875,-5.3213,-5.3162,-5.2731,-5.215,-5.1846,-5.172,-5.2293,-5.2329,-5.2293,-5.2886,-5.2904,-5.2788,-5.2553,-5.1864,-5.1229,-5.1005,-5.0332,-4.9174,-4.8183,-4.8374,-4.8639,-4.8861,-4.897,-4.9018,-4.9018,-4.9018,-4.9018,-4.9018,-4.9018,-4.9018,-4.9018,-4.9018,-4.9018,-4.9018,-4.9018,-4.9018,-4.9018,-4.9018,-4.9018,-4.9018,-4.9018,-4.9018,-4.9018,-4.9018,-4.9018,-4.9018,-4.9018,-4.9018,-4.9018,-4.9018,-4.9018,-4.9018,-4.9018,-5.1336,-5.2609,-5.1849,-5.1541,-5.1504,-5.1266,-5.1026,-5.1005,-5.1704,-5.1829,-5.1594,-5.2046,-5.2348,-5.2189,-5.2189,-5.2383,-5.3025,-5.2835,-5.238,-5.1745,-5.1078,-5.0242,-4.9477,-4.8877,-4.8361,-4.8338,-4.8047,-4.777,-4.7356,-4.7036,-4.6934,-4.7155,-4.6295,-4.5921,-4.5762,-4.553,-4.5602,-4.647,-4.6279,-4.6592,-4.6781,-4.5395,-4.4849,-4.4488,-4.3927,-4.3305,-4.3305,-4.3329,-4.381,-4.4143,-4.4335,-4.4781,-4.5618,-4.5688,-4.6113,-4.7088,-4.8433,-4.9418,-5.038,-5.1531,-5.2572,-5.2892,-5.2765,-5.2134,-5.1631,-5.0741,-5.0397,-5.0681,-5.108,-5.1043,-5.0946,-5.1918,-5.1902,-5.1938,-5.1996,-5.1391,-5.0813,-5.0301,-4.9859,-4.9011,-4.8183,-4.8049,-4.8353,-4.8767,-4.894,-4.9001,-4.9018,-4.9018,-4.9018,-4.9018,-4.9018,-4.9018,-4.9018,-4.9018,-4.9018,-4.9018,-4.9018,-4.9018,-4.9018,-4.9018,-4.9018,-4.9018,-4.9018,-4.9018,-4.9018,-4.9018,-4.9018,-4.9018,-4.9018,-4.9018,-4.9018,-4.9018,-4.9018,-4.9018,-4.9018,-5.049,-5.0589,-5.0512,-5.0474,-5.0451,-4.9416,-5.011,-5.1117,-4.9954,-5.0951,-5.2557,-5.3127,-5.2835,-5.2921,-5.2082,-5.1849,-5.2046,-5.1043,-5.087,-5.0499,-4.9823,-4.9309,-4.867,-4.8042,-4.7203,-4.6789,-4.6848,-4.6678,-4.6154,-4.5722,-4.5814,-4.6048,-4.5232,-4.4983,-4.4759,-4.4517,-4.4631,-4.5138,-4.484,-4.5106,-4.54,-4.4728,-4.3966,-4.4358,-4.3849,-4.3305,-4.3305,-4.3305,-4.3369,-4.363,-4.363,-4.3927,-4.467,-4.481,-4.5362,-4.6501,-4.7637,-4.8529,-4.9533,-5.1296,-5.2476,-5.2065,-5.1266,-5.0741,-5.0512,-5.0435,-5.032,-5.0087,-5.0227,-5.0281,-5.0281,-5.055,-5.0908,-5.0779,-5.086,-5.0601,-4.9929,-4.9196,-4.879,-4.8453,-4.8115,-4.777,-4.7998,-4.8401,-4.8829,-4.894,-4.9001,-4.9018,-4.9018,-4.9018,-4.9018,-4.9018,-4.9018,-4.9018,-4.9018,-4.9018,-4.9018,-4.9018,-4.9018,-4.9018,-4.9018,-4.9018,-4.9018,-4.9018,-4.9018,-4.9018,-4.9018,-4.9018,-4.9018,-4.9018,-4.9018,-4.9018,-4.9018,-4.9018,-4.9018,-4.8841,-4.9336,-4.8774,-4.8856,-4.9376,-4.8973,-4.8907,-4.9311,-5.0227,-5.0892,-5.1594,-5.0968,-5.0968,-5.132,-5.1357,-5.1357,-5.1687,-5.0855,-5.0435,-5.0157,-4.9661,-4.9175,-4.8568,-4.7754,-4.7065,-4.6658,-4.639,-4.5798,-4.5285,-4.4871,-4.4495,-4.4365,-4.4128,-4.395,-4.3732,-4.4028,-4.4412,-4.4472,-4.4434,-4.4743,-4.4668,-4.4151,-4.3472,-4.3693,-4.3669,-4.3305,-4.3305,-4.3305,-4.3305,-4.3305,-4.3319,-4.3651,-4.4085,-4.4223,-4.4961,-4.6011,-4.7098,-4.7997,-4.8752,-5.0474,-5.1283,-5.0984,-5.0071,-4.9416,-4.9392,-4.8922,-4.8584,-4.8625,-4.911,-4.9271,-4.8625,-4.9567,-5.0374,-4.9891,-4.9615,-4.9513,-4.9078,-4.8304,-4.7913,-4.7677,-4.7389,-4.7035,-4.7506,-4.8047,-4.8513,-4.8861,-4.894,-4.9018,-4.9018,-4.9018,-4.9018,-4.9018,-4.9018,-4.9018,-4.9018,-4.9018,-4.9018,-4.9018,-4.9018,-4.9018,-4.9018,-4.9018,-4.9018,-4.9018,-4.9018,-4.9018,-4.9018,-4.9018,-4.9018,-4.9018,-4.9018,-4.9018,-4.9018,-4.9018,-4.9018,-4.7737,-4.8252,-4.7609,-4.7679,-4.8335,-4.8361,-4.8141,-4.8115,-4.9575,-5.0381,-4.9891,-4.9416,-4.9655,-5.0204,-5.0048,-5.0188,-5.0419,-4.9852,-4.9512,-4.9155,-4.8849,-4.86,-4.8067,-4.73,-4.6289,-4.6278,-4.5661,-4.4825,-4.4358,-4.4373,-4.4028,-4.363,-4.3305,-4.3369,-4.3512,-4.3927,-4.4373,-4.4358,-4.4358,-4.4358,-4.422,-4.3732,-4.329,-4.3369,-4.3344,-4.3305,-4.3305,-4.3305,-4.3305,-4.3379,-4.3469,-4.3604,-4.3928,-4.4351,-4.508,-4.5909,-4.6785,-4.7886,-4.8497,-4.9271,-4.9891,-4.9813,-4.8963,-4.8486,-4.8141,-4.7679,-4.7651,-4.7581,-4.803,-4.8072,-4.7337,-4.8475,-4.9019,-4.8543,-4.8708,-4.8594,-4.8096,-4.7478,-4.7191,-4.6927,-4.6692,-4.6558,-4.6952,-4.7556,-4.8306,-4.8719,-4.897,-4.9018,-4.9018,-4.9018,-4.9018,-4.9018,-4.9018,-4.9018,-4.9018,-4.9018,-4.9018,-4.9018,-4.9018,-4.9018,-4.9018,-4.9018,-4.9018,-4.9018,-4.9018,-4.9018,-4.9018,-4.9018,-4.9018,-4.9018,-4.9018,-4.9018,-4.9018,-4.9018,-4.9018,-4.7352,-4.7309,-4.7309,-4.7337,-4.7467,-4.7352,-4.7849,-4.8293,-4.803,-4.8267,-4.9054,-4.9694,-5.0087,-5.0048,-4.9376,-4.9256,-4.9054,-4.8225,-4.7737,-4.7789,-4.7824,-4.7156,-4.6641,-4.6014,-4.554,-4.4419,-4.4071,-4.3795,-4.3472,-4.3591,-4.3409,-4.3369,-4.3305,-4.3305,-4.329,-4.3329,-4.3369,-4.3369,-4.3433,-4.3472,-4.3488,-4.3369,-4.3329,-4.3305,-4.3305,-4.3305,-4.3305,-4.3305,-4.3349,-4.3529,-4.3928,-4.4137,-4.4392,-4.5367,-4.6007,-4.6244,-4.6916,-4.7362,-4.7467,-4.8335,-4.8759,-4.88,-4.803,-4.7651,-4.7467,-4.7309,-4.7309,-4.7352,-4.7495,-4.7495,-4.7337,-4.7424,-4.7566,-4.7694,-4.7892,-4.7858,-4.7422,-4.6709,-4.6386,-4.6453,-4.6355,-4.626,-4.6558,-4.7054,-4.795,-4.8513,-4.8877,-4.9018,-4.9018,-4.9018,-4.9018,-4.9018,-4.9018,-4.9018,-4.9018,-4.9018,-4.9018,-4.9018,-4.9018,-4.9018,-4.9018,-4.9018,-4.9018,-4.9018,-4.9018,-4.9018,-4.9018,-4.9018,-4.9018,-4.9018,-4.9018,-4.9018,-4.9018,-4.9018,-4.9018,-4.7309,-4.7309,-4.7309,-4.7309,-4.7309,-4.7309,-4.7523,-4.7722,-4.7538,-4.7876,-4.8718,-4.9256,-4.9336,-4.9191,-4.9029,-4.8718,-4.8553,-4.7807,-4.7309,-4.7309,-4.7309,-4.7219,-4.6681,-4.5858,-4.517,-4.4721,-4.4018,-4.3305,-4.3329,-4.3305,-4.3305,-4.3305,-4.3305,-4.3305,-4.3305,-4.3305,-4.3305,-4.3305,-4.3344,-4.3344,-4.3305,-4.3305,-4.3305,-4.3305,-4.3305,-4.3305,-4.3305,-4.3305,-4.3439,-4.3753,-4.4227,-4.4526,-4.4945,-4.5933,-4.6294,-4.6444,-4.695,-4.7294,-4.7352,-4.7722,-4.7764,-4.7694,-4.7581,-4.7309,-4.7309,-4.7309,-4.7309,-4.7309,-4.7309,-4.7309,-4.7352,-4.7352,-4.7424,-4.7424,-4.751,-4.751,-4.7091,-4.613,-4.5626,-4.5993,-4.6119,-4.6036,-4.6208,-4.6712,-4.7556,-4.8257,-4.8656,-4.894,-4.9018,-4.9018,-4.9018,-4.9018,-4.9018,-4.9018,-4.9018,-4.9018,-4.9018,-4.9018,-4.9018,-4.9018,-4.9018,-4.9018,-4.9018,-4.9018,-4.9018,-4.9018,-4.9018,-4.9018,-4.9018,-4.9018,-4.9018,-4.9018,-4.9018,-4.9018,-4.9018,-4.7309,-4.7309,-4.7309,-4.7309,-4.7309,-4.7309,-4.7309,-4.7309,-4.7309,-4.7694,-4.8183,-4.8293,-4.8293,-4.8293,-4.8293,-4.8293,-4.821,-4.7651,-4.7309,-4.7309,-4.7309,-4.7279,-4.686,-4.6022,-4.5364,-4.493,-4.4107,-4.3305,-4.3305,-4.3305,-4.3305,-4.3305,-4.3305,-4.3305,-4.3305,-4.3305,-4.3305,-4.3305,-4.3305,-4.3305,-4.3305,-4.3305,-4.3305,-4.3305,-4.3305,-4.3305,-4.3305,-4.3364,-4.3484,-4.3917,-4.4407,-4.4796,-4.5409,-4.6067,-4.6561,-4.6845,-4.6995,-4.7294,-4.7309,-4.7352,-4.7424,-4.7381,-4.7309,-4.7309,-4.7309,-4.7309,-4.7309,-4.7309,-4.7309,-4.7309,-4.7309,-4.7309,-4.7309,-4.7309,-4.7309,-4.7309,-4.698,-4.6065,-4.5312,-4.57,-4.5596,-4.563,-4.5889,-4.6488,-4.7172,-4.7803,-4.8401,-4.8719,-4.9018,-4.9018,-4.9018,-4.9018,-4.9018,-4.9018,-4.9018,-4.9018,-4.9018,-4.9018,-4.9018,-4.9018,-4.9018,-4.9018,-4.9018,-4.9018,-4.9018,-4.9018,-4.9018,-4.9018,-4.9018,-4.9018,-4.9018,-4.9018,-4.9018,-4.9018,-4.9018,-4.7309,-4.7309,-4.7309,-4.7309,-4.7309,-4.7309,-4.7309,-4.7309,-4.7309,-4.7337,-4.7337,-4.7409,-4.7495,-4.7381,-4.7396,-4.7424,-4.7452,-4.7337,-4.7309,-4.7309,-4.7309,-4.7309,-4.686,-4.5978,-4.5424,-4.4855,-4.4122,-4.3305,-4.3305,-4.3305,-4.3305,-4.3305,-4.3305,-4.3305,-4.3305,-4.3305,-4.3305,-4.3305,-4.3305,-4.3305,-4.3305,-4.3305,-4.3305,-4.3305,-4.3305,-4.3305,-4.3305,-4.3334,-4.3379,-4.3853,-4.4511,-4.5035,-4.5723,-4.6576,-4.7025,-4.7294,-4.7279,-4.7294,-4.7309,-4.7309,-4.7309,-4.7309,-4.7309,-4.7309,-4.7309,-4.7309,-4.7309,-4.7309,-4.7309,-4.7309,-4.7309,-4.7309,-4.7309,-4.7309,-4.7309,-4.7174,-4.695,-4.6262,-4.5454,-4.5183,-4.4847,-4.4905,-4.5395,-4.6012,-4.6747,-4.7356,-4.8047,-4.8767,-4.9018,-4.9018,-4.9018,-4.9018,-4.9018,-4.9018,-4.9018,-4.9018,-4.9018,-4.9018,-4.9018,-4.9018,-4.9018,-4.9018,-4.9018,-4.9018,-4.9018,-4.9018,-4.9018,-4.9018,-4.9018,-4.9018,-4.9018,-4.9018,-4.9018,-4.9018,-4.9018,-4.7309,-4.7309,-4.7309,-4.7309,-4.7309,-4.7309,-4.7309,-4.7309,-4.7309,-4.7309,-4.7309,-4.7309,-4.7309,-4.7309,-4.7309,-4.7309,-4.7309,-4.7309,-4.7309,-4.7309,-4.7309,-4.7309,-4.683,-4.6022,-4.5454,-4.4855,-4.4097,-4.3305,-4.3305,-4.3305,-4.3305,-4.3305,-4.3305,-4.3305,-4.3305,-4.3305,-4.3305,-4.3305,-4.3305,-4.3305,-4.3305,-4.3305,-4.3305,-4.3305,-4.3305,-4.3305,-4.3305,-4.3305,-4.3439,-4.4037,-4.4362,-4.487,-4.6097,-4.6441,-4.6653,-4.7264,-4.7309,-4.7309,-4.7309,-4.7309,-4.7309,-4.7309,-4.7309,-4.7309,-4.7309,-4.7309,-4.7309,-4.7309,-4.7309,-4.7309,-4.7309,-4.7309,-4.7309,-4.7309,-4.7219,-4.6965,-4.6651,-4.5933,-4.5155,-4.4558,-4.423,-4.4134,-4.4668,-4.5618,-4.633,-4.6968,-4.7655,-4.8482,-4.9018,-4.9018,-4.9018,-4.9018,-4.9018,-4.9018,-4.9018,-4.9018,-4.9018,-4.9018,-4.9018,-4.9018,-4.9018,-4.9018,-4.9018,-4.9018,-4.9018,-4.9018,-4.9018,-4.9018,-4.9018,-4.9018,-4.9018,-4.9018,-4.9018,-4.9018,-4.9018,-4.7309,-4.7309,-4.7309,-4.7309,-4.7309,-4.7309,-4.7309,-4.7309,-4.7309,-4.7309,-4.7309,-4.7309,-4.7309,-4.7309,-4.7309,-4.7309,-4.7309,-4.7309,-4.7309,-4.7309,-4.7309,-4.7309,-4.6845,-4.6037,-4.5424,-4.4825,-4.4152,-4.3305,-4.3305,-4.3305,-4.3305,-4.3305,-4.3305,-4.3305,-4.3305,-4.3305,-4.3305,-4.3305,-4.3305,-4.3305,-4.3305,-4.3305,-4.3305,-4.3305,-4.3305,-4.3305,-4.3305,-4.3305,-4.3544,-4.3932,-4.4022,-4.4781,-4.5918,-4.6337,-4.6785,-4.7294,-4.7309,-4.7309,-4.7309,-4.7309,-4.7309,-4.7309,-4.7309,-4.7309,-4.7309,-4.7309,-4.7309,-4.7309,-4.7309,-4.7309,-4.7309,-4.7309,-4.7309,-4.7309,-4.7025,-4.6698,-4.6112,-4.5424,-4.4721,-4.4007,-4.3683,-4.3459,-4.3989,-4.5026,-4.5941,-4.6574,-4.734,-4.8257,-4.8798,-4.9018,-4.9018,-4.9018,-4.9018,-4.9018,-4.9018,-4.9018,-4.9018,-4.9018,-4.9018,-4.9018,-4.9018,-4.9018,-4.9018,-4.9018,-4.9018,-4.9018,-4.9018,-4.9018,-4.9018,-4.9018,-4.9018,-4.9018,-4.9018,-4.9018,-4.9018,-4.7249,-4.7309,-4.7309,-4.7309,-4.7309,-4.7309,-4.7309,-4.7309,-4.7309,-4.7309,-4.7309,-4.7309,-4.7309,-4.7309,-4.7309,-4.7309,-4.7309,-4.7309,-4.7309,-4.7309,-4.7309,-4.7309,-4.692,-4.6007,-4.5394,-4.4855,-4.4167,-4.3305,-4.3305,-4.3305,-4.3305,-4.3305,-4.3305,-4.3305,-4.3305,-4.3305,-4.3305,-4.3305,-4.3305,-4.3305,-4.3305,-4.3305,-4.3305,-4.3305,-4.3305,-4.3305,-4.3305,-4.3305,-4.3305,-4.3514,-4.3843,-4.4511,-4.5469,-4.6367,-4.695,-4.7189,-4.716,-4.7219,-4.7249,-4.7309,-4.7309,-4.7309,-4.7309,-4.7309,-4.7309,-4.7309,-4.7309,-4.7309,-4.7309,-4.7309,-4.7309,-4.7279,-4.7264,-4.704,-4.6711,-4.619,-4.5529,-4.484,-4.4112,-4.3589,-4.3484,-4.3344,-4.3551,-4.4593,-4.5322,-4.6048,-4.6815,-4.7737,-4.8112,-4.8433,-4.8798,-4.8829,-4.897,-4.897,-4.9018,-4.9018,-4.9018,-4.9018,-4.9018,-4.9018,-4.9018,-4.9018,-4.9018,-4.9018,-4.9018,-4.9018,-4.9018,-4.9018,-4.9018,-4.9018,-4.9018,-4.9018,-4.9018,-4.9018,-4.9018,-4.6845,-4.7309,-4.7309,-4.7309,-4.7309,-4.7309,-4.7309,-4.7309,-4.7309,-4.7309,-4.7309,-4.7309,-4.7309,-4.7309,-4.7309,-4.7309,-4.7309,-4.7309,-4.7309,-4.7309,-4.7309,-4.7309,-4.704,-4.5978,-4.5394,-4.487,-4.4167,-4.3305,-4.3305,-4.3305,-4.3305,-4.3305,-4.3305,-4.3305,-4.3305,-4.3305,-4.3305,-4.3305,-4.3305,-4.3305,-4.3305,-4.3305,-4.3305,-4.3305,-4.3305,-4.3305,-4.3305,-4.3305,-4.3305,-4.3379,-4.3424,-4.4127,-4.5229,-4.6097,-4.677,-4.71,-4.6785,-4.6815,-4.698,-4.707,-4.7055,-4.7174,-4.7204,-4.7279,-4.7309,-4.7309,-4.7279,-4.7264,-4.7309,-4.7309,-4.7234,-4.7204,-4.7115,-4.6756,-4.6307,-4.5618,-4.4945,-4.4231,-4.3529,-4.3409,-4.3319,-4.3409,-4.3512,-4.395,-4.4699,-4.5358,-4.6012,-4.6627,-4.6815,-4.7122,-4.8112,-4.8353,-4.8877,-4.894,-4.8909,-4.9018,-4.9018,-4.9018,-4.9018,-4.9018,-4.9018,-4.9018,-4.9018,-4.9018,-4.9018,-4.9018,-4.9018,-4.9018,-4.9018,-4.9018,-4.9018,-4.9018,-4.9018,-4.9018,-4.9018,-4.6247,-4.6875,-4.7189,-4.7309,-4.7309,-4.7309,-4.7309,-4.7309,-4.7309,-4.7309,-4.7309,-4.7309,-4.7309,-4.7309,-4.7309,-4.7309,-4.7309,-4.7309,-4.7309,-4.7309,-4.7309,-4.7309,-4.6756,-4.5948,-4.5499,-4.4945,-4.3932,-4.3305,-4.3305,-4.3305,-4.3305,-4.3305,-4.3305,-4.3305,-4.3305,-4.3305,-4.3305,-4.3305,-4.3305,-4.3305,-4.3305,-4.3305,-4.3305,-4.3305,-4.3305,-4.3305,-4.3305,-4.3305,-4.3305,-4.3439,-4.3618,-4.3962,-4.484,-4.5469,-4.5978,-4.6157,-4.6097,-4.6037,-4.6337,-4.6501,-4.6516,-4.6531,-4.6456,-4.6277,-4.6247,-4.6232,-4.6501,-4.6576,-4.7189,-4.7294,-4.686,-4.6711,-4.6696,-4.6471,-4.5618,-4.4766,-4.4257,-4.3708,-4.3379,-4.3349,-4.3305,-4.3344,-4.3409,-4.3472,-4.4182,-4.4887,-4.5504,-4.5854,-4.5925,-4.5818,-4.6833,-4.7688,-4.8047,-4.8338,-4.8257,-4.8576,-4.9018,-4.9018,-4.9018,-4.9018,-4.9018,-4.9018,-4.9018,-4.9018,-4.9018,-4.9018,-4.9018,-4.9018,-4.9018,-4.9018,-4.9018,-4.9018,-4.9018,-4.9018,-4.9018,-4.5633,-4.6324,-4.6935,-4.7234,-4.7309,-4.7309,-4.7309,-4.7309,-4.7309,-4.7309,-4.7309,-4.7309,-4.7309,-4.7309,-4.7309,-4.7309,-4.7309,-4.7309,-4.7309,-4.7309,-4.7309,-4.7145,-4.6651,-4.5948,-4.5304,-4.4631,-4.3753,-4.3424,-4.3305,-4.3305,-4.3305,-4.3305,-4.3305,-4.3305,-4.3305,-4.3305,-4.3305,-4.3305,-4.3305,-4.3305,-4.3305,-4.3305,-4.3305,-4.3305,-4.3305,-4.3305,-4.3305,-4.3305,-4.3305,-4.3529,-4.3828,-4.4197,-4.4436,-4.4915,-4.5229,-4.5439,-4.5334,-4.5319,-4.5439,-4.5559,-4.5499,-4.5394,-4.5274,-4.5274,-4.5319,-4.5469,-4.5738,-4.5978,-4.6606,-4.68,-4.6367,-4.6172,-4.6157,-4.5858,-4.487,-4.4107,-4.3663,-4.3319,-4.3305,-4.3305,-4.3305,-4.3305,-4.3305,-4.3329,-4.3708,-4.4412,-4.4834,-4.5211,-4.5363,-4.5106,-4.5421,-4.6279,-4.6884,-4.7172,-4.7721,-4.8338,-4.9001,-4.9018,-4.9018,-4.9018,-4.9018,-4.9018,-4.9018,-4.9018,-4.9018,-4.897,-4.9001,-4.9018,-4.9018,-4.897,-4.9018,-4.9018,-4.9018,-4.9018,-4.9018,-4.5214,-4.6294,-4.6471,-4.68,-4.7249,-4.7309,-4.7309,-4.7309,-4.7309,-4.7309,-4.7309,-4.7309,-4.7309,-4.7309,-4.7309,-4.7309,-4.7309,-4.7309,-4.7309,-4.7309,-4.7309,-4.698,-4.6396,-4.5618,-4.4691,-4.3977,-4.3499,-4.3379,-4.3305,-4.3305,-4.3305,-4.3305,-4.3305,-4.3305,-4.3305,-4.3305,-4.3305,-4.3305,-4.3305,-4.3305,-4.3305,-4.3305,-4.3305,-4.3305,-4.3305,-4.3305,-4.3305,-4.3305,-4.3305,-4.3484,-4.3813,-4.4137,-4.4287,-4.4392,-4.4661,-4.4811,-4.4691,-4.4736,-4.4825,-4.4945,-4.493,-4.499,-4.4975,-4.502,-4.505,-4.508,-4.511,-4.4811,-4.5289,-4.5648,-4.5439,-4.5469,-4.5424,-4.4825,-4.3947,-4.3693,-4.3379,-4.3305,-4.3305,-4.3305,-4.3305,-4.3305,-4.3305,-4.329,-4.3329,-4.3825,-4.3825,-4.4151,-4.4228,-4.4151,-4.4151,-4.5011,-4.5869,-4.7273,-4.8401,-4.8576,-4.9018,-4.9018,-4.9018,-4.9018,-4.9018,-4.9018,-4.9001,-4.8767,-4.8829,-4.8861,-4.8909,-4.8719,-4.894,-4.894,-4.897,-4.9018,-4.9018,-4.9018,-4.9018]}]]